<?xml version="1.0" encoding="UTF-8"?>
<gpx version="1.1" creator="https://www.youtrack.es" xsi:schemaLocation="http://www.topografix.com/GPX/1/1 http://www.topografix.com/GPX/1/1/gpx.xsd http://www.garmin.com/xmlschemas/GpxExtensions/v3 http://www.garmin.com/xmlschemas/GpxExtensionsv3.xsd http://www.garmin.com/xmlschemas/TrackPointExtension/v1 http://www.garmin.com/xmlschemas/TrackPointExtensionv1.xsd" xmlns:gpxtpx="http://www.garmin.com/xmlschemas/TrackPointExtension/v1" xmlns:gpxx="http://www.garmin.com/xmlschemas/GpxExtensions/v3" xmlns:xsi="http://www.w3.org/2001/XMLSchema-instance">
  <metadata>
    <link href="https://www.youtrack.es">
      <text>YouTrack.es</text>
    </link>
    <time>2026-05-08T11:05:30Z</time>
  </metadata>
  <trk>
    <src>https://www.youtrack.es</src>
    <link href="https://www.youtrack.es/ruta/22189-pujada">
      <text>YouTrack.es</text>
    </link>
    <trkseg>
      <trkpt lat="41.725463" lon="2.291386">
        <ele>568.60</ele>
        <time>2021-05-22T06:01:17Z</time>
      </trkpt>
      <trkpt lat="41.725463" lon="2.291386">
        <ele>568.60</ele>
        <time>2021-05-22T06:01:19Z</time>
      </trkpt>
      <trkpt lat="41.725463" lon="2.291386">
        <ele>568.60</ele>
        <time>2021-05-22T06:01:20Z</time>
      </trkpt>
      <trkpt lat="41.725463" lon="2.291386">
        <ele>568.60</ele>
        <time>2021-05-22T06:01:22Z</time>
      </trkpt>
      <trkpt lat="41.725463" lon="2.291386">
        <ele>568.60</ele>
        <time>2021-05-22T06:01:23Z</time>
      </trkpt>
      <trkpt lat="41.725463" lon="2.291386">
        <ele>568.60</ele>
        <time>2021-05-22T06:01:24Z</time>
      </trkpt>
      <trkpt lat="41.725493" lon="2.291402">
        <ele>568.80</ele>
        <time>2021-05-22T06:01:25Z</time>
      </trkpt>
      <trkpt lat="41.725776" lon="2.291303">
        <ele>569.80</ele>
        <time>2021-05-22T06:01:28Z</time>
      </trkpt>
      <trkpt lat="41.725777" lon="2.291327">
        <ele>570.00</ele>
        <time>2021-05-22T06:01:29Z</time>
      </trkpt>
      <trkpt lat="41.725785" lon="2.291354">
        <ele>570.40</ele>
        <time>2021-05-22T06:01:30Z</time>
      </trkpt>
      <trkpt lat="41.725791" lon="2.291380">
        <ele>570.60</ele>
        <time>2021-05-22T06:01:31Z</time>
      </trkpt>
      <trkpt lat="41.725794" lon="2.291414">
        <ele>570.60</ele>
        <time>2021-05-22T06:01:32Z</time>
      </trkpt>
      <trkpt lat="41.725793" lon="2.291450">
        <ele>570.80</ele>
        <time>2021-05-22T06:01:33Z</time>
      </trkpt>
      <trkpt lat="41.725782" lon="2.291559">
        <ele>571.20</ele>
        <time>2021-05-22T06:01:36Z</time>
      </trkpt>
      <trkpt lat="41.725755" lon="2.291642">
        <ele>571.20</ele>
        <time>2021-05-22T06:01:38Z</time>
      </trkpt>
      <trkpt lat="41.725699" lon="2.291829">
        <ele>570.20</ele>
        <time>2021-05-22T06:01:42Z</time>
      </trkpt>
      <trkpt lat="41.725657" lon="2.291934">
        <ele>570.00</ele>
        <time>2021-05-22T06:01:44Z</time>
      </trkpt>
      <trkpt lat="41.725631" lon="2.291988">
        <ele>569.80</ele>
        <time>2021-05-22T06:01:45Z</time>
      </trkpt>
      <trkpt lat="41.725540" lon="2.292156">
        <ele>569.20</ele>
        <time>2021-05-22T06:01:48Z</time>
      </trkpt>
      <trkpt lat="41.725505" lon="2.292209">
        <ele>568.80</ele>
        <time>2021-05-22T06:01:49Z</time>
      </trkpt>
      <trkpt lat="41.725470" lon="2.292257">
        <ele>568.60</ele>
        <time>2021-05-22T06:01:50Z</time>
      </trkpt>
      <trkpt lat="41.725319" lon="2.292437">
        <ele>568.20</ele>
        <time>2021-05-22T06:01:54Z</time>
      </trkpt>
      <trkpt lat="41.725241" lon="2.292534">
        <ele>568.20</ele>
        <time>2021-05-22T06:01:56Z</time>
      </trkpt>
      <trkpt lat="41.725206" lon="2.292584">
        <ele>568.00</ele>
        <time>2021-05-22T06:01:57Z</time>
      </trkpt>
      <trkpt lat="41.725179" lon="2.292636">
        <ele>568.00</ele>
        <time>2021-05-22T06:01:58Z</time>
      </trkpt>
      <trkpt lat="41.725141" lon="2.292751">
        <ele>568.00</ele>
        <time>2021-05-22T06:02:00Z</time>
      </trkpt>
      <trkpt lat="41.725127" lon="2.292809">
        <ele>568.00</ele>
        <time>2021-05-22T06:02:01Z</time>
      </trkpt>
      <trkpt lat="41.725126" lon="2.292863">
        <ele>568.00</ele>
        <time>2021-05-22T06:02:02Z</time>
      </trkpt>
      <trkpt lat="41.725100" lon="2.293149">
        <ele>568.40</ele>
        <time>2021-05-22T06:02:07Z</time>
      </trkpt>
      <trkpt lat="41.725075" lon="2.293318">
        <ele>569.00</ele>
        <time>2021-05-22T06:02:11Z</time>
      </trkpt>
      <trkpt lat="41.725025" lon="2.293644">
        <ele>569.40</ele>
        <time>2021-05-22T06:02:16Z</time>
      </trkpt>
      <trkpt lat="41.725026" lon="2.293673">
        <ele>569.40</ele>
        <time>2021-05-22T06:02:17Z</time>
      </trkpt>
      <trkpt lat="41.725027" lon="2.293702">
        <ele>569.40</ele>
        <time>2021-05-22T06:02:18Z</time>
      </trkpt>
      <trkpt lat="41.725050" lon="2.293818">
        <ele>569.60</ele>
        <time>2021-05-22T06:02:20Z</time>
      </trkpt>
      <trkpt lat="41.725067" lon="2.293873">
        <ele>569.40</ele>
        <time>2021-05-22T06:02:21Z</time>
      </trkpt>
      <trkpt lat="41.725091" lon="2.293923">
        <ele>569.40</ele>
        <time>2021-05-22T06:02:22Z</time>
      </trkpt>
      <trkpt lat="41.725102" lon="2.293969">
        <ele>569.40</ele>
        <time>2021-05-22T06:02:23Z</time>
      </trkpt>
      <trkpt lat="41.725085" lon="2.294014">
        <ele>569.60</ele>
        <time>2021-05-22T06:02:24Z</time>
      </trkpt>
      <trkpt lat="41.725060" lon="2.294048">
        <ele>569.60</ele>
        <time>2021-05-22T06:02:25Z</time>
      </trkpt>
      <trkpt lat="41.725027" lon="2.294075">
        <ele>569.60</ele>
        <time>2021-05-22T06:02:26Z</time>
      </trkpt>
      <trkpt lat="41.724972" lon="2.294139">
        <ele>569.80</ele>
        <time>2021-05-22T06:02:27Z</time>
      </trkpt>
      <trkpt lat="41.724898" lon="2.294257">
        <ele>570.00</ele>
        <time>2021-05-22T06:02:31Z</time>
      </trkpt>
      <trkpt lat="41.724810" lon="2.294506">
        <ele>569.60</ele>
        <time>2021-05-22T06:02:36Z</time>
      </trkpt>
      <trkpt lat="41.724792" lon="2.294629">
        <ele>569.60</ele>
        <time>2021-05-22T06:02:37Z</time>
      </trkpt>
      <trkpt lat="41.724788" lon="2.294693">
        <ele>569.40</ele>
        <time>2021-05-22T06:02:39Z</time>
      </trkpt>
      <trkpt lat="41.724760" lon="2.294873">
        <ele>569.00</ele>
        <time>2021-05-22T06:02:42Z</time>
      </trkpt>
      <trkpt lat="41.724758" lon="2.294933">
        <ele>568.80</ele>
        <time>2021-05-22T06:02:43Z</time>
      </trkpt>
      <trkpt lat="41.724759" lon="2.294995">
        <ele>568.80</ele>
        <time>2021-05-22T06:02:44Z</time>
      </trkpt>
      <trkpt lat="41.724773" lon="2.295059">
        <ele>568.60</ele>
        <time>2021-05-22T06:02:45Z</time>
      </trkpt>
      <trkpt lat="41.724813" lon="2.295177">
        <ele>568.40</ele>
        <time>2021-05-22T06:02:47Z</time>
      </trkpt>
      <trkpt lat="41.724823" lon="2.295234">
        <ele>568.40</ele>
        <time>2021-05-22T06:02:48Z</time>
      </trkpt>
      <trkpt lat="41.724845" lon="2.295417">
        <ele>569.40</ele>
        <time>2021-05-22T06:02:53Z</time>
      </trkpt>
      <trkpt lat="41.724846" lon="2.295435">
        <ele>569.80</ele>
        <time>2021-05-22T06:02:54Z</time>
      </trkpt>
      <trkpt lat="41.724830" lon="2.295498">
        <ele>571.00</ele>
        <time>2021-05-22T06:02:57Z</time>
      </trkpt>
      <trkpt lat="41.724814" lon="2.295549">
        <ele>571.20</ele>
        <time>2021-05-22T06:03:00Z</time>
      </trkpt>
      <trkpt lat="41.724780" lon="2.295624">
        <ele>572.00</ele>
        <time>2021-05-22T06:03:03Z</time>
      </trkpt>
      <trkpt lat="41.724772" lon="2.295672">
        <ele>572.00</ele>
        <time>2021-05-22T06:03:04Z</time>
      </trkpt>
      <trkpt lat="41.724764" lon="2.295696">
        <ele>572.40</ele>
        <time>2021-05-22T06:03:06Z</time>
      </trkpt>
      <trkpt lat="41.724706" lon="2.295804">
        <ele>573.20</ele>
        <time>2021-05-22T06:03:10Z</time>
      </trkpt>
      <trkpt lat="41.724669" lon="2.295863">
        <ele>573.60</ele>
        <time>2021-05-22T06:03:13Z</time>
      </trkpt>
      <trkpt lat="41.724634" lon="2.295916">
        <ele>574.00</ele>
        <time>2021-05-22T06:03:16Z</time>
      </trkpt>
      <trkpt lat="41.724593" lon="2.295968">
        <ele>574.20</ele>
        <time>2021-05-22T06:03:19Z</time>
      </trkpt>
      <trkpt lat="41.724584" lon="2.296025">
        <ele>574.60</ele>
        <time>2021-05-22T06:03:22Z</time>
      </trkpt>
      <trkpt lat="41.724582" lon="2.296069">
        <ele>575.40</ele>
        <time>2021-05-22T06:03:25Z</time>
      </trkpt>
      <trkpt lat="41.724575" lon="2.296190">
        <ele>576.40</ele>
        <time>2021-05-22T06:03:31Z</time>
      </trkpt>
      <trkpt lat="41.724550" lon="2.296337">
        <ele>577.40</ele>
        <time>2021-05-22T06:03:38Z</time>
      </trkpt>
      <trkpt lat="41.724549" lon="2.296371">
        <ele>577.60</ele>
        <time>2021-05-22T06:03:40Z</time>
      </trkpt>
      <trkpt lat="41.724539" lon="2.296463">
        <ele>578.20</ele>
        <time>2021-05-22T06:03:46Z</time>
      </trkpt>
      <trkpt lat="41.724539" lon="2.296480">
        <ele>578.60</ele>
        <time>2021-05-22T06:03:47Z</time>
      </trkpt>
      <trkpt lat="41.724540" lon="2.296535">
        <ele>579.20</ele>
        <time>2021-05-22T06:03:50Z</time>
      </trkpt>
      <trkpt lat="41.724549" lon="2.296567">
        <ele>579.60</ele>
        <time>2021-05-22T06:03:52Z</time>
      </trkpt>
      <trkpt lat="41.724551" lon="2.296585">
        <ele>579.60</ele>
        <time>2021-05-22T06:03:53Z</time>
      </trkpt>
      <trkpt lat="41.724534" lon="2.296671">
        <ele>580.80</ele>
        <time>2021-05-22T06:03:58Z</time>
      </trkpt>
      <trkpt lat="41.724513" lon="2.296739">
        <ele>581.60</ele>
        <time>2021-05-22T06:04:02Z</time>
      </trkpt>
      <trkpt lat="41.724500" lon="2.296774">
        <ele>582.00</ele>
        <time>2021-05-22T06:04:04Z</time>
      </trkpt>
      <trkpt lat="41.724486" lon="2.296800">
        <ele>582.20</ele>
        <time>2021-05-22T06:04:06Z</time>
      </trkpt>
      <trkpt lat="41.724463" lon="2.296856">
        <ele>583.20</ele>
        <time>2021-05-22T06:04:11Z</time>
      </trkpt>
      <trkpt lat="41.724500" lon="2.296876">
        <ele>583.40</ele>
        <time>2021-05-22T06:04:14Z</time>
      </trkpt>
      <trkpt lat="41.724560" lon="2.296918">
        <ele>584.40</ele>
        <time>2021-05-22T06:04:20Z</time>
      </trkpt>
      <trkpt lat="41.724582" lon="2.296923">
        <ele>584.80</ele>
        <time>2021-05-22T06:04:22Z</time>
      </trkpt>
      <trkpt lat="41.724592" lon="2.296927">
        <ele>585.00</ele>
        <time>2021-05-22T06:04:23Z</time>
      </trkpt>
      <trkpt lat="41.724596" lon="2.296921">
        <ele>585.40</ele>
        <time>2021-05-22T06:04:26Z</time>
      </trkpt>
      <trkpt lat="41.724566" lon="2.296945">
        <ele>584.60</ele>
        <time>2021-05-22T06:04:33Z</time>
      </trkpt>
      <trkpt lat="41.724558" lon="2.296938">
        <ele>584.60</ele>
        <time>2021-05-22T06:04:34Z</time>
      </trkpt>
      <trkpt lat="41.724554" lon="2.296942">
        <ele>584.60</ele>
        <time>2021-05-22T06:04:35Z</time>
      </trkpt>
      <trkpt lat="41.724513" lon="2.296954">
        <ele>585.00</ele>
        <time>2021-05-22T06:04:39Z</time>
      </trkpt>
      <trkpt lat="41.724479" lon="2.296962">
        <ele>585.80</ele>
        <time>2021-05-22T06:04:42Z</time>
      </trkpt>
      <trkpt lat="41.724407" lon="2.296988">
        <ele>586.60</ele>
        <time>2021-05-22T06:04:48Z</time>
      </trkpt>
      <trkpt lat="41.724394" lon="2.297006">
        <ele>587.40</ele>
        <time>2021-05-22T06:04:51Z</time>
      </trkpt>
      <trkpt lat="41.724346" lon="2.297031">
        <ele>588.00</ele>
        <time>2021-05-22T06:04:54Z</time>
      </trkpt>
      <trkpt lat="41.724322" lon="2.297038">
        <ele>588.20</ele>
        <time>2021-05-22T06:04:55Z</time>
      </trkpt>
      <trkpt lat="41.724300" lon="2.297060">
        <ele>588.60</ele>
        <time>2021-05-22T06:04:57Z</time>
      </trkpt>
      <trkpt lat="41.724255" lon="2.297099">
        <ele>589.20</ele>
        <time>2021-05-22T06:05:00Z</time>
      </trkpt>
      <trkpt lat="41.724181" lon="2.297171">
        <ele>590.40</ele>
        <time>2021-05-22T06:05:05Z</time>
      </trkpt>
      <trkpt lat="41.724144" lon="2.297208">
        <ele>591.00</ele>
        <time>2021-05-22T06:05:08Z</time>
      </trkpt>
      <trkpt lat="41.724136" lon="2.297230">
        <ele>591.40</ele>
        <time>2021-05-22T06:05:09Z</time>
      </trkpt>
      <trkpt lat="41.724134" lon="2.297246">
        <ele>591.60</ele>
        <time>2021-05-22T06:05:10Z</time>
      </trkpt>
      <trkpt lat="41.724111" lon="2.297347">
        <ele>592.40</ele>
        <time>2021-05-22T06:05:16Z</time>
      </trkpt>
      <trkpt lat="41.724102" lon="2.297391">
        <ele>592.40</ele>
        <time>2021-05-22T06:05:18Z</time>
      </trkpt>
      <trkpt lat="41.724096" lon="2.297409">
        <ele>592.60</ele>
        <time>2021-05-22T06:05:19Z</time>
      </trkpt>
      <trkpt lat="41.724093" lon="2.297423">
        <ele>592.80</ele>
        <time>2021-05-22T06:05:20Z</time>
      </trkpt>
      <trkpt lat="41.724081" lon="2.297452">
        <ele>593.20</ele>
        <time>2021-05-22T06:05:22Z</time>
      </trkpt>
      <trkpt lat="41.724069" lon="2.297482">
        <ele>593.40</ele>
        <time>2021-05-22T06:05:24Z</time>
      </trkpt>
      <trkpt lat="41.724074" lon="2.297556">
        <ele>594.00</ele>
        <time>2021-05-22T06:05:28Z</time>
      </trkpt>
      <trkpt lat="41.724054" lon="2.297580">
        <ele>594.00</ele>
        <time>2021-05-22T06:05:29Z</time>
      </trkpt>
      <trkpt lat="41.723992" lon="2.297708">
        <ele>594.60</ele>
        <time>2021-05-22T06:05:37Z</time>
      </trkpt>
      <trkpt lat="41.723948" lon="2.297742">
        <ele>595.20</ele>
        <time>2021-05-22T06:05:41Z</time>
      </trkpt>
      <trkpt lat="41.723895" lon="2.297756">
        <ele>596.00</ele>
        <time>2021-05-22T06:05:44Z</time>
      </trkpt>
      <trkpt lat="41.723863" lon="2.297781">
        <ele>596.20</ele>
        <time>2021-05-22T06:05:46Z</time>
      </trkpt>
      <trkpt lat="41.723846" lon="2.297837">
        <ele>596.40</ele>
        <time>2021-05-22T06:05:49Z</time>
      </trkpt>
      <trkpt lat="41.723855" lon="2.297877">
        <ele>596.60</ele>
        <time>2021-05-22T06:05:51Z</time>
      </trkpt>
      <trkpt lat="41.723868" lon="2.297899">
        <ele>596.80</ele>
        <time>2021-05-22T06:05:52Z</time>
      </trkpt>
      <trkpt lat="41.723880" lon="2.297921">
        <ele>597.00</ele>
        <time>2021-05-22T06:05:53Z</time>
      </trkpt>
      <trkpt lat="41.723887" lon="2.297942">
        <ele>597.00</ele>
        <time>2021-05-22T06:05:54Z</time>
      </trkpt>
      <trkpt lat="41.723881" lon="2.298005">
        <ele>597.20</ele>
        <time>2021-05-22T06:05:56Z</time>
      </trkpt>
      <trkpt lat="41.723881" lon="2.298127">
        <ele>597.40</ele>
        <time>2021-05-22T06:06:00Z</time>
      </trkpt>
      <trkpt lat="41.723880" lon="2.298187">
        <ele>597.80</ele>
        <time>2021-05-22T06:06:02Z</time>
      </trkpt>
      <trkpt lat="41.723923" lon="2.298340">
        <ele>598.60</ele>
        <time>2021-05-22T06:06:08Z</time>
      </trkpt>
      <trkpt lat="41.723953" lon="2.298400">
        <ele>598.80</ele>
        <time>2021-05-22T06:06:11Z</time>
      </trkpt>
      <trkpt lat="41.723979" lon="2.298479">
        <ele>599.40</ele>
        <time>2021-05-22T06:06:15Z</time>
      </trkpt>
      <trkpt lat="41.723976" lon="2.298502">
        <ele>599.60</ele>
        <time>2021-05-22T06:06:16Z</time>
      </trkpt>
      <trkpt lat="41.723992" lon="2.298565">
        <ele>600.00</ele>
        <time>2021-05-22T06:06:19Z</time>
      </trkpt>
      <trkpt lat="41.723992" lon="2.298636">
        <ele>600.60</ele>
        <time>2021-05-22T06:06:22Z</time>
      </trkpt>
      <trkpt lat="41.723998" lon="2.298706">
        <ele>601.60</ele>
        <time>2021-05-22T06:06:25Z</time>
      </trkpt>
      <trkpt lat="41.724002" lon="2.298765">
        <ele>601.80</ele>
        <time>2021-05-22T06:06:28Z</time>
      </trkpt>
      <trkpt lat="41.724016" lon="2.298868">
        <ele>602.60</ele>
        <time>2021-05-22T06:06:34Z</time>
      </trkpt>
      <trkpt lat="41.724032" lon="2.298925">
        <ele>603.00</ele>
        <time>2021-05-22T06:06:37Z</time>
      </trkpt>
      <trkpt lat="41.724039" lon="2.298950">
        <ele>603.00</ele>
        <time>2021-05-22T06:06:38Z</time>
      </trkpt>
      <trkpt lat="41.724043" lon="2.298974">
        <ele>603.20</ele>
        <time>2021-05-22T06:06:39Z</time>
      </trkpt>
      <trkpt lat="41.724049" lon="2.298992">
        <ele>603.40</ele>
        <time>2021-05-22T06:06:40Z</time>
      </trkpt>
      <trkpt lat="41.724049" lon="2.299009">
        <ele>603.60</ele>
        <time>2021-05-22T06:06:41Z</time>
      </trkpt>
      <trkpt lat="41.724058" lon="2.299027">
        <ele>604.00</ele>
        <time>2021-05-22T06:06:42Z</time>
      </trkpt>
      <trkpt lat="41.724068" lon="2.299083">
        <ele>604.60</ele>
        <time>2021-05-22T06:06:45Z</time>
      </trkpt>
      <trkpt lat="41.724072" lon="2.299185">
        <ele>605.00</ele>
        <time>2021-05-22T06:06:50Z</time>
      </trkpt>
      <trkpt lat="41.724119" lon="2.299247">
        <ele>605.40</ele>
        <time>2021-05-22T06:06:53Z</time>
      </trkpt>
      <trkpt lat="41.724177" lon="2.299389">
        <ele>606.20</ele>
        <time>2021-05-22T06:07:00Z</time>
      </trkpt>
      <trkpt lat="41.724180" lon="2.299406">
        <ele>606.40</ele>
        <time>2021-05-22T06:07:01Z</time>
      </trkpt>
      <trkpt lat="41.724172" lon="2.299452">
        <ele>606.80</ele>
        <time>2021-05-22T06:07:04Z</time>
      </trkpt>
      <trkpt lat="41.724166" lon="2.299475">
        <ele>607.20</ele>
        <time>2021-05-22T06:07:06Z</time>
      </trkpt>
      <trkpt lat="41.724149" lon="2.299504">
        <ele>607.40</ele>
        <time>2021-05-22T06:07:08Z</time>
      </trkpt>
      <trkpt lat="41.724144" lon="2.299521">
        <ele>607.40</ele>
        <time>2021-05-22T06:07:09Z</time>
      </trkpt>
      <trkpt lat="41.724070" lon="2.299575">
        <ele>608.00</ele>
        <time>2021-05-22T06:07:14Z</time>
      </trkpt>
      <trkpt lat="41.724041" lon="2.299599">
        <ele>608.20</ele>
        <time>2021-05-22T06:07:16Z</time>
      </trkpt>
      <trkpt lat="41.724007" lon="2.299614">
        <ele>608.20</ele>
        <time>2021-05-22T06:07:19Z</time>
      </trkpt>
      <trkpt lat="41.723987" lon="2.299642">
        <ele>608.40</ele>
        <time>2021-05-22T06:07:23Z</time>
      </trkpt>
      <trkpt lat="41.723946" lon="2.299700">
        <ele>609.40</ele>
        <time>2021-05-22T06:07:28Z</time>
      </trkpt>
      <trkpt lat="41.723916" lon="2.299756">
        <ele>610.00</ele>
        <time>2021-05-22T06:07:32Z</time>
      </trkpt>
      <trkpt lat="41.723896" lon="2.299773">
        <ele>610.20</ele>
        <time>2021-05-22T06:07:33Z</time>
      </trkpt>
      <trkpt lat="41.723860" lon="2.299816">
        <ele>610.40</ele>
        <time>2021-05-22T06:07:35Z</time>
      </trkpt>
      <trkpt lat="41.723828" lon="2.299861">
        <ele>610.80</ele>
        <time>2021-05-22T06:07:38Z</time>
      </trkpt>
      <trkpt lat="41.723810" lon="2.299926">
        <ele>611.20</ele>
        <time>2021-05-22T06:07:42Z</time>
      </trkpt>
      <trkpt lat="41.723798" lon="2.299951">
        <ele>611.40</ele>
        <time>2021-05-22T06:07:44Z</time>
      </trkpt>
      <trkpt lat="41.723780" lon="2.299997">
        <ele>612.00</ele>
        <time>2021-05-22T06:07:47Z</time>
      </trkpt>
      <trkpt lat="41.723783" lon="2.300047">
        <ele>612.20</ele>
        <time>2021-05-22T06:07:49Z</time>
      </trkpt>
      <trkpt lat="41.723792" lon="2.300073">
        <ele>612.80</ele>
        <time>2021-05-22T06:07:51Z</time>
      </trkpt>
      <trkpt lat="41.723804" lon="2.300123">
        <ele>613.00</ele>
        <time>2021-05-22T06:07:53Z</time>
      </trkpt>
      <trkpt lat="41.723781" lon="2.300258">
        <ele>613.80</ele>
        <time>2021-05-22T06:07:58Z</time>
      </trkpt>
      <trkpt lat="41.723806" lon="2.300308">
        <ele>614.60</ele>
        <time>2021-05-22T06:08:01Z</time>
      </trkpt>
      <trkpt lat="41.723824" lon="2.300346">
        <ele>614.80</ele>
        <time>2021-05-22T06:08:03Z</time>
      </trkpt>
      <trkpt lat="41.723879" lon="2.300477">
        <ele>616.00</ele>
        <time>2021-05-22T06:08:10Z</time>
      </trkpt>
      <trkpt lat="41.723907" lon="2.300527">
        <ele>616.20</ele>
        <time>2021-05-22T06:08:13Z</time>
      </trkpt>
      <trkpt lat="41.723924" lon="2.300595">
        <ele>616.80</ele>
        <time>2021-05-22T06:08:17Z</time>
      </trkpt>
      <trkpt lat="41.723933" lon="2.300626">
        <ele>617.00</ele>
        <time>2021-05-22T06:08:19Z</time>
      </trkpt>
      <trkpt lat="41.723944" lon="2.300637">
        <ele>617.20</ele>
        <time>2021-05-22T06:08:20Z</time>
      </trkpt>
      <trkpt lat="41.723974" lon="2.300702">
        <ele>618.20</ele>
        <time>2021-05-22T06:08:25Z</time>
      </trkpt>
      <trkpt lat="41.723987" lon="2.300733">
        <ele>618.20</ele>
        <time>2021-05-22T06:08:27Z</time>
      </trkpt>
      <trkpt lat="41.724050" lon="2.300843">
        <ele>619.40</ele>
        <time>2021-05-22T06:08:33Z</time>
      </trkpt>
      <trkpt lat="41.724062" lon="2.300861">
        <ele>619.60</ele>
        <time>2021-05-22T06:08:34Z</time>
      </trkpt>
      <trkpt lat="41.724075" lon="2.300882">
        <ele>619.80</ele>
        <time>2021-05-22T06:08:35Z</time>
      </trkpt>
      <trkpt lat="41.724126" lon="2.300958">
        <ele>620.20</ele>
        <time>2021-05-22T06:08:39Z</time>
      </trkpt>
      <trkpt lat="41.724147" lon="2.300993">
        <ele>620.60</ele>
        <time>2021-05-22T06:08:41Z</time>
      </trkpt>
      <trkpt lat="41.724171" lon="2.301026">
        <ele>621.00</ele>
        <time>2021-05-22T06:08:43Z</time>
      </trkpt>
      <trkpt lat="41.724184" lon="2.301060">
        <ele>621.40</ele>
        <time>2021-05-22T06:08:45Z</time>
      </trkpt>
      <trkpt lat="41.724195" lon="2.301120">
        <ele>621.80</ele>
        <time>2021-05-22T06:08:48Z</time>
      </trkpt>
      <trkpt lat="41.724208" lon="2.301136">
        <ele>622.00</ele>
        <time>2021-05-22T06:08:49Z</time>
      </trkpt>
      <trkpt lat="41.724219" lon="2.301153">
        <ele>622.20</ele>
        <time>2021-05-22T06:08:50Z</time>
      </trkpt>
      <trkpt lat="41.724225" lon="2.301172">
        <ele>622.20</ele>
        <time>2021-05-22T06:08:51Z</time>
      </trkpt>
      <trkpt lat="41.724234" lon="2.301189">
        <ele>622.20</ele>
        <time>2021-05-22T06:08:52Z</time>
      </trkpt>
      <trkpt lat="41.724240" lon="2.301226">
        <ele>623.00</ele>
        <time>2021-05-22T06:08:54Z</time>
      </trkpt>
      <trkpt lat="41.724278" lon="2.301292">
        <ele>623.80</ele>
        <time>2021-05-22T06:08:59Z</time>
      </trkpt>
      <trkpt lat="41.724303" lon="2.301312">
        <ele>624.00</ele>
        <time>2021-05-22T06:09:01Z</time>
      </trkpt>
      <trkpt lat="41.724320" lon="2.301321">
        <ele>624.00</ele>
        <time>2021-05-22T06:09:02Z</time>
      </trkpt>
      <trkpt lat="41.724422" lon="2.301383">
        <ele>625.20</ele>
        <time>2021-05-22T06:09:08Z</time>
      </trkpt>
      <trkpt lat="41.724556" lon="2.301449">
        <ele>626.00</ele>
        <time>2021-05-22T06:09:16Z</time>
      </trkpt>
      <trkpt lat="41.724602" lon="2.301459">
        <ele>626.40</ele>
        <time>2021-05-22T06:09:19Z</time>
      </trkpt>
      <trkpt lat="41.724614" lon="2.301464">
        <ele>626.60</ele>
        <time>2021-05-22T06:09:20Z</time>
      </trkpt>
      <trkpt lat="41.724626" lon="2.301471">
        <ele>626.80</ele>
        <time>2021-05-22T06:09:21Z</time>
      </trkpt>
      <trkpt lat="41.724650" lon="2.301497">
        <ele>627.60</ele>
        <time>2021-05-22T06:09:24Z</time>
      </trkpt>
      <trkpt lat="41.724666" lon="2.301608">
        <ele>628.60</ele>
        <time>2021-05-22T06:09:31Z</time>
      </trkpt>
      <trkpt lat="41.724672" lon="2.301636">
        <ele>628.80</ele>
        <time>2021-05-22T06:09:33Z</time>
      </trkpt>
      <trkpt lat="41.724727" lon="2.301718">
        <ele>629.60</ele>
        <time>2021-05-22T06:09:40Z</time>
      </trkpt>
      <trkpt lat="41.724753" lon="2.301747">
        <ele>630.20</ele>
        <time>2021-05-22T06:09:42Z</time>
      </trkpt>
      <trkpt lat="41.724745" lon="2.301798">
        <ele>630.80</ele>
        <time>2021-05-22T06:09:44Z</time>
      </trkpt>
      <trkpt lat="41.724763" lon="2.301929">
        <ele>631.80</ele>
        <time>2021-05-22T06:09:50Z</time>
      </trkpt>
      <trkpt lat="41.724783" lon="2.302108">
        <ele>632.60</ele>
        <time>2021-05-22T06:09:58Z</time>
      </trkpt>
      <trkpt lat="41.724829" lon="2.302335">
        <ele>631.60</ele>
        <time>2021-05-22T06:10:05Z</time>
      </trkpt>
      <trkpt lat="41.724821" lon="2.302377">
        <ele>631.60</ele>
        <time>2021-05-22T06:10:06Z</time>
      </trkpt>
      <trkpt lat="41.724769" lon="2.302525">
        <ele>631.20</ele>
        <time>2021-05-22T06:10:11Z</time>
      </trkpt>
      <trkpt lat="41.724716" lon="2.302587">
        <ele>631.00</ele>
        <time>2021-05-22T06:10:17Z</time>
      </trkpt>
      <trkpt lat="41.724688" lon="2.302639">
        <ele>630.60</ele>
        <time>2021-05-22T06:10:22Z</time>
      </trkpt>
      <trkpt lat="41.724684" lon="2.302663">
        <ele>630.40</ele>
        <time>2021-05-22T06:10:24Z</time>
      </trkpt>
      <trkpt lat="41.724684" lon="2.302663">
        <ele>630.40</ele>
        <time>2021-05-22T06:10:25Z</time>
      </trkpt>
      <trkpt lat="41.724687" lon="2.302681">
        <ele>630.20</ele>
        <time>2021-05-22T06:10:27Z</time>
      </trkpt>
      <trkpt lat="41.724686" lon="2.302718">
        <ele>630.40</ele>
        <time>2021-05-22T06:10:30Z</time>
      </trkpt>
      <trkpt lat="41.724675" lon="2.302744">
        <ele>630.40</ele>
        <time>2021-05-22T06:10:34Z</time>
      </trkpt>
      <trkpt lat="41.724698" lon="2.302755">
        <ele>629.60</ele>
        <time>2021-05-22T06:10:42Z</time>
      </trkpt>
      <trkpt lat="41.724709" lon="2.302758">
        <ele>629.60</ele>
        <time>2021-05-22T06:10:43Z</time>
      </trkpt>
      <trkpt lat="41.724784" lon="2.302750">
        <ele>630.20</ele>
        <time>2021-05-22T06:10:50Z</time>
      </trkpt>
      <trkpt lat="41.724792" lon="2.302759">
        <ele>630.20</ele>
        <time>2021-05-22T06:10:53Z</time>
      </trkpt>
      <trkpt lat="41.724806" lon="2.302762">
        <ele>630.20</ele>
        <time>2021-05-22T06:11:01Z</time>
      </trkpt>
      <trkpt lat="41.724753" lon="2.302767">
        <ele>630.40</ele>
        <time>2021-05-22T06:11:10Z</time>
      </trkpt>
      <trkpt lat="41.724707" lon="2.302726">
        <ele>630.20</ele>
        <time>2021-05-22T06:11:17Z</time>
      </trkpt>
      <trkpt lat="41.724685" lon="2.302718">
        <ele>630.00</ele>
        <time>2021-05-22T06:11:18Z</time>
      </trkpt>
      <trkpt lat="41.724647" lon="2.302659">
        <ele>629.80</ele>
        <time>2021-05-22T06:11:26Z</time>
      </trkpt>
      <trkpt lat="41.724664" lon="2.302647">
        <ele>629.80</ele>
        <time>2021-05-22T06:11:29Z</time>
      </trkpt>
      <trkpt lat="41.724667" lon="2.302626">
        <ele>629.80</ele>
        <time>2021-05-22T06:11:31Z</time>
      </trkpt>
      <trkpt lat="41.724685" lon="2.302615">
        <ele>629.80</ele>
        <time>2021-05-22T06:11:33Z</time>
      </trkpt>
      <trkpt lat="41.724687" lon="2.302648">
        <ele>629.60</ele>
        <time>2021-05-22T06:11:38Z</time>
      </trkpt>
      <trkpt lat="41.724687" lon="2.302679">
        <ele>629.60</ele>
        <time>2021-05-22T06:11:40Z</time>
      </trkpt>
      <trkpt lat="41.724667" lon="2.302789">
        <ele>630.40</ele>
        <time>2021-05-22T06:11:48Z</time>
      </trkpt>
      <trkpt lat="41.724666" lon="2.302805">
        <ele>630.60</ele>
        <time>2021-05-22T06:11:49Z</time>
      </trkpt>
      <trkpt lat="41.724670" lon="2.302868">
        <ele>631.60</ele>
        <time>2021-05-22T06:11:54Z</time>
      </trkpt>
      <trkpt lat="41.724684" lon="2.302886">
        <ele>632.00</ele>
        <time>2021-05-22T06:11:56Z</time>
      </trkpt>
      <trkpt lat="41.724702" lon="2.302895">
        <ele>632.20</ele>
        <time>2021-05-22T06:11:57Z</time>
      </trkpt>
      <trkpt lat="41.724731" lon="2.302910">
        <ele>632.80</ele>
        <time>2021-05-22T06:11:59Z</time>
      </trkpt>
      <trkpt lat="41.724760" lon="2.302961">
        <ele>633.40</ele>
        <time>2021-05-22T06:12:04Z</time>
      </trkpt>
      <trkpt lat="41.724775" lon="2.302991">
        <ele>633.80</ele>
        <time>2021-05-22T06:12:07Z</time>
      </trkpt>
      <trkpt lat="41.724783" lon="2.303033">
        <ele>635.00</ele>
        <time>2021-05-22T06:12:11Z</time>
      </trkpt>
      <trkpt lat="41.724788" lon="2.303057">
        <ele>635.20</ele>
        <time>2021-05-22T06:12:13Z</time>
      </trkpt>
      <trkpt lat="41.724813" lon="2.303116">
        <ele>636.00</ele>
        <time>2021-05-22T06:12:18Z</time>
      </trkpt>
      <trkpt lat="41.724834" lon="2.303166">
        <ele>637.00</ele>
        <time>2021-05-22T06:12:22Z</time>
      </trkpt>
      <trkpt lat="41.724839" lon="2.303179">
        <ele>637.20</ele>
        <time>2021-05-22T06:12:23Z</time>
      </trkpt>
      <trkpt lat="41.724848" lon="2.303243">
        <ele>638.00</ele>
        <time>2021-05-22T06:12:28Z</time>
      </trkpt>
      <trkpt lat="41.724855" lon="2.303249">
        <ele>638.20</ele>
        <time>2021-05-22T06:12:31Z</time>
      </trkpt>
      <trkpt lat="41.724874" lon="2.303279">
        <ele>638.20</ele>
        <time>2021-05-22T06:12:34Z</time>
      </trkpt>
      <trkpt lat="41.724879" lon="2.303319">
        <ele>638.40</ele>
        <time>2021-05-22T06:12:36Z</time>
      </trkpt>
      <trkpt lat="41.724883" lon="2.303433">
        <ele>639.20</ele>
        <time>2021-05-22T06:12:42Z</time>
      </trkpt>
      <trkpt lat="41.724878" lon="2.303458">
        <ele>639.40</ele>
        <time>2021-05-22T06:12:43Z</time>
      </trkpt>
      <trkpt lat="41.724884" lon="2.303495">
        <ele>640.00</ele>
        <time>2021-05-22T06:12:45Z</time>
      </trkpt>
      <trkpt lat="41.724892" lon="2.303551">
        <ele>640.40</ele>
        <time>2021-05-22T06:12:48Z</time>
      </trkpt>
      <trkpt lat="41.724883" lon="2.303609">
        <ele>640.60</ele>
        <time>2021-05-22T06:12:51Z</time>
      </trkpt>
      <trkpt lat="41.724888" lon="2.303630">
        <ele>640.80</ele>
        <time>2021-05-22T06:12:52Z</time>
      </trkpt>
      <trkpt lat="41.724904" lon="2.303715">
        <ele>641.40</ele>
        <time>2021-05-22T06:12:56Z</time>
      </trkpt>
      <trkpt lat="41.724914" lon="2.303782">
        <ele>642.40</ele>
        <time>2021-05-22T06:13:00Z</time>
      </trkpt>
      <trkpt lat="41.724929" lon="2.303794">
        <ele>643.20</ele>
        <time>2021-05-22T06:13:05Z</time>
      </trkpt>
      <trkpt lat="41.724950" lon="2.303842">
        <ele>643.40</ele>
        <time>2021-05-22T06:13:12Z</time>
      </trkpt>
      <trkpt lat="41.724957" lon="2.303860">
        <ele>643.40</ele>
        <time>2021-05-22T06:13:13Z</time>
      </trkpt>
      <trkpt lat="41.724971" lon="2.303903">
        <ele>643.40</ele>
        <time>2021-05-22T06:13:15Z</time>
      </trkpt>
      <trkpt lat="41.724997" lon="2.303956">
        <ele>643.40</ele>
        <time>2021-05-22T06:13:18Z</time>
      </trkpt>
      <trkpt lat="41.724990" lon="2.303982">
        <ele>643.60</ele>
        <time>2021-05-22T06:13:19Z</time>
      </trkpt>
      <trkpt lat="41.724990" lon="2.304013">
        <ele>644.20</ele>
        <time>2021-05-22T06:13:21Z</time>
      </trkpt>
      <trkpt lat="41.724951" lon="2.304055">
        <ele>644.60</ele>
        <time>2021-05-22T06:13:26Z</time>
      </trkpt>
      <trkpt lat="41.724936" lon="2.304067">
        <ele>644.80</ele>
        <time>2021-05-22T06:13:28Z</time>
      </trkpt>
      <trkpt lat="41.724930" lon="2.304071">
        <ele>644.80</ele>
        <time>2021-05-22T06:13:32Z</time>
      </trkpt>
      <trkpt lat="41.724927" lon="2.304076">
        <ele>644.80</ele>
        <time>2021-05-22T06:13:35Z</time>
      </trkpt>
      <trkpt lat="41.724929" lon="2.304082">
        <ele>644.80</ele>
        <time>2021-05-22T06:13:39Z</time>
      </trkpt>
      <trkpt lat="41.724966" lon="2.304100">
        <ele>644.60</ele>
        <time>2021-05-22T06:13:45Z</time>
      </trkpt>
      <trkpt lat="41.724973" lon="2.304113">
        <ele>644.80</ele>
        <time>2021-05-22T06:13:46Z</time>
      </trkpt>
      <trkpt lat="41.725002" lon="2.304099">
        <ele>645.20</ele>
        <time>2021-05-22T06:13:50Z</time>
      </trkpt>
      <trkpt lat="41.725001" lon="2.304086">
        <ele>645.40</ele>
        <time>2021-05-22T06:13:51Z</time>
      </trkpt>
      <trkpt lat="41.725003" lon="2.304064">
        <ele>645.80</ele>
        <time>2021-05-22T06:13:53Z</time>
      </trkpt>
      <trkpt lat="41.724989" lon="2.304027">
        <ele>646.00</ele>
        <time>2021-05-22T06:13:56Z</time>
      </trkpt>
      <trkpt lat="41.724980" lon="2.304016">
        <ele>644.40</ele>
        <time>2021-05-22T06:13:57Z</time>
      </trkpt>
      <trkpt lat="41.724967" lon="2.303989">
        <ele>644.40</ele>
        <time>2021-05-22T06:13:59Z</time>
      </trkpt>
      <trkpt lat="41.724957" lon="2.303959">
        <ele>644.40</ele>
        <time>2021-05-22T06:14:01Z</time>
      </trkpt>
      <trkpt lat="41.724959" lon="2.303954">
        <ele>644.60</ele>
        <time>2021-05-22T06:14:02Z</time>
      </trkpt>
      <trkpt lat="41.724965" lon="2.303956">
        <ele>644.80</ele>
        <time>2021-05-22T06:14:04Z</time>
      </trkpt>
      <trkpt lat="41.724974" lon="2.303969">
        <ele>644.60</ele>
        <time>2021-05-22T06:14:08Z</time>
      </trkpt>
      <trkpt lat="41.724954" lon="2.303984">
        <ele>644.00</ele>
        <time>2021-05-22T06:14:12Z</time>
      </trkpt>
      <trkpt lat="41.724950" lon="2.303995">
        <ele>644.20</ele>
        <time>2021-05-22T06:14:19Z</time>
      </trkpt>
      <trkpt lat="41.724925" lon="2.303984">
        <ele>644.20</ele>
        <time>2021-05-22T06:14:26Z</time>
      </trkpt>
      <trkpt lat="41.724932" lon="2.303966">
        <ele>644.20</ele>
        <time>2021-05-22T06:14:28Z</time>
      </trkpt>
      <trkpt lat="41.724926" lon="2.303935">
        <ele>644.20</ele>
        <time>2021-05-22T06:14:31Z</time>
      </trkpt>
      <trkpt lat="41.724937" lon="2.303930">
        <ele>645.00</ele>
        <time>2021-05-22T06:14:35Z</time>
      </trkpt>
      <trkpt lat="41.724935" lon="2.303922">
        <ele>645.00</ele>
        <time>2021-05-22T06:14:36Z</time>
      </trkpt>
      <trkpt lat="41.724933" lon="2.303892">
        <ele>645.00</ele>
        <time>2021-05-22T06:14:39Z</time>
      </trkpt>
      <trkpt lat="41.724933" lon="2.303871">
        <ele>645.00</ele>
        <time>2021-05-22T06:14:41Z</time>
      </trkpt>
      <trkpt lat="41.724939" lon="2.303852">
        <ele>645.00</ele>
        <time>2021-05-22T06:14:43Z</time>
      </trkpt>
      <trkpt lat="41.724941" lon="2.303848">
        <ele>645.20</ele>
        <time>2021-05-22T06:14:45Z</time>
      </trkpt>
      <trkpt lat="41.724983" lon="2.303864">
        <ele>644.80</ele>
        <time>2021-05-22T06:14:49Z</time>
      </trkpt>
      <trkpt lat="41.724995" lon="2.303864">
        <ele>644.40</ele>
        <time>2021-05-22T06:14:52Z</time>
      </trkpt>
      <trkpt lat="41.725001" lon="2.303864">
        <ele>644.40</ele>
        <time>2021-05-22T06:14:56Z</time>
      </trkpt>
      <trkpt lat="41.725002" lon="2.303865">
        <ele>644.40</ele>
        <time>2021-05-22T06:14:58Z</time>
      </trkpt>
      <trkpt lat="41.724997" lon="2.303871">
        <ele>644.20</ele>
        <time>2021-05-22T06:15:00Z</time>
      </trkpt>
      <trkpt lat="41.725001" lon="2.303907">
        <ele>644.80</ele>
        <time>2021-05-22T06:15:06Z</time>
      </trkpt>
      <trkpt lat="41.725027" lon="2.303911">
        <ele>644.60</ele>
        <time>2021-05-22T06:15:13Z</time>
      </trkpt>
      <trkpt lat="41.725016" lon="2.303912">
        <ele>644.60</ele>
        <time>2021-05-22T06:15:21Z</time>
      </trkpt>
      <trkpt lat="41.724987" lon="2.303893">
        <ele>644.60</ele>
        <time>2021-05-22T06:15:28Z</time>
      </trkpt>
      <trkpt lat="41.724964" lon="2.303889">
        <ele>644.80</ele>
        <time>2021-05-22T06:15:32Z</time>
      </trkpt>
      <trkpt lat="41.724963" lon="2.303880">
        <ele>644.80</ele>
        <time>2021-05-22T06:15:34Z</time>
      </trkpt>
      <trkpt lat="41.724951" lon="2.303847">
        <ele>644.80</ele>
        <time>2021-05-22T06:15:37Z</time>
      </trkpt>
      <trkpt lat="41.724954" lon="2.303818">
        <ele>644.60</ele>
        <time>2021-05-22T06:15:39Z</time>
      </trkpt>
      <trkpt lat="41.724963" lon="2.303801">
        <ele>643.40</ele>
        <time>2021-05-22T06:15:41Z</time>
      </trkpt>
      <trkpt lat="41.724966" lon="2.303758">
        <ele>643.60</ele>
        <time>2021-05-22T06:15:45Z</time>
      </trkpt>
      <trkpt lat="41.724978" lon="2.303739">
        <ele>643.80</ele>
        <time>2021-05-22T06:15:50Z</time>
      </trkpt>
      <trkpt lat="41.724977" lon="2.303746">
        <ele>644.40</ele>
        <time>2021-05-22T06:15:51Z</time>
      </trkpt>
      <trkpt lat="41.724976" lon="2.303749">
        <ele>644.40</ele>
        <time>2021-05-22T06:15:52Z</time>
      </trkpt>
      <trkpt lat="41.724986" lon="2.303742">
        <ele>644.40</ele>
        <time>2021-05-22T06:15:55Z</time>
      </trkpt>
      <trkpt lat="41.724990" lon="2.303724">
        <ele>644.40</ele>
        <time>2021-05-22T06:15:58Z</time>
      </trkpt>
      <trkpt lat="41.724990" lon="2.303698">
        <ele>644.40</ele>
        <time>2021-05-22T06:16:00Z</time>
      </trkpt>
      <trkpt lat="41.725002" lon="2.303652">
        <ele>644.20</ele>
        <time>2021-05-22T06:16:05Z</time>
      </trkpt>
      <trkpt lat="41.724999" lon="2.303648">
        <ele>644.00</ele>
        <time>2021-05-22T06:16:08Z</time>
      </trkpt>
      <trkpt lat="41.724995" lon="2.303636">
        <ele>644.00</ele>
        <time>2021-05-22T06:16:09Z</time>
      </trkpt>
      <trkpt lat="41.724996" lon="2.303621">
        <ele>644.00</ele>
        <time>2021-05-22T06:16:10Z</time>
      </trkpt>
      <trkpt lat="41.724997" lon="2.303604">
        <ele>644.00</ele>
        <time>2021-05-22T06:16:11Z</time>
      </trkpt>
      <trkpt lat="41.725002" lon="2.303592">
        <ele>643.80</ele>
        <time>2021-05-22T06:16:12Z</time>
      </trkpt>
      <trkpt lat="41.725008" lon="2.303547">
        <ele>644.20</ele>
        <time>2021-05-22T06:16:16Z</time>
      </trkpt>
      <trkpt lat="41.725014" lon="2.303536">
        <ele>644.40</ele>
        <time>2021-05-22T06:16:19Z</time>
      </trkpt>
      <trkpt lat="41.725008" lon="2.303521">
        <ele>644.40</ele>
        <time>2021-05-22T06:16:26Z</time>
      </trkpt>
      <trkpt lat="41.725011" lon="2.303547">
        <ele>644.00</ele>
        <time>2021-05-22T06:16:30Z</time>
      </trkpt>
      <trkpt lat="41.725008" lon="2.303548">
        <ele>644.00</ele>
        <time>2021-05-22T06:16:34Z</time>
      </trkpt>
      <trkpt lat="41.724998" lon="2.303539">
        <ele>643.80</ele>
        <time>2021-05-22T06:16:40Z</time>
      </trkpt>
      <trkpt lat="41.724999" lon="2.303538">
        <ele>643.80</ele>
        <time>2021-05-22T06:16:41Z</time>
      </trkpt>
      <trkpt lat="41.724998" lon="2.303540">
        <ele>643.80</ele>
        <time>2021-05-22T06:16:42Z</time>
      </trkpt>
      <trkpt lat="41.725002" lon="2.303538">
        <ele>643.80</ele>
        <time>2021-05-22T06:16:43Z</time>
      </trkpt>
      <trkpt lat="41.725005" lon="2.303534">
        <ele>643.80</ele>
        <time>2021-05-22T06:16:44Z</time>
      </trkpt>
      <trkpt lat="41.725007" lon="2.303518">
        <ele>643.60</ele>
        <time>2021-05-22T06:16:46Z</time>
      </trkpt>
      <trkpt lat="41.725008" lon="2.303524">
        <ele>643.40</ele>
        <time>2021-05-22T06:16:49Z</time>
      </trkpt>
      <trkpt lat="41.725006" lon="2.303519">
        <ele>643.40</ele>
        <time>2021-05-22T06:16:51Z</time>
      </trkpt>
      <trkpt lat="41.725002" lon="2.303517">
        <ele>643.40</ele>
        <time>2021-05-22T06:16:52Z</time>
      </trkpt>
      <trkpt lat="41.724968" lon="2.303542">
        <ele>643.20</ele>
        <time>2021-05-22T06:16:58Z</time>
      </trkpt>
      <trkpt lat="41.724961" lon="2.303540">
        <ele>643.20</ele>
        <time>2021-05-22T06:16:59Z</time>
      </trkpt>
      <trkpt lat="41.724958" lon="2.303559">
        <ele>643.40</ele>
        <time>2021-05-22T06:17:01Z</time>
      </trkpt>
      <trkpt lat="41.724959" lon="2.303567">
        <ele>643.40</ele>
        <time>2021-05-22T06:17:03Z</time>
      </trkpt>
      <trkpt lat="41.724968" lon="2.303549">
        <ele>643.40</ele>
        <time>2021-05-22T06:17:06Z</time>
      </trkpt>
      <trkpt lat="41.724973" lon="2.303539">
        <ele>643.40</ele>
        <time>2021-05-22T06:17:07Z</time>
      </trkpt>
      <trkpt lat="41.724981" lon="2.303498">
        <ele>643.60</ele>
        <time>2021-05-22T06:17:13Z</time>
      </trkpt>
      <trkpt lat="41.724978" lon="2.303485">
        <ele>643.40</ele>
        <time>2021-05-22T06:17:14Z</time>
      </trkpt>
      <trkpt lat="41.724979" lon="2.303448">
        <ele>643.40</ele>
        <time>2021-05-22T06:17:18Z</time>
      </trkpt>
      <trkpt lat="41.725002" lon="2.303428">
        <ele>644.20</ele>
        <time>2021-05-22T06:17:25Z</time>
      </trkpt>
      <trkpt lat="41.725005" lon="2.303421">
        <ele>644.20</ele>
        <time>2021-05-22T06:17:26Z</time>
      </trkpt>
      <trkpt lat="41.725016" lon="2.303387">
        <ele>644.20</ele>
        <time>2021-05-22T06:17:29Z</time>
      </trkpt>
      <trkpt lat="41.725017" lon="2.303368">
        <ele>644.20</ele>
        <time>2021-05-22T06:17:30Z</time>
      </trkpt>
      <trkpt lat="41.725021" lon="2.303352">
        <ele>644.20</ele>
        <time>2021-05-22T06:17:31Z</time>
      </trkpt>
      <trkpt lat="41.725012" lon="2.303328">
        <ele>644.20</ele>
        <time>2021-05-22T06:17:32Z</time>
      </trkpt>
      <trkpt lat="41.725011" lon="2.303252">
        <ele>644.20</ele>
        <time>2021-05-22T06:17:39Z</time>
      </trkpt>
      <trkpt lat="41.724990" lon="2.303239">
        <ele>644.00</ele>
        <time>2021-05-22T06:17:45Z</time>
      </trkpt>
      <trkpt lat="41.724985" lon="2.303241">
        <ele>644.00</ele>
        <time>2021-05-22T06:17:46Z</time>
      </trkpt>
      <trkpt lat="41.724967" lon="2.303247">
        <ele>644.00</ele>
        <time>2021-05-22T06:17:54Z</time>
      </trkpt>
      <trkpt lat="41.724963" lon="2.303259">
        <ele>644.00</ele>
        <time>2021-05-22T06:17:59Z</time>
      </trkpt>
      <trkpt lat="41.724948" lon="2.303275">
        <ele>643.60</ele>
        <time>2021-05-22T06:18:03Z</time>
      </trkpt>
      <trkpt lat="41.724946" lon="2.303296">
        <ele>643.60</ele>
        <time>2021-05-22T06:18:07Z</time>
      </trkpt>
      <trkpt lat="41.724939" lon="2.303288">
        <ele>643.60</ele>
        <time>2021-05-22T06:18:10Z</time>
      </trkpt>
      <trkpt lat="41.724954" lon="2.303279">
        <ele>643.60</ele>
        <time>2021-05-22T06:18:17Z</time>
      </trkpt>
      <trkpt lat="41.724963" lon="2.303303">
        <ele>643.80</ele>
        <time>2021-05-22T06:18:19Z</time>
      </trkpt>
      <trkpt lat="41.724974" lon="2.303334">
        <ele>644.40</ele>
        <time>2021-05-22T06:18:23Z</time>
      </trkpt>
      <trkpt lat="41.724964" lon="2.303328">
        <ele>644.60</ele>
        <time>2021-05-22T06:18:24Z</time>
      </trkpt>
      <trkpt lat="41.724970" lon="2.303327">
        <ele>644.40</ele>
        <time>2021-05-22T06:18:26Z</time>
      </trkpt>
      <trkpt lat="41.724974" lon="2.303332">
        <ele>644.40</ele>
        <time>2021-05-22T06:18:27Z</time>
      </trkpt>
      <trkpt lat="41.724975" lon="2.303329">
        <ele>644.20</ele>
        <time>2021-05-22T06:18:29Z</time>
      </trkpt>
      <trkpt lat="41.724981" lon="2.303308">
        <ele>644.00</ele>
        <time>2021-05-22T06:18:32Z</time>
      </trkpt>
      <trkpt lat="41.724982" lon="2.303268">
        <ele>644.00</ele>
        <time>2021-05-22T06:18:35Z</time>
      </trkpt>
      <trkpt lat="41.724982" lon="2.303212">
        <ele>643.60</ele>
        <time>2021-05-22T06:18:40Z</time>
      </trkpt>
      <trkpt lat="41.724981" lon="2.303206">
        <ele>643.40</ele>
        <time>2021-05-22T06:18:41Z</time>
      </trkpt>
      <trkpt lat="41.724993" lon="2.303146">
        <ele>643.80</ele>
        <time>2021-05-22T06:18:44Z</time>
      </trkpt>
      <trkpt lat="41.725006" lon="2.303112">
        <ele>643.80</ele>
        <time>2021-05-22T06:18:46Z</time>
      </trkpt>
      <trkpt lat="41.725024" lon="2.303086">
        <ele>644.40</ele>
        <time>2021-05-22T06:18:52Z</time>
      </trkpt>
      <trkpt lat="41.725018" lon="2.303074">
        <ele>644.40</ele>
        <time>2021-05-22T06:18:56Z</time>
      </trkpt>
      <trkpt lat="41.725022" lon="2.303053">
        <ele>644.60</ele>
        <time>2021-05-22T06:19:00Z</time>
      </trkpt>
      <trkpt lat="41.725023" lon="2.303020">
        <ele>644.60</ele>
        <time>2021-05-22T06:19:02Z</time>
      </trkpt>
      <trkpt lat="41.725016" lon="2.302954">
        <ele>644.60</ele>
        <time>2021-05-22T06:19:07Z</time>
      </trkpt>
      <trkpt lat="41.725037" lon="2.302929">
        <ele>645.00</ele>
        <time>2021-05-22T06:19:13Z</time>
      </trkpt>
      <trkpt lat="41.725038" lon="2.302911">
        <ele>645.20</ele>
        <time>2021-05-22T06:19:14Z</time>
      </trkpt>
      <trkpt lat="41.725044" lon="2.302879">
        <ele>645.40</ele>
        <time>2021-05-22T06:19:17Z</time>
      </trkpt>
      <trkpt lat="41.725064" lon="2.302867">
        <ele>645.80</ele>
        <time>2021-05-22T06:19:21Z</time>
      </trkpt>
      <trkpt lat="41.725066" lon="2.302872">
        <ele>645.80</ele>
        <time>2021-05-22T06:19:22Z</time>
      </trkpt>
      <trkpt lat="41.725066" lon="2.302877">
        <ele>645.60</ele>
        <time>2021-05-22T06:19:23Z</time>
      </trkpt>
      <trkpt lat="41.725062" lon="2.302894">
        <ele>645.20</ele>
        <time>2021-05-22T06:19:25Z</time>
      </trkpt>
      <trkpt lat="41.725058" lon="2.302905">
        <ele>645.20</ele>
        <time>2021-05-22T06:19:27Z</time>
      </trkpt>
      <trkpt lat="41.725090" lon="2.302931">
        <ele>644.80</ele>
        <time>2021-05-22T06:19:34Z</time>
      </trkpt>
      <trkpt lat="41.725121" lon="2.302953">
        <ele>645.00</ele>
        <time>2021-05-22T06:19:41Z</time>
      </trkpt>
      <trkpt lat="41.725115" lon="2.302961">
        <ele>644.60</ele>
        <time>2021-05-22T06:19:43Z</time>
      </trkpt>
      <trkpt lat="41.725116" lon="2.302963">
        <ele>644.40</ele>
        <time>2021-05-22T06:19:44Z</time>
      </trkpt>
      <trkpt lat="41.725118" lon="2.302982">
        <ele>644.20</ele>
        <time>2021-05-22T06:19:46Z</time>
      </trkpt>
      <trkpt lat="41.725115" lon="2.303025">
        <ele>644.20</ele>
        <time>2021-05-22T06:19:49Z</time>
      </trkpt>
      <trkpt lat="41.725118" lon="2.303030">
        <ele>644.40</ele>
        <time>2021-05-22T06:19:50Z</time>
      </trkpt>
      <trkpt lat="41.725107" lon="2.303026">
        <ele>644.40</ele>
        <time>2021-05-22T06:19:55Z</time>
      </trkpt>
      <trkpt lat="41.725110" lon="2.303027">
        <ele>644.40</ele>
        <time>2021-05-22T06:19:56Z</time>
      </trkpt>
      <trkpt lat="41.725109" lon="2.303031">
        <ele>644.40</ele>
        <time>2021-05-22T06:19:57Z</time>
      </trkpt>
      <trkpt lat="41.725107" lon="2.303046">
        <ele>644.40</ele>
        <time>2021-05-22T06:19:59Z</time>
      </trkpt>
      <trkpt lat="41.725102" lon="2.303051">
        <ele>644.40</ele>
        <time>2021-05-22T06:20:01Z</time>
      </trkpt>
      <trkpt lat="41.725108" lon="2.303016">
        <ele>644.40</ele>
        <time>2021-05-22T06:20:07Z</time>
      </trkpt>
      <trkpt lat="41.725121" lon="2.302991">
        <ele>644.40</ele>
        <time>2021-05-22T06:20:09Z</time>
      </trkpt>
      <trkpt lat="41.725129" lon="2.302971">
        <ele>644.40</ele>
        <time>2021-05-22T06:20:11Z</time>
      </trkpt>
      <trkpt lat="41.725137" lon="2.302944">
        <ele>644.40</ele>
        <time>2021-05-22T06:20:13Z</time>
      </trkpt>
      <trkpt lat="41.725140" lon="2.302915">
        <ele>644.40</ele>
        <time>2021-05-22T06:20:15Z</time>
      </trkpt>
      <trkpt lat="41.725138" lon="2.302903">
        <ele>644.40</ele>
        <time>2021-05-22T06:20:16Z</time>
      </trkpt>
      <trkpt lat="41.725131" lon="2.302865">
        <ele>644.60</ele>
        <time>2021-05-22T06:20:18Z</time>
      </trkpt>
      <trkpt lat="41.725134" lon="2.302860">
        <ele>644.60</ele>
        <time>2021-05-22T06:20:19Z</time>
      </trkpt>
      <trkpt lat="41.725138" lon="2.302800">
        <ele>645.20</ele>
        <time>2021-05-22T06:20:27Z</time>
      </trkpt>
      <trkpt lat="41.725135" lon="2.302784">
        <ele>645.40</ele>
        <time>2021-05-22T06:20:28Z</time>
      </trkpt>
      <trkpt lat="41.725131" lon="2.302766">
        <ele>645.40</ele>
        <time>2021-05-22T06:20:29Z</time>
      </trkpt>
      <trkpt lat="41.725129" lon="2.302736">
        <ele>646.00</ele>
        <time>2021-05-22T06:20:31Z</time>
      </trkpt>
      <trkpt lat="41.725128" lon="2.302670">
        <ele>646.40</ele>
        <time>2021-05-22T06:20:35Z</time>
      </trkpt>
      <trkpt lat="41.725126" lon="2.302659">
        <ele>646.40</ele>
        <time>2021-05-22T06:20:36Z</time>
      </trkpt>
      <trkpt lat="41.725108" lon="2.302607">
        <ele>646.80</ele>
        <time>2021-05-22T06:20:40Z</time>
      </trkpt>
      <trkpt lat="41.725100" lon="2.302570">
        <ele>646.80</ele>
        <time>2021-05-22T06:20:42Z</time>
      </trkpt>
      <trkpt lat="41.725093" lon="2.302538">
        <ele>647.20</ele>
        <time>2021-05-22T06:20:48Z</time>
      </trkpt>
      <trkpt lat="41.725082" lon="2.302619">
        <ele>646.60</ele>
        <time>2021-05-22T06:20:55Z</time>
      </trkpt>
      <trkpt lat="41.725075" lon="2.302653">
        <ele>646.80</ele>
        <time>2021-05-22T06:21:01Z</time>
      </trkpt>
      <trkpt lat="41.725074" lon="2.302657">
        <ele>646.80</ele>
        <time>2021-05-22T06:21:02Z</time>
      </trkpt>
      <trkpt lat="41.725071" lon="2.302653">
        <ele>645.40</ele>
        <time>2021-05-22T06:21:10Z</time>
      </trkpt>
      <trkpt lat="41.725046" lon="2.302646">
        <ele>645.60</ele>
        <time>2021-05-22T06:21:15Z</time>
      </trkpt>
      <trkpt lat="41.725041" lon="2.302655">
        <ele>646.00</ele>
        <time>2021-05-22T06:21:17Z</time>
      </trkpt>
      <trkpt lat="41.725035" lon="2.302651">
        <ele>646.20</ele>
        <time>2021-05-22T06:21:22Z</time>
      </trkpt>
      <trkpt lat="41.725059" lon="2.302675">
        <ele>646.20</ele>
        <time>2021-05-22T06:21:29Z</time>
      </trkpt>
      <trkpt lat="41.725070" lon="2.302652">
        <ele>645.80</ele>
        <time>2021-05-22T06:21:34Z</time>
      </trkpt>
      <trkpt lat="41.725071" lon="2.302632">
        <ele>646.20</ele>
        <time>2021-05-22T06:21:36Z</time>
      </trkpt>
      <trkpt lat="41.725052" lon="2.302612">
        <ele>646.40</ele>
        <time>2021-05-22T06:21:42Z</time>
      </trkpt>
      <trkpt lat="41.725059" lon="2.302604">
        <ele>646.40</ele>
        <time>2021-05-22T06:21:45Z</time>
      </trkpt>
      <trkpt lat="41.725069" lon="2.302632">
        <ele>647.00</ele>
        <time>2021-05-22T06:21:50Z</time>
      </trkpt>
      <trkpt lat="41.725070" lon="2.302639">
        <ele>647.00</ele>
        <time>2021-05-22T06:21:51Z</time>
      </trkpt>
      <trkpt lat="41.725091" lon="2.302658">
        <ele>647.00</ele>
        <time>2021-05-22T06:21:56Z</time>
      </trkpt>
      <trkpt lat="41.725128" lon="2.302666">
        <ele>647.00</ele>
        <time>2021-05-22T06:21:59Z</time>
      </trkpt>
      <trkpt lat="41.725174" lon="2.302691">
        <ele>647.00</ele>
        <time>2021-05-22T06:22:09Z</time>
      </trkpt>
      <trkpt lat="41.725191" lon="2.302675">
        <ele>647.00</ele>
        <time>2021-05-22T06:22:16Z</time>
      </trkpt>
      <trkpt lat="41.725208" lon="2.302690">
        <ele>647.00</ele>
        <time>2021-05-22T06:22:20Z</time>
      </trkpt>
      <trkpt lat="41.725213" lon="2.302688">
        <ele>647.00</ele>
        <time>2021-05-22T06:22:22Z</time>
      </trkpt>
      <trkpt lat="41.725217" lon="2.302685">
        <ele>647.00</ele>
        <time>2021-05-22T06:22:23Z</time>
      </trkpt>
      <trkpt lat="41.725216" lon="2.302663">
        <ele>647.00</ele>
        <time>2021-05-22T06:22:31Z</time>
      </trkpt>
      <trkpt lat="41.725133" lon="2.302604">
        <ele>647.00</ele>
        <time>2021-05-22T06:22:36Z</time>
      </trkpt>
      <trkpt lat="41.725122" lon="2.302601">
        <ele>647.00</ele>
        <time>2021-05-22T06:22:37Z</time>
      </trkpt>
      <trkpt lat="41.725121" lon="2.302597">
        <ele>647.00</ele>
        <time>2021-05-22T06:22:44Z</time>
      </trkpt>
      <trkpt lat="41.725120" lon="2.302592">
        <ele>647.00</ele>
        <time>2021-05-22T06:22:49Z</time>
      </trkpt>
      <trkpt lat="41.725119" lon="2.302588">
        <ele>647.00</ele>
        <time>2021-05-22T06:22:54Z</time>
      </trkpt>
      <trkpt lat="41.725118" lon="2.302583">
        <ele>647.00</ele>
        <time>2021-05-22T06:22:56Z</time>
      </trkpt>
      <trkpt lat="41.725117" lon="2.302579">
        <ele>647.00</ele>
        <time>2021-05-22T06:23:02Z</time>
      </trkpt>
      <trkpt lat="41.725116" lon="2.302574">
        <ele>647.00</ele>
        <time>2021-05-22T06:23:03Z</time>
      </trkpt>
      <trkpt lat="41.725116" lon="2.302570">
        <ele>647.00</ele>
        <time>2021-05-22T06:23:09Z</time>
      </trkpt>
      <trkpt lat="41.725115" lon="2.302565">
        <ele>647.00</ele>
        <time>2021-05-22T06:23:16Z</time>
      </trkpt>
      <trkpt lat="41.725114" lon="2.302560">
        <ele>647.00</ele>
        <time>2021-05-22T06:23:23Z</time>
      </trkpt>
      <trkpt lat="41.725113" lon="2.302556">
        <ele>647.00</ele>
        <time>2021-05-22T06:23:25Z</time>
      </trkpt>
      <trkpt lat="41.725112" lon="2.302551">
        <ele>647.00</ele>
        <time>2021-05-22T06:23:27Z</time>
      </trkpt>
      <trkpt lat="41.725111" lon="2.302547">
        <ele>647.00</ele>
        <time>2021-05-22T06:23:30Z</time>
      </trkpt>
      <trkpt lat="41.725110" lon="2.302542">
        <ele>647.00</ele>
        <time>2021-05-22T06:23:35Z</time>
      </trkpt>
      <trkpt lat="41.725109" lon="2.302538">
        <ele>647.00</ele>
        <time>2021-05-22T06:23:37Z</time>
      </trkpt>
      <trkpt lat="41.725108" lon="2.302533">
        <ele>647.00</ele>
        <time>2021-05-22T06:23:43Z</time>
      </trkpt>
      <trkpt lat="41.725107" lon="2.302529">
        <ele>647.00</ele>
        <time>2021-05-22T06:23:45Z</time>
      </trkpt>
      <trkpt lat="41.725106" lon="2.302524">
        <ele>647.00</ele>
        <time>2021-05-22T06:23:46Z</time>
      </trkpt>
      <trkpt lat="41.725105" lon="2.302520">
        <ele>647.00</ele>
        <time>2021-05-22T06:23:54Z</time>
      </trkpt>
      <trkpt lat="41.725104" lon="2.302515">
        <ele>647.00</ele>
        <time>2021-05-22T06:23:58Z</time>
      </trkpt>
      <trkpt lat="41.725103" lon="2.302510">
        <ele>647.00</ele>
        <time>2021-05-22T06:24:02Z</time>
      </trkpt>
      <trkpt lat="41.725102" lon="2.302506">
        <ele>647.00</ele>
        <time>2021-05-22T06:24:05Z</time>
      </trkpt>
      <trkpt lat="41.725102" lon="2.302501">
        <ele>647.00</ele>
        <time>2021-05-22T06:24:07Z</time>
      </trkpt>
      <trkpt lat="41.725101" lon="2.302497">
        <ele>647.00</ele>
        <time>2021-05-22T06:24:09Z</time>
      </trkpt>
      <trkpt lat="41.725100" lon="2.302492">
        <ele>647.00</ele>
        <time>2021-05-22T06:24:10Z</time>
      </trkpt>
      <trkpt lat="41.725099" lon="2.302488">
        <ele>647.00</ele>
        <time>2021-05-22T06:24:11Z</time>
      </trkpt>
      <trkpt lat="41.725098" lon="2.302483">
        <ele>647.00</ele>
        <time>2021-05-22T06:24:13Z</time>
      </trkpt>
      <trkpt lat="41.725097" lon="2.302479">
        <ele>647.00</ele>
        <time>2021-05-22T06:24:16Z</time>
      </trkpt>
      <trkpt lat="41.725096" lon="2.302474">
        <ele>647.00</ele>
        <time>2021-05-22T06:24:17Z</time>
      </trkpt>
      <trkpt lat="41.725095" lon="2.302469">
        <ele>647.00</ele>
        <time>2021-05-22T06:24:18Z</time>
      </trkpt>
      <trkpt lat="41.725094" lon="2.302465">
        <ele>647.00</ele>
        <time>2021-05-22T06:24:25Z</time>
      </trkpt>
      <trkpt lat="41.725093" lon="2.302460">
        <ele>647.00</ele>
        <time>2021-05-22T06:24:33Z</time>
      </trkpt>
      <trkpt lat="41.725092" lon="2.302456">
        <ele>647.00</ele>
        <time>2021-05-22T06:24:35Z</time>
      </trkpt>
      <trkpt lat="41.725091" lon="2.302451">
        <ele>647.00</ele>
        <time>2021-05-22T06:24:37Z</time>
      </trkpt>
      <trkpt lat="41.725090" lon="2.302447">
        <ele>647.00</ele>
        <time>2021-05-22T06:24:41Z</time>
      </trkpt>
      <trkpt lat="41.725089" lon="2.302442">
        <ele>647.00</ele>
        <time>2021-05-22T06:24:44Z</time>
      </trkpt>
      <trkpt lat="41.725088" lon="2.302438">
        <ele>647.00</ele>
        <time>2021-05-22T06:24:46Z</time>
      </trkpt>
      <trkpt lat="41.725088" lon="2.302433">
        <ele>647.00</ele>
        <time>2021-05-22T06:24:50Z</time>
      </trkpt>
      <trkpt lat="41.725087" lon="2.302428">
        <ele>647.00</ele>
        <time>2021-05-22T06:24:52Z</time>
      </trkpt>
      <trkpt lat="41.725086" lon="2.302424">
        <ele>647.00</ele>
        <time>2021-05-22T06:24:54Z</time>
      </trkpt>
      <trkpt lat="41.725085" lon="2.302419">
        <ele>647.00</ele>
        <time>2021-05-22T06:24:55Z</time>
      </trkpt>
      <trkpt lat="41.725084" lon="2.302415">
        <ele>647.00</ele>
        <time>2021-05-22T06:24:58Z</time>
      </trkpt>
      <trkpt lat="41.725083" lon="2.302410">
        <ele>647.00</ele>
        <time>2021-05-22T06:25:00Z</time>
      </trkpt>
      <trkpt lat="41.725082" lon="2.302406">
        <ele>647.00</ele>
        <time>2021-05-22T06:25:03Z</time>
      </trkpt>
      <trkpt lat="41.725081" lon="2.302401">
        <ele>647.00</ele>
        <time>2021-05-22T06:25:04Z</time>
      </trkpt>
      <trkpt lat="41.725080" lon="2.302397">
        <ele>647.00</ele>
        <time>2021-05-22T06:25:08Z</time>
      </trkpt>
      <trkpt lat="41.725079" lon="2.302392">
        <ele>647.00</ele>
        <time>2021-05-22T06:25:13Z</time>
      </trkpt>
      <trkpt lat="41.725078" lon="2.302388">
        <ele>647.00</ele>
        <time>2021-05-22T06:25:16Z</time>
      </trkpt>
      <trkpt lat="41.725077" lon="2.302383">
        <ele>647.00</ele>
        <time>2021-05-22T06:25:22Z</time>
      </trkpt>
      <trkpt lat="41.725076" lon="2.302378">
        <ele>647.00</ele>
        <time>2021-05-22T06:25:27Z</time>
      </trkpt>
      <trkpt lat="41.725075" lon="2.302374">
        <ele>647.00</ele>
        <time>2021-05-22T06:25:29Z</time>
      </trkpt>
      <trkpt lat="41.725074" lon="2.302369">
        <ele>647.00</ele>
        <time>2021-05-22T06:25:30Z</time>
      </trkpt>
      <trkpt lat="41.725074" lon="2.302365">
        <ele>647.00</ele>
        <time>2021-05-22T06:25:32Z</time>
      </trkpt>
      <trkpt lat="41.725073" lon="2.302360">
        <ele>647.20</ele>
        <time>2021-05-22T06:25:34Z</time>
      </trkpt>
      <trkpt lat="41.725072" lon="2.302356">
        <ele>647.40</ele>
        <time>2021-05-22T06:25:35Z</time>
      </trkpt>
      <trkpt lat="41.725071" lon="2.302351">
        <ele>647.40</ele>
        <time>2021-05-22T06:25:40Z</time>
      </trkpt>
      <trkpt lat="41.725070" lon="2.302347">
        <ele>647.60</ele>
        <time>2021-05-22T06:25:43Z</time>
      </trkpt>
      <trkpt lat="41.725069" lon="2.302342">
        <ele>647.00</ele>
        <time>2021-05-22T06:25:47Z</time>
      </trkpt>
      <trkpt lat="41.725068" lon="2.302337">
        <ele>647.20</ele>
        <time>2021-05-22T06:25:50Z</time>
      </trkpt>
      <trkpt lat="41.725067" lon="2.302333">
        <ele>647.00</ele>
        <time>2021-05-22T06:25:54Z</time>
      </trkpt>
      <trkpt lat="41.725066" lon="2.302328">
        <ele>647.00</ele>
        <time>2021-05-22T06:25:56Z</time>
      </trkpt>
      <trkpt lat="41.725065" lon="2.302324">
        <ele>647.20</ele>
        <time>2021-05-22T06:26:01Z</time>
      </trkpt>
      <trkpt lat="41.725064" lon="2.302319">
        <ele>646.40</ele>
        <time>2021-05-22T06:26:06Z</time>
      </trkpt>
      <trkpt lat="41.725063" lon="2.302315">
        <ele>646.20</ele>
        <time>2021-05-22T06:26:07Z</time>
      </trkpt>
      <trkpt lat="41.725062" lon="2.302310">
        <ele>646.40</ele>
        <time>2021-05-22T06:26:13Z</time>
      </trkpt>
      <trkpt lat="41.725061" lon="2.302306">
        <ele>646.20</ele>
        <time>2021-05-22T06:26:14Z</time>
      </trkpt>
      <trkpt lat="41.725060" lon="2.302301">
        <ele>646.80</ele>
        <time>2021-05-22T06:26:19Z</time>
      </trkpt>
      <trkpt lat="41.725060" lon="2.302296">
        <ele>646.80</ele>
        <time>2021-05-22T06:26:21Z</time>
      </trkpt>
      <trkpt lat="41.725059" lon="2.302292">
        <ele>646.20</ele>
        <time>2021-05-22T06:26:28Z</time>
      </trkpt>
      <trkpt lat="41.725058" lon="2.302287">
        <ele>647.00</ele>
        <time>2021-05-22T06:26:37Z</time>
      </trkpt>
      <trkpt lat="41.725057" lon="2.302283">
        <ele>647.00</ele>
        <time>2021-05-22T06:26:44Z</time>
      </trkpt>
      <trkpt lat="41.725056" lon="2.302278">
        <ele>647.00</ele>
        <time>2021-05-22T06:26:52Z</time>
      </trkpt>
      <trkpt lat="41.725055" lon="2.302274">
        <ele>647.00</ele>
        <time>2021-05-22T06:26:57Z</time>
      </trkpt>
      <trkpt lat="41.725054" lon="2.302269">
        <ele>647.00</ele>
        <time>2021-05-22T06:27:00Z</time>
      </trkpt>
      <trkpt lat="41.725053" lon="2.302265">
        <ele>647.00</ele>
        <time>2021-05-22T06:27:09Z</time>
      </trkpt>
      <trkpt lat="41.725052" lon="2.302260">
        <ele>647.00</ele>
        <time>2021-05-22T06:27:11Z</time>
      </trkpt>
      <trkpt lat="41.725051" lon="2.302256">
        <ele>647.00</ele>
        <time>2021-05-22T06:27:13Z</time>
      </trkpt>
      <trkpt lat="41.725050" lon="2.302251">
        <ele>647.00</ele>
        <time>2021-05-22T06:27:20Z</time>
      </trkpt>
      <trkpt lat="41.725049" lon="2.302246">
        <ele>647.00</ele>
        <time>2021-05-22T06:27:27Z</time>
      </trkpt>
      <trkpt lat="41.725048" lon="2.302242">
        <ele>647.00</ele>
        <time>2021-05-22T06:27:30Z</time>
      </trkpt>
      <trkpt lat="41.725047" lon="2.302237">
        <ele>647.00</ele>
        <time>2021-05-22T06:27:34Z</time>
      </trkpt>
      <trkpt lat="41.725046" lon="2.302233">
        <ele>647.00</ele>
        <time>2021-05-22T06:27:36Z</time>
      </trkpt>
      <trkpt lat="41.725046" lon="2.302228">
        <ele>647.00</ele>
        <time>2021-05-22T06:27:39Z</time>
      </trkpt>
      <trkpt lat="41.725045" lon="2.302224">
        <ele>647.00</ele>
        <time>2021-05-22T06:27:46Z</time>
      </trkpt>
      <trkpt lat="41.725044" lon="2.302219">
        <ele>647.00</ele>
        <time>2021-05-22T06:27:53Z</time>
      </trkpt>
      <trkpt lat="41.725043" lon="2.302215">
        <ele>647.00</ele>
        <time>2021-05-22T06:27:58Z</time>
      </trkpt>
      <trkpt lat="41.725042" lon="2.302210">
        <ele>647.00</ele>
        <time>2021-05-22T06:28:00Z</time>
      </trkpt>
      <trkpt lat="41.725041" lon="2.302205">
        <ele>647.00</ele>
        <time>2021-05-22T06:28:04Z</time>
      </trkpt>
      <trkpt lat="41.725040" lon="2.302201">
        <ele>647.00</ele>
        <time>2021-05-22T06:28:10Z</time>
      </trkpt>
      <trkpt lat="41.725039" lon="2.302196">
        <ele>647.00</ele>
        <time>2021-05-22T06:28:12Z</time>
      </trkpt>
      <trkpt lat="41.725038" lon="2.302192">
        <ele>647.00</ele>
        <time>2021-05-22T06:28:21Z</time>
      </trkpt>
      <trkpt lat="41.725037" lon="2.302187">
        <ele>647.00</ele>
        <time>2021-05-22T06:28:27Z</time>
      </trkpt>
      <trkpt lat="41.725036" lon="2.302183">
        <ele>647.00</ele>
        <time>2021-05-22T06:28:34Z</time>
      </trkpt>
      <trkpt lat="41.725035" lon="2.302178">
        <ele>647.00</ele>
        <time>2021-05-22T06:28:35Z</time>
      </trkpt>
      <trkpt lat="41.725034" lon="2.302174">
        <ele>647.00</ele>
        <time>2021-05-22T06:28:36Z</time>
      </trkpt>
      <trkpt lat="41.725033" lon="2.302169">
        <ele>647.00</ele>
        <time>2021-05-22T06:28:43Z</time>
      </trkpt>
      <trkpt lat="41.725032" lon="2.302165">
        <ele>647.40</ele>
        <time>2021-05-22T06:28:45Z</time>
      </trkpt>
      <trkpt lat="41.725032" lon="2.302160">
        <ele>647.80</ele>
        <time>2021-05-22T06:28:47Z</time>
      </trkpt>
      <trkpt lat="41.725031" lon="2.302155">
        <ele>647.80</ele>
        <time>2021-05-22T06:28:50Z</time>
      </trkpt>
      <trkpt lat="41.725030" lon="2.302151">
        <ele>648.40</ele>
        <time>2021-05-22T06:28:54Z</time>
      </trkpt>
      <trkpt lat="41.725029" lon="2.302146">
        <ele>649.00</ele>
        <time>2021-05-22T06:28:56Z</time>
      </trkpt>
      <trkpt lat="41.725028" lon="2.302142">
        <ele>649.20</ele>
        <time>2021-05-22T06:28:58Z</time>
      </trkpt>
      <trkpt lat="41.725027" lon="2.302137">
        <ele>649.20</ele>
        <time>2021-05-22T06:29:00Z</time>
      </trkpt>
      <trkpt lat="41.725026" lon="2.302133">
        <ele>649.40</ele>
        <time>2021-05-22T06:29:04Z</time>
      </trkpt>
      <trkpt lat="41.725025" lon="2.302128">
        <ele>649.60</ele>
        <time>2021-05-22T06:29:05Z</time>
      </trkpt>
      <trkpt lat="41.725024" lon="2.302124">
        <ele>650.00</ele>
        <time>2021-05-22T06:29:13Z</time>
      </trkpt>
      <trkpt lat="41.725023" lon="2.302119">
        <ele>650.00</ele>
        <time>2021-05-22T06:29:14Z</time>
      </trkpt>
      <trkpt lat="41.725022" lon="2.302114">
        <ele>650.00</ele>
        <time>2021-05-22T06:29:15Z</time>
      </trkpt>
      <trkpt lat="41.725021" lon="2.302110">
        <ele>650.00</ele>
        <time>2021-05-22T06:29:16Z</time>
      </trkpt>
      <trkpt lat="41.725020" lon="2.302105">
        <ele>650.00</ele>
        <time>2021-05-22T06:29:17Z</time>
      </trkpt>
      <trkpt lat="41.725019" lon="2.302101">
        <ele>650.60</ele>
        <time>2021-05-22T06:29:20Z</time>
      </trkpt>
      <trkpt lat="41.725018" lon="2.302096">
        <ele>650.20</ele>
        <time>2021-05-22T06:29:22Z</time>
      </trkpt>
      <trkpt lat="41.725018" lon="2.302092">
        <ele>650.00</ele>
        <time>2021-05-22T06:29:23Z</time>
      </trkpt>
      <trkpt lat="41.725017" lon="2.302087">
        <ele>650.00</ele>
        <time>2021-05-22T06:29:28Z</time>
      </trkpt>
      <trkpt lat="41.725016" lon="2.302083">
        <ele>650.20</ele>
        <time>2021-05-22T06:29:30Z</time>
      </trkpt>
      <trkpt lat="41.725015" lon="2.302078">
        <ele>650.20</ele>
        <time>2021-05-22T06:29:31Z</time>
      </trkpt>
      <trkpt lat="41.725014" lon="2.302073">
        <ele>650.20</ele>
        <time>2021-05-22T06:29:35Z</time>
      </trkpt>
      <trkpt lat="41.725013" lon="2.302069">
        <ele>650.00</ele>
        <time>2021-05-22T06:29:36Z</time>
      </trkpt>
      <trkpt lat="41.725012" lon="2.302064">
        <ele>650.20</ele>
        <time>2021-05-22T06:29:37Z</time>
      </trkpt>
      <trkpt lat="41.725011" lon="2.302060">
        <ele>650.20</ele>
        <time>2021-05-22T06:29:39Z</time>
      </trkpt>
      <trkpt lat="41.725010" lon="2.302055">
        <ele>650.60</ele>
        <time>2021-05-22T06:29:41Z</time>
      </trkpt>
      <trkpt lat="41.725009" lon="2.302051">
        <ele>650.80</ele>
        <time>2021-05-22T06:29:42Z</time>
      </trkpt>
      <trkpt lat="41.725008" lon="2.302046">
        <ele>650.80</ele>
        <time>2021-05-22T06:29:43Z</time>
      </trkpt>
      <trkpt lat="41.725007" lon="2.302042">
        <ele>650.80</ele>
        <time>2021-05-22T06:29:44Z</time>
      </trkpt>
      <trkpt lat="41.725006" lon="2.302037">
        <ele>651.00</ele>
        <time>2021-05-22T06:29:45Z</time>
      </trkpt>
      <trkpt lat="41.725005" lon="2.302033">
        <ele>651.00</ele>
        <time>2021-05-22T06:29:46Z</time>
      </trkpt>
      <trkpt lat="41.725004" lon="2.302028">
        <ele>651.00</ele>
        <time>2021-05-22T06:29:47Z</time>
      </trkpt>
      <trkpt lat="41.725004" lon="2.302023">
        <ele>651.00</ele>
        <time>2021-05-22T06:29:48Z</time>
      </trkpt>
      <trkpt lat="41.725003" lon="2.302019">
        <ele>651.20</ele>
        <time>2021-05-22T06:29:49Z</time>
      </trkpt>
      <trkpt lat="41.725002" lon="2.302014">
        <ele>651.40</ele>
        <time>2021-05-22T06:29:50Z</time>
      </trkpt>
      <trkpt lat="41.725001" lon="2.302010">
        <ele>651.60</ele>
        <time>2021-05-22T06:29:52Z</time>
      </trkpt>
      <trkpt lat="41.725000" lon="2.302005">
        <ele>651.60</ele>
        <time>2021-05-22T06:29:53Z</time>
      </trkpt>
      <trkpt lat="41.724999" lon="2.302001">
        <ele>651.80</ele>
        <time>2021-05-22T06:29:54Z</time>
      </trkpt>
      <trkpt lat="41.724998" lon="2.301996">
        <ele>652.00</ele>
        <time>2021-05-22T06:29:57Z</time>
      </trkpt>
      <trkpt lat="41.724997" lon="2.301992">
        <ele>652.00</ele>
        <time>2021-05-22T06:29:58Z</time>
      </trkpt>
      <trkpt lat="41.724996" lon="2.301987">
        <ele>652.20</ele>
        <time>2021-05-22T06:29:59Z</time>
      </trkpt>
      <trkpt lat="41.724995" lon="2.301982">
        <ele>652.20</ele>
        <time>2021-05-22T06:30:00Z</time>
      </trkpt>
      <trkpt lat="41.724994" lon="2.301978">
        <ele>652.40</ele>
        <time>2021-05-22T06:30:01Z</time>
      </trkpt>
      <trkpt lat="41.724993" lon="2.301973">
        <ele>652.60</ele>
        <time>2021-05-22T06:30:02Z</time>
      </trkpt>
      <trkpt lat="41.724992" lon="2.301969">
        <ele>652.80</ele>
        <time>2021-05-22T06:30:03Z</time>
      </trkpt>
      <trkpt lat="41.724991" lon="2.301964">
        <ele>653.00</ele>
        <time>2021-05-22T06:30:04Z</time>
      </trkpt>
      <trkpt lat="41.724990" lon="2.301960">
        <ele>653.20</ele>
        <time>2021-05-22T06:30:05Z</time>
      </trkpt>
      <trkpt lat="41.724990" lon="2.301955">
        <ele>653.40</ele>
        <time>2021-05-22T06:30:06Z</time>
      </trkpt>
      <trkpt lat="41.724989" lon="2.301951">
        <ele>653.60</ele>
        <time>2021-05-22T06:30:08Z</time>
      </trkpt>
      <trkpt lat="41.724988" lon="2.301946">
        <ele>653.80</ele>
        <time>2021-05-22T06:30:09Z</time>
      </trkpt>
      <trkpt lat="41.724987" lon="2.301941">
        <ele>653.80</ele>
        <time>2021-05-22T06:30:10Z</time>
      </trkpt>
      <trkpt lat="41.724986" lon="2.301937">
        <ele>654.80</ele>
        <time>2021-05-22T06:30:16Z</time>
      </trkpt>
      <trkpt lat="41.724985" lon="2.301932">
        <ele>655.00</ele>
        <time>2021-05-22T06:30:17Z</time>
      </trkpt>
      <trkpt lat="41.724984" lon="2.301928">
        <ele>655.20</ele>
        <time>2021-05-22T06:30:19Z</time>
      </trkpt>
      <trkpt lat="41.724983" lon="2.301923">
        <ele>654.40</ele>
        <time>2021-05-22T06:30:31Z</time>
      </trkpt>
      <trkpt lat="41.724982" lon="2.301919">
        <ele>654.60</ele>
        <time>2021-05-22T06:30:32Z</time>
      </trkpt>
      <trkpt lat="41.724981" lon="2.301914">
        <ele>654.60</ele>
        <time>2021-05-22T06:30:33Z</time>
      </trkpt>
      <trkpt lat="41.724980" lon="2.301910">
        <ele>654.80</ele>
        <time>2021-05-22T06:30:34Z</time>
      </trkpt>
      <trkpt lat="41.724979" lon="2.301905">
        <ele>654.80</ele>
        <time>2021-05-22T06:30:35Z</time>
      </trkpt>
      <trkpt lat="41.724978" lon="2.301901">
        <ele>654.80</ele>
        <time>2021-05-22T06:30:36Z</time>
      </trkpt>
      <trkpt lat="41.724977" lon="2.301896">
        <ele>655.20</ele>
        <time>2021-05-22T06:30:37Z</time>
      </trkpt>
      <trkpt lat="41.724976" lon="2.301891">
        <ele>655.20</ele>
        <time>2021-05-22T06:30:38Z</time>
      </trkpt>
      <trkpt lat="41.724976" lon="2.301887">
        <ele>655.20</ele>
        <time>2021-05-22T06:30:39Z</time>
      </trkpt>
      <trkpt lat="41.724975" lon="2.301882">
        <ele>655.20</ele>
        <time>2021-05-22T06:30:41Z</time>
      </trkpt>
      <trkpt lat="41.724974" lon="2.301878">
        <ele>655.00</ele>
        <time>2021-05-22T06:30:43Z</time>
      </trkpt>
      <trkpt lat="41.724973" lon="2.301873">
        <ele>655.00</ele>
        <time>2021-05-22T06:30:44Z</time>
      </trkpt>
      <trkpt lat="41.724972" lon="2.301869">
        <ele>655.00</ele>
        <time>2021-05-22T06:30:45Z</time>
      </trkpt>
      <trkpt lat="41.724971" lon="2.301864">
        <ele>655.00</ele>
        <time>2021-05-22T06:30:46Z</time>
      </trkpt>
      <trkpt lat="41.724970" lon="2.301860">
        <ele>655.40</ele>
        <time>2021-05-22T06:30:48Z</time>
      </trkpt>
      <trkpt lat="41.724969" lon="2.301855">
        <ele>656.00</ele>
        <time>2021-05-22T06:30:50Z</time>
      </trkpt>
      <trkpt lat="41.724972" lon="2.301865">
        <ele>655.80</ele>
        <time>2021-05-22T06:30:52Z</time>
      </trkpt>
      <trkpt lat="41.725012" lon="2.301893">
        <ele>655.40</ele>
        <time>2021-05-22T06:30:54Z</time>
      </trkpt>
      <trkpt lat="41.725012" lon="2.301893">
        <ele>655.40</ele>
        <time>2021-05-22T06:30:59Z</time>
      </trkpt>
      <trkpt lat="41.725012" lon="2.301893">
        <ele>655.60</ele>
        <time>2021-05-22T06:31:01Z</time>
      </trkpt>
      <trkpt lat="41.725012" lon="2.301893">
        <ele>655.80</ele>
        <time>2021-05-22T06:31:02Z</time>
      </trkpt>
      <trkpt lat="41.725012" lon="2.301893">
        <ele>656.00</ele>
        <time>2021-05-22T06:31:04Z</time>
      </trkpt>
      <trkpt lat="41.725012" lon="2.301893">
        <ele>656.20</ele>
        <time>2021-05-22T06:31:05Z</time>
      </trkpt>
      <trkpt lat="41.725012" lon="2.301893">
        <ele>656.20</ele>
        <time>2021-05-22T06:31:06Z</time>
      </trkpt>
      <trkpt lat="41.725012" lon="2.301893">
        <ele>656.20</ele>
        <time>2021-05-22T06:31:11Z</time>
      </trkpt>
      <trkpt lat="41.725012" lon="2.301893">
        <ele>656.20</ele>
        <time>2021-05-22T06:31:12Z</time>
      </trkpt>
      <trkpt lat="41.725012" lon="2.301893">
        <ele>656.00</ele>
        <time>2021-05-22T06:31:13Z</time>
      </trkpt>
      <trkpt lat="41.725012" lon="2.301893">
        <ele>656.00</ele>
        <time>2021-05-22T06:31:14Z</time>
      </trkpt>
      <trkpt lat="41.725012" lon="2.301893">
        <ele>655.80</ele>
        <time>2021-05-22T06:31:15Z</time>
      </trkpt>
      <trkpt lat="41.725012" lon="2.301893">
        <ele>655.40</ele>
        <time>2021-05-22T06:31:19Z</time>
      </trkpt>
      <trkpt lat="41.725012" lon="2.301893">
        <ele>655.20</ele>
        <time>2021-05-22T06:31:20Z</time>
      </trkpt>
      <trkpt lat="41.725012" lon="2.301893">
        <ele>655.20</ele>
        <time>2021-05-22T06:31:21Z</time>
      </trkpt>
      <trkpt lat="41.725012" lon="2.301893">
        <ele>655.40</ele>
        <time>2021-05-22T06:31:22Z</time>
      </trkpt>
      <trkpt lat="41.725012" lon="2.301893">
        <ele>655.40</ele>
        <time>2021-05-22T06:31:23Z</time>
      </trkpt>
      <trkpt lat="41.725012" lon="2.301893">
        <ele>655.40</ele>
        <time>2021-05-22T06:31:24Z</time>
      </trkpt>
      <trkpt lat="41.725012" lon="2.301893">
        <ele>655.40</ele>
        <time>2021-05-22T06:31:25Z</time>
      </trkpt>
      <trkpt lat="41.725012" lon="2.301893">
        <ele>655.60</ele>
        <time>2021-05-22T06:31:26Z</time>
      </trkpt>
      <trkpt lat="41.725012" lon="2.301893">
        <ele>655.40</ele>
        <time>2021-05-22T06:31:30Z</time>
      </trkpt>
      <trkpt lat="41.725012" lon="2.301893">
        <ele>655.40</ele>
        <time>2021-05-22T06:31:32Z</time>
      </trkpt>
      <trkpt lat="41.725012" lon="2.301893">
        <ele>655.60</ele>
        <time>2021-05-22T06:31:34Z</time>
      </trkpt>
      <trkpt lat="41.725012" lon="2.301893">
        <ele>655.60</ele>
        <time>2021-05-22T06:31:35Z</time>
      </trkpt>
      <trkpt lat="41.725012" lon="2.301893">
        <ele>655.60</ele>
        <time>2021-05-22T06:31:36Z</time>
      </trkpt>
      <trkpt lat="41.725012" lon="2.301893">
        <ele>655.60</ele>
        <time>2021-05-22T06:31:37Z</time>
      </trkpt>
      <trkpt lat="41.725012" lon="2.301893">
        <ele>655.60</ele>
        <time>2021-05-22T06:31:38Z</time>
      </trkpt>
      <trkpt lat="41.725012" lon="2.301893">
        <ele>655.40</ele>
        <time>2021-05-22T06:31:39Z</time>
      </trkpt>
      <trkpt lat="41.725012" lon="2.301893">
        <ele>655.20</ele>
        <time>2021-05-22T06:31:40Z</time>
      </trkpt>
      <trkpt lat="41.725012" lon="2.301893">
        <ele>655.20</ele>
        <time>2021-05-22T06:31:41Z</time>
      </trkpt>
      <trkpt lat="41.725012" lon="2.301893">
        <ele>655.20</ele>
        <time>2021-05-22T06:31:42Z</time>
      </trkpt>
      <trkpt lat="41.725012" lon="2.301893">
        <ele>655.20</ele>
        <time>2021-05-22T06:31:43Z</time>
      </trkpt>
      <trkpt lat="41.725012" lon="2.301893">
        <ele>655.20</ele>
        <time>2021-05-22T06:31:44Z</time>
      </trkpt>
      <trkpt lat="41.725012" lon="2.301893">
        <ele>655.00</ele>
        <time>2021-05-22T06:31:49Z</time>
      </trkpt>
      <trkpt lat="41.725012" lon="2.301893">
        <ele>655.00</ele>
        <time>2021-05-22T06:31:50Z</time>
      </trkpt>
      <trkpt lat="41.725012" lon="2.301893">
        <ele>654.80</ele>
        <time>2021-05-22T06:31:51Z</time>
      </trkpt>
      <trkpt lat="41.725012" lon="2.301893">
        <ele>654.60</ele>
        <time>2021-05-22T06:31:52Z</time>
      </trkpt>
      <trkpt lat="41.725012" lon="2.301893">
        <ele>654.60</ele>
        <time>2021-05-22T06:31:53Z</time>
      </trkpt>
      <trkpt lat="41.725012" lon="2.301893">
        <ele>654.40</ele>
        <time>2021-05-22T06:31:54Z</time>
      </trkpt>
      <trkpt lat="41.725012" lon="2.301893">
        <ele>654.40</ele>
        <time>2021-05-22T06:31:55Z</time>
      </trkpt>
      <trkpt lat="41.725012" lon="2.301893">
        <ele>654.20</ele>
        <time>2021-05-22T06:31:56Z</time>
      </trkpt>
      <trkpt lat="41.725012" lon="2.301893">
        <ele>654.00</ele>
        <time>2021-05-22T06:31:57Z</time>
      </trkpt>
      <trkpt lat="41.725012" lon="2.301893">
        <ele>653.80</ele>
        <time>2021-05-22T06:31:59Z</time>
      </trkpt>
      <trkpt lat="41.725012" lon="2.301893">
        <ele>653.40</ele>
        <time>2021-05-22T06:32:00Z</time>
      </trkpt>
      <trkpt lat="41.725012" lon="2.301893">
        <ele>652.80</ele>
        <time>2021-05-22T06:32:03Z</time>
      </trkpt>
      <trkpt lat="41.725012" lon="2.301893">
        <ele>652.80</ele>
        <time>2021-05-22T06:32:04Z</time>
      </trkpt>
      <trkpt lat="41.725012" lon="2.301893">
        <ele>652.80</ele>
        <time>2021-05-22T06:32:05Z</time>
      </trkpt>
      <trkpt lat="41.725012" lon="2.301893">
        <ele>652.80</ele>
        <time>2021-05-22T06:32:06Z</time>
      </trkpt>
      <trkpt lat="41.725012" lon="2.301893">
        <ele>652.80</ele>
        <time>2021-05-22T06:32:07Z</time>
      </trkpt>
      <trkpt lat="41.725012" lon="2.301893">
        <ele>652.80</ele>
        <time>2021-05-22T06:32:08Z</time>
      </trkpt>
      <trkpt lat="41.725012" lon="2.301893">
        <ele>652.80</ele>
        <time>2021-05-22T06:32:09Z</time>
      </trkpt>
      <trkpt lat="41.725012" lon="2.301893">
        <ele>652.80</ele>
        <time>2021-05-22T06:32:15Z</time>
      </trkpt>
      <trkpt lat="41.725012" lon="2.301893">
        <ele>652.80</ele>
        <time>2021-05-22T06:32:16Z</time>
      </trkpt>
      <trkpt lat="41.725012" lon="2.301893">
        <ele>653.00</ele>
        <time>2021-05-22T06:32:20Z</time>
      </trkpt>
      <trkpt lat="41.725012" lon="2.301893">
        <ele>653.20</ele>
        <time>2021-05-22T06:32:21Z</time>
      </trkpt>
      <trkpt lat="41.725012" lon="2.301893">
        <ele>653.40</ele>
        <time>2021-05-22T06:32:22Z</time>
      </trkpt>
      <trkpt lat="41.725012" lon="2.301893">
        <ele>653.60</ele>
        <time>2021-05-22T06:32:25Z</time>
      </trkpt>
      <trkpt lat="41.725012" lon="2.301893">
        <ele>653.20</ele>
        <time>2021-05-22T06:32:27Z</time>
      </trkpt>
      <trkpt lat="41.725012" lon="2.301893">
        <ele>653.00</ele>
        <time>2021-05-22T06:32:28Z</time>
      </trkpt>
      <trkpt lat="41.725012" lon="2.301893">
        <ele>652.80</ele>
        <time>2021-05-22T06:32:29Z</time>
      </trkpt>
      <trkpt lat="41.725012" lon="2.301893">
        <ele>652.60</ele>
        <time>2021-05-22T06:32:30Z</time>
      </trkpt>
      <trkpt lat="41.725012" lon="2.301893">
        <ele>652.60</ele>
        <time>2021-05-22T06:32:31Z</time>
      </trkpt>
      <trkpt lat="41.725012" lon="2.301893">
        <ele>652.60</ele>
        <time>2021-05-22T06:32:32Z</time>
      </trkpt>
      <trkpt lat="41.725012" lon="2.301893">
        <ele>652.60</ele>
        <time>2021-05-22T06:32:34Z</time>
      </trkpt>
      <trkpt lat="41.725012" lon="2.301893">
        <ele>652.60</ele>
        <time>2021-05-22T06:32:36Z</time>
      </trkpt>
      <trkpt lat="41.725012" lon="2.301893">
        <ele>652.60</ele>
        <time>2021-05-22T06:32:37Z</time>
      </trkpt>
      <trkpt lat="41.725012" lon="2.301893">
        <ele>652.80</ele>
        <time>2021-05-22T06:32:38Z</time>
      </trkpt>
      <trkpt lat="41.725012" lon="2.301893">
        <ele>652.80</ele>
        <time>2021-05-22T06:32:39Z</time>
      </trkpt>
      <trkpt lat="41.725012" lon="2.301893">
        <ele>652.60</ele>
        <time>2021-05-22T06:32:40Z</time>
      </trkpt>
      <trkpt lat="41.725012" lon="2.301893">
        <ele>652.60</ele>
        <time>2021-05-22T06:32:41Z</time>
      </trkpt>
      <trkpt lat="41.725012" lon="2.301893">
        <ele>652.60</ele>
        <time>2021-05-22T06:32:43Z</time>
      </trkpt>
      <trkpt lat="41.725012" lon="2.301893">
        <ele>652.40</ele>
        <time>2021-05-22T06:32:45Z</time>
      </trkpt>
      <trkpt lat="41.725012" lon="2.301893">
        <ele>652.20</ele>
        <time>2021-05-22T06:32:46Z</time>
      </trkpt>
      <trkpt lat="41.725012" lon="2.301893">
        <ele>652.20</ele>
        <time>2021-05-22T06:32:47Z</time>
      </trkpt>
      <trkpt lat="41.725012" lon="2.301893">
        <ele>652.00</ele>
        <time>2021-05-22T06:32:48Z</time>
      </trkpt>
      <trkpt lat="41.725012" lon="2.301893">
        <ele>652.00</ele>
        <time>2021-05-22T06:32:49Z</time>
      </trkpt>
      <trkpt lat="41.725012" lon="2.301893">
        <ele>652.20</ele>
        <time>2021-05-22T06:32:50Z</time>
      </trkpt>
      <trkpt lat="41.725012" lon="2.301893">
        <ele>652.40</ele>
        <time>2021-05-22T06:32:52Z</time>
      </trkpt>
      <trkpt lat="41.725012" lon="2.301893">
        <ele>652.60</ele>
        <time>2021-05-22T06:32:53Z</time>
      </trkpt>
      <trkpt lat="41.725012" lon="2.301893">
        <ele>652.60</ele>
        <time>2021-05-22T06:32:54Z</time>
      </trkpt>
      <trkpt lat="41.725012" lon="2.301893">
        <ele>652.80</ele>
        <time>2021-05-22T06:32:55Z</time>
      </trkpt>
      <trkpt lat="41.725012" lon="2.301893">
        <ele>652.80</ele>
        <time>2021-05-22T06:32:56Z</time>
      </trkpt>
      <trkpt lat="41.725012" lon="2.301893">
        <ele>652.60</ele>
        <time>2021-05-22T06:32:57Z</time>
      </trkpt>
      <trkpt lat="41.725012" lon="2.301893">
        <ele>652.60</ele>
        <time>2021-05-22T06:32:58Z</time>
      </trkpt>
      <trkpt lat="41.725012" lon="2.301893">
        <ele>651.60</ele>
        <time>2021-05-22T06:33:01Z</time>
      </trkpt>
      <trkpt lat="41.725012" lon="2.301893">
        <ele>651.40</ele>
        <time>2021-05-22T06:33:05Z</time>
      </trkpt>
      <trkpt lat="41.725012" lon="2.301893">
        <ele>651.60</ele>
        <time>2021-05-22T06:33:08Z</time>
      </trkpt>
      <trkpt lat="41.725012" lon="2.301893">
        <ele>651.60</ele>
        <time>2021-05-22T06:33:14Z</time>
      </trkpt>
      <trkpt lat="41.725012" lon="2.301893">
        <ele>652.00</ele>
        <time>2021-05-22T06:33:17Z</time>
      </trkpt>
      <trkpt lat="41.725012" lon="2.301893">
        <ele>652.00</ele>
        <time>2021-05-22T06:33:18Z</time>
      </trkpt>
      <trkpt lat="41.725012" lon="2.301893">
        <ele>652.20</ele>
        <time>2021-05-22T06:33:20Z</time>
      </trkpt>
      <trkpt lat="41.725012" lon="2.301893">
        <ele>652.20</ele>
        <time>2021-05-22T06:33:21Z</time>
      </trkpt>
      <trkpt lat="41.725012" lon="2.301893">
        <ele>652.20</ele>
        <time>2021-05-22T06:33:23Z</time>
      </trkpt>
      <trkpt lat="41.725012" lon="2.301893">
        <ele>652.60</ele>
        <time>2021-05-22T06:33:25Z</time>
      </trkpt>
      <trkpt lat="41.725012" lon="2.301893">
        <ele>652.80</ele>
        <time>2021-05-22T06:33:26Z</time>
      </trkpt>
      <trkpt lat="41.725012" lon="2.301893">
        <ele>652.80</ele>
        <time>2021-05-22T06:33:27Z</time>
      </trkpt>
      <trkpt lat="41.725012" lon="2.301893">
        <ele>653.00</ele>
        <time>2021-05-22T06:33:28Z</time>
      </trkpt>
      <trkpt lat="41.725012" lon="2.301893">
        <ele>653.20</ele>
        <time>2021-05-22T06:33:29Z</time>
      </trkpt>
      <trkpt lat="41.725012" lon="2.301893">
        <ele>653.60</ele>
        <time>2021-05-22T06:33:31Z</time>
      </trkpt>
      <trkpt lat="41.725012" lon="2.301893">
        <ele>653.80</ele>
        <time>2021-05-22T06:33:32Z</time>
      </trkpt>
      <trkpt lat="41.725012" lon="2.301893">
        <ele>653.80</ele>
        <time>2021-05-22T06:33:33Z</time>
      </trkpt>
      <trkpt lat="41.725012" lon="2.301893">
        <ele>653.80</ele>
        <time>2021-05-22T06:33:34Z</time>
      </trkpt>
      <trkpt lat="41.725012" lon="2.301893">
        <ele>654.20</ele>
        <time>2021-05-22T06:33:36Z</time>
      </trkpt>
      <trkpt lat="41.725012" lon="2.301893">
        <ele>654.60</ele>
        <time>2021-05-22T06:33:37Z</time>
      </trkpt>
      <trkpt lat="41.725012" lon="2.301893">
        <ele>654.80</ele>
        <time>2021-05-22T06:33:39Z</time>
      </trkpt>
      <trkpt lat="41.725012" lon="2.301893">
        <ele>654.60</ele>
        <time>2021-05-22T06:33:40Z</time>
      </trkpt>
      <trkpt lat="41.725012" lon="2.301893">
        <ele>654.60</ele>
        <time>2021-05-22T06:33:42Z</time>
      </trkpt>
      <trkpt lat="41.725012" lon="2.301893">
        <ele>654.60</ele>
        <time>2021-05-22T06:33:43Z</time>
      </trkpt>
      <trkpt lat="41.725012" lon="2.301893">
        <ele>654.60</ele>
        <time>2021-05-22T06:33:46Z</time>
      </trkpt>
      <trkpt lat="41.725012" lon="2.301893">
        <ele>654.60</ele>
        <time>2021-05-22T06:33:47Z</time>
      </trkpt>
      <trkpt lat="41.725012" lon="2.301893">
        <ele>654.60</ele>
        <time>2021-05-22T06:33:48Z</time>
      </trkpt>
      <trkpt lat="41.725012" lon="2.301893">
        <ele>654.80</ele>
        <time>2021-05-22T06:33:49Z</time>
      </trkpt>
      <trkpt lat="41.725012" lon="2.301893">
        <ele>654.80</ele>
        <time>2021-05-22T06:33:50Z</time>
      </trkpt>
      <trkpt lat="41.725012" lon="2.301893">
        <ele>655.00</ele>
        <time>2021-05-22T06:33:51Z</time>
      </trkpt>
      <trkpt lat="41.725012" lon="2.301893">
        <ele>655.20</ele>
        <time>2021-05-22T06:33:55Z</time>
      </trkpt>
      <trkpt lat="41.725012" lon="2.301893">
        <ele>654.20</ele>
        <time>2021-05-22T06:34:01Z</time>
      </trkpt>
      <trkpt lat="41.725012" lon="2.301893">
        <ele>653.80</ele>
        <time>2021-05-22T06:34:06Z</time>
      </trkpt>
      <trkpt lat="41.725012" lon="2.301893">
        <ele>653.60</ele>
        <time>2021-05-22T06:34:07Z</time>
      </trkpt>
      <trkpt lat="41.725012" lon="2.301893">
        <ele>653.60</ele>
        <time>2021-05-22T06:34:08Z</time>
      </trkpt>
      <trkpt lat="41.725012" lon="2.301893">
        <ele>653.40</ele>
        <time>2021-05-22T06:34:09Z</time>
      </trkpt>
      <trkpt lat="41.725012" lon="2.301893">
        <ele>653.40</ele>
        <time>2021-05-22T06:34:10Z</time>
      </trkpt>
      <trkpt lat="41.725012" lon="2.301893">
        <ele>653.20</ele>
        <time>2021-05-22T06:34:11Z</time>
      </trkpt>
      <trkpt lat="41.725012" lon="2.301893">
        <ele>653.40</ele>
        <time>2021-05-22T06:34:12Z</time>
      </trkpt>
      <trkpt lat="41.725012" lon="2.301893">
        <ele>653.40</ele>
        <time>2021-05-22T06:34:13Z</time>
      </trkpt>
      <trkpt lat="41.725012" lon="2.301893">
        <ele>653.40</ele>
        <time>2021-05-22T06:34:15Z</time>
      </trkpt>
      <trkpt lat="41.725012" lon="2.301893">
        <ele>654.00</ele>
        <time>2021-05-22T06:34:19Z</time>
      </trkpt>
      <trkpt lat="41.725012" lon="2.301893">
        <ele>654.00</ele>
        <time>2021-05-22T06:34:21Z</time>
      </trkpt>
      <trkpt lat="41.725012" lon="2.301893">
        <ele>654.00</ele>
        <time>2021-05-22T06:34:22Z</time>
      </trkpt>
      <trkpt lat="41.725012" lon="2.301893">
        <ele>654.00</ele>
        <time>2021-05-22T06:34:23Z</time>
      </trkpt>
      <trkpt lat="41.725012" lon="2.301893">
        <ele>654.00</ele>
        <time>2021-05-22T06:34:24Z</time>
      </trkpt>
      <trkpt lat="41.725012" lon="2.301893">
        <ele>653.80</ele>
        <time>2021-05-22T06:34:25Z</time>
      </trkpt>
      <trkpt lat="41.725012" lon="2.301893">
        <ele>653.60</ele>
        <time>2021-05-22T06:34:26Z</time>
      </trkpt>
      <trkpt lat="41.725012" lon="2.301893">
        <ele>653.60</ele>
        <time>2021-05-22T06:34:27Z</time>
      </trkpt>
      <trkpt lat="41.725012" lon="2.301893">
        <ele>653.60</ele>
        <time>2021-05-22T06:34:32Z</time>
      </trkpt>
      <trkpt lat="41.725012" lon="2.301893">
        <ele>653.60</ele>
        <time>2021-05-22T06:34:33Z</time>
      </trkpt>
      <trkpt lat="41.725012" lon="2.301893">
        <ele>653.40</ele>
        <time>2021-05-22T06:34:35Z</time>
      </trkpt>
      <trkpt lat="41.725012" lon="2.301893">
        <ele>653.20</ele>
        <time>2021-05-22T06:34:36Z</time>
      </trkpt>
      <trkpt lat="41.725012" lon="2.301893">
        <ele>653.60</ele>
        <time>2021-05-22T06:34:38Z</time>
      </trkpt>
      <trkpt lat="41.725012" lon="2.301893">
        <ele>654.20</ele>
        <time>2021-05-22T06:34:41Z</time>
      </trkpt>
      <trkpt lat="41.725012" lon="2.301893">
        <ele>654.40</ele>
        <time>2021-05-22T06:34:44Z</time>
      </trkpt>
      <trkpt lat="41.725012" lon="2.301893">
        <ele>654.20</ele>
        <time>2021-05-22T06:34:47Z</time>
      </trkpt>
      <trkpt lat="41.725012" lon="2.301893">
        <ele>654.20</ele>
        <time>2021-05-22T06:34:48Z</time>
      </trkpt>
      <trkpt lat="41.725012" lon="2.301893">
        <ele>654.20</ele>
        <time>2021-05-22T06:34:50Z</time>
      </trkpt>
      <trkpt lat="41.725012" lon="2.301893">
        <ele>654.40</ele>
        <time>2021-05-22T06:34:52Z</time>
      </trkpt>
      <trkpt lat="41.725012" lon="2.301893">
        <ele>654.40</ele>
        <time>2021-05-22T06:34:53Z</time>
      </trkpt>
      <trkpt lat="41.725012" lon="2.301893">
        <ele>654.40</ele>
        <time>2021-05-22T06:34:54Z</time>
      </trkpt>
      <trkpt lat="41.725012" lon="2.301893">
        <ele>654.60</ele>
        <time>2021-05-22T06:34:56Z</time>
      </trkpt>
      <trkpt lat="41.725012" lon="2.301893">
        <ele>654.80</ele>
        <time>2021-05-22T06:34:57Z</time>
      </trkpt>
      <trkpt lat="41.725012" lon="2.301893">
        <ele>655.00</ele>
        <time>2021-05-22T06:34:58Z</time>
      </trkpt>
      <trkpt lat="41.725012" lon="2.301893">
        <ele>655.00</ele>
        <time>2021-05-22T06:34:59Z</time>
      </trkpt>
      <trkpt lat="41.725012" lon="2.301893">
        <ele>655.00</ele>
        <time>2021-05-22T06:35:01Z</time>
      </trkpt>
      <trkpt lat="41.725012" lon="2.301893">
        <ele>654.80</ele>
        <time>2021-05-22T06:35:02Z</time>
      </trkpt>
      <trkpt lat="41.725012" lon="2.301893">
        <ele>655.00</ele>
        <time>2021-05-22T06:35:03Z</time>
      </trkpt>
      <trkpt lat="41.725012" lon="2.301893">
        <ele>655.00</ele>
        <time>2021-05-22T06:35:05Z</time>
      </trkpt>
      <trkpt lat="41.725012" lon="2.301893">
        <ele>655.00</ele>
        <time>2021-05-22T06:35:06Z</time>
      </trkpt>
      <trkpt lat="41.725012" lon="2.301893">
        <ele>655.00</ele>
        <time>2021-05-22T06:35:07Z</time>
      </trkpt>
      <trkpt lat="41.725012" lon="2.301893">
        <ele>655.20</ele>
        <time>2021-05-22T06:35:08Z</time>
      </trkpt>
      <trkpt lat="41.725012" lon="2.301893">
        <ele>655.20</ele>
        <time>2021-05-22T06:35:09Z</time>
      </trkpt>
      <trkpt lat="41.725012" lon="2.301893">
        <ele>655.20</ele>
        <time>2021-05-22T06:35:11Z</time>
      </trkpt>
      <trkpt lat="41.725012" lon="2.301893">
        <ele>655.20</ele>
        <time>2021-05-22T06:35:13Z</time>
      </trkpt>
      <trkpt lat="41.725012" lon="2.301893">
        <ele>655.20</ele>
        <time>2021-05-22T06:35:14Z</time>
      </trkpt>
      <trkpt lat="41.725012" lon="2.301893">
        <ele>655.40</ele>
        <time>2021-05-22T06:35:15Z</time>
      </trkpt>
      <trkpt lat="41.725012" lon="2.301893">
        <ele>655.40</ele>
        <time>2021-05-22T06:35:16Z</time>
      </trkpt>
      <trkpt lat="41.725012" lon="2.301893">
        <ele>655.40</ele>
        <time>2021-05-22T06:35:17Z</time>
      </trkpt>
      <trkpt lat="41.725012" lon="2.301893">
        <ele>655.40</ele>
        <time>2021-05-22T06:35:19Z</time>
      </trkpt>
      <trkpt lat="41.725012" lon="2.301893">
        <ele>655.40</ele>
        <time>2021-05-22T06:35:20Z</time>
      </trkpt>
      <trkpt lat="41.725012" lon="2.301893">
        <ele>655.40</ele>
        <time>2021-05-22T06:35:21Z</time>
      </trkpt>
      <trkpt lat="41.725012" lon="2.301893">
        <ele>655.40</ele>
        <time>2021-05-22T06:35:22Z</time>
      </trkpt>
      <trkpt lat="41.725012" lon="2.301893">
        <ele>655.40</ele>
        <time>2021-05-22T06:35:23Z</time>
      </trkpt>
      <trkpt lat="41.725012" lon="2.301893">
        <ele>655.40</ele>
        <time>2021-05-22T06:35:24Z</time>
      </trkpt>
      <trkpt lat="41.725012" lon="2.301893">
        <ele>655.40</ele>
        <time>2021-05-22T06:35:26Z</time>
      </trkpt>
      <trkpt lat="41.725012" lon="2.301893">
        <ele>655.80</ele>
        <time>2021-05-22T06:35:28Z</time>
      </trkpt>
      <trkpt lat="41.725012" lon="2.301893">
        <ele>656.00</ele>
        <time>2021-05-22T06:35:31Z</time>
      </trkpt>
      <trkpt lat="41.725012" lon="2.301893">
        <ele>656.00</ele>
        <time>2021-05-22T06:35:32Z</time>
      </trkpt>
      <trkpt lat="41.725012" lon="2.301893">
        <ele>656.00</ele>
        <time>2021-05-22T06:35:33Z</time>
      </trkpt>
      <trkpt lat="41.725012" lon="2.301893">
        <ele>656.00</ele>
        <time>2021-05-22T06:35:34Z</time>
      </trkpt>
      <trkpt lat="41.725012" lon="2.301893">
        <ele>656.00</ele>
        <time>2021-05-22T06:35:35Z</time>
      </trkpt>
      <trkpt lat="41.725012" lon="2.301893">
        <ele>656.20</ele>
        <time>2021-05-22T06:35:36Z</time>
      </trkpt>
      <trkpt lat="41.725012" lon="2.301893">
        <ele>656.20</ele>
        <time>2021-05-22T06:35:37Z</time>
      </trkpt>
      <trkpt lat="41.725012" lon="2.301893">
        <ele>656.40</ele>
        <time>2021-05-22T06:35:39Z</time>
      </trkpt>
      <trkpt lat="41.725012" lon="2.301893">
        <ele>656.40</ele>
        <time>2021-05-22T06:35:40Z</time>
      </trkpt>
      <trkpt lat="41.725012" lon="2.301893">
        <ele>656.60</ele>
        <time>2021-05-22T06:35:45Z</time>
      </trkpt>
      <trkpt lat="41.725012" lon="2.301893">
        <ele>656.60</ele>
        <time>2021-05-22T06:35:46Z</time>
      </trkpt>
      <trkpt lat="41.725012" lon="2.301893">
        <ele>656.60</ele>
        <time>2021-05-22T06:35:47Z</time>
      </trkpt>
      <trkpt lat="41.725012" lon="2.301893">
        <ele>656.40</ele>
        <time>2021-05-22T06:35:48Z</time>
      </trkpt>
      <trkpt lat="41.725012" lon="2.301893">
        <ele>656.40</ele>
        <time>2021-05-22T06:35:49Z</time>
      </trkpt>
      <trkpt lat="41.725012" lon="2.301893">
        <ele>656.00</ele>
        <time>2021-05-22T06:35:51Z</time>
      </trkpt>
      <trkpt lat="41.725012" lon="2.301893">
        <ele>656.00</ele>
        <time>2021-05-22T06:35:53Z</time>
      </trkpt>
      <trkpt lat="41.725012" lon="2.301893">
        <ele>656.00</ele>
        <time>2021-05-22T06:35:54Z</time>
      </trkpt>
      <trkpt lat="41.725012" lon="2.301893">
        <ele>656.00</ele>
        <time>2021-05-22T06:35:55Z</time>
      </trkpt>
      <trkpt lat="41.725012" lon="2.301893">
        <ele>656.00</ele>
        <time>2021-05-22T06:35:56Z</time>
      </trkpt>
      <trkpt lat="41.725012" lon="2.301893">
        <ele>656.00</ele>
        <time>2021-05-22T06:35:57Z</time>
      </trkpt>
      <trkpt lat="41.725012" lon="2.301893">
        <ele>656.00</ele>
        <time>2021-05-22T06:35:59Z</time>
      </trkpt>
      <trkpt lat="41.725012" lon="2.301893">
        <ele>656.00</ele>
        <time>2021-05-22T06:36:01Z</time>
      </trkpt>
      <trkpt lat="41.725012" lon="2.301893">
        <ele>656.00</ele>
        <time>2021-05-22T06:36:02Z</time>
      </trkpt>
      <trkpt lat="41.725012" lon="2.301893">
        <ele>656.00</ele>
        <time>2021-05-22T06:36:03Z</time>
      </trkpt>
      <trkpt lat="41.725012" lon="2.301893">
        <ele>656.40</ele>
        <time>2021-05-22T06:36:05Z</time>
      </trkpt>
      <trkpt lat="41.725012" lon="2.301893">
        <ele>656.40</ele>
        <time>2021-05-22T06:36:06Z</time>
      </trkpt>
      <trkpt lat="41.725012" lon="2.301893">
        <ele>656.60</ele>
        <time>2021-05-22T06:36:07Z</time>
      </trkpt>
      <trkpt lat="41.725012" lon="2.301893">
        <ele>656.60</ele>
        <time>2021-05-22T06:36:08Z</time>
      </trkpt>
      <trkpt lat="41.725012" lon="2.301893">
        <ele>656.80</ele>
        <time>2021-05-22T06:36:09Z</time>
      </trkpt>
      <trkpt lat="41.725012" lon="2.301893">
        <ele>656.80</ele>
        <time>2021-05-22T06:36:10Z</time>
      </trkpt>
      <trkpt lat="41.725012" lon="2.301893">
        <ele>656.80</ele>
        <time>2021-05-22T06:36:11Z</time>
      </trkpt>
      <trkpt lat="41.725012" lon="2.301893">
        <ele>656.80</ele>
        <time>2021-05-22T06:36:12Z</time>
      </trkpt>
      <trkpt lat="41.725012" lon="2.301893">
        <ele>656.80</ele>
        <time>2021-05-22T06:36:13Z</time>
      </trkpt>
      <trkpt lat="41.725012" lon="2.301893">
        <ele>657.00</ele>
        <time>2021-05-22T06:36:14Z</time>
      </trkpt>
      <trkpt lat="41.725012" lon="2.301893">
        <ele>657.00</ele>
        <time>2021-05-22T06:36:16Z</time>
      </trkpt>
      <trkpt lat="41.725012" lon="2.301893">
        <ele>657.40</ele>
        <time>2021-05-22T06:36:20Z</time>
      </trkpt>
      <trkpt lat="41.725012" lon="2.301893">
        <ele>657.60</ele>
        <time>2021-05-22T06:36:21Z</time>
      </trkpt>
      <trkpt lat="41.725012" lon="2.301893">
        <ele>657.80</ele>
        <time>2021-05-22T06:36:22Z</time>
      </trkpt>
      <trkpt lat="41.725012" lon="2.301893">
        <ele>657.80</ele>
        <time>2021-05-22T06:36:23Z</time>
      </trkpt>
      <trkpt lat="41.724892" lon="2.301286">
        <ele>657.80</ele>
        <time>2021-05-22T06:36:28Z</time>
      </trkpt>
      <trkpt lat="41.724892" lon="2.301286">
        <ele>657.20</ele>
        <time>2021-05-22T06:36:32Z</time>
      </trkpt>
      <trkpt lat="41.724892" lon="2.301286">
        <ele>657.20</ele>
        <time>2021-05-22T06:36:38Z</time>
      </trkpt>
      <trkpt lat="41.724892" lon="2.301286">
        <ele>657.00</ele>
        <time>2021-05-22T06:36:40Z</time>
      </trkpt>
      <trkpt lat="41.724892" lon="2.301286">
        <ele>656.80</ele>
        <time>2021-05-22T06:36:41Z</time>
      </trkpt>
      <trkpt lat="41.724892" lon="2.301286">
        <ele>656.80</ele>
        <time>2021-05-22T06:36:42Z</time>
      </trkpt>
      <trkpt lat="41.724892" lon="2.301286">
        <ele>656.80</ele>
        <time>2021-05-22T06:36:43Z</time>
      </trkpt>
      <trkpt lat="41.724892" lon="2.301286">
        <ele>656.60</ele>
        <time>2021-05-22T06:36:44Z</time>
      </trkpt>
      <trkpt lat="41.724892" lon="2.301286">
        <ele>656.80</ele>
        <time>2021-05-22T06:36:46Z</time>
      </trkpt>
      <trkpt lat="41.724892" lon="2.301286">
        <ele>657.00</ele>
        <time>2021-05-22T06:36:47Z</time>
      </trkpt>
      <trkpt lat="41.724892" lon="2.301286">
        <ele>656.80</ele>
        <time>2021-05-22T06:36:48Z</time>
      </trkpt>
      <trkpt lat="41.724892" lon="2.301286">
        <ele>656.80</ele>
        <time>2021-05-22T06:36:49Z</time>
      </trkpt>
      <trkpt lat="41.724892" lon="2.301286">
        <ele>656.80</ele>
        <time>2021-05-22T06:36:50Z</time>
      </trkpt>
      <trkpt lat="41.724892" lon="2.301286">
        <ele>657.00</ele>
        <time>2021-05-22T06:36:51Z</time>
      </trkpt>
      <trkpt lat="41.724892" lon="2.301286">
        <ele>657.00</ele>
        <time>2021-05-22T06:36:52Z</time>
      </trkpt>
      <trkpt lat="41.724892" lon="2.301286">
        <ele>657.00</ele>
        <time>2021-05-22T06:36:54Z</time>
      </trkpt>
      <trkpt lat="41.724892" lon="2.301286">
        <ele>657.20</ele>
        <time>2021-05-22T06:36:56Z</time>
      </trkpt>
      <trkpt lat="41.724892" lon="2.301286">
        <ele>657.20</ele>
        <time>2021-05-22T06:36:57Z</time>
      </trkpt>
      <trkpt lat="41.724892" lon="2.301286">
        <ele>657.60</ele>
        <time>2021-05-22T06:36:59Z</time>
      </trkpt>
      <trkpt lat="41.724892" lon="2.301286">
        <ele>657.80</ele>
        <time>2021-05-22T06:37:01Z</time>
      </trkpt>
      <trkpt lat="41.724892" lon="2.301286">
        <ele>658.00</ele>
        <time>2021-05-22T06:37:03Z</time>
      </trkpt>
      <trkpt lat="41.724892" lon="2.301286">
        <ele>658.80</ele>
        <time>2021-05-22T06:37:06Z</time>
      </trkpt>
      <trkpt lat="41.724892" lon="2.301286">
        <ele>659.00</ele>
        <time>2021-05-22T06:37:07Z</time>
      </trkpt>
      <trkpt lat="41.724892" lon="2.301286">
        <ele>659.20</ele>
        <time>2021-05-22T06:37:08Z</time>
      </trkpt>
      <trkpt lat="41.724892" lon="2.301286">
        <ele>659.40</ele>
        <time>2021-05-22T06:37:09Z</time>
      </trkpt>
      <trkpt lat="41.724892" lon="2.301286">
        <ele>660.00</ele>
        <time>2021-05-22T06:37:12Z</time>
      </trkpt>
      <trkpt lat="41.724892" lon="2.301286">
        <ele>660.20</ele>
        <time>2021-05-22T06:37:13Z</time>
      </trkpt>
      <trkpt lat="41.724892" lon="2.301286">
        <ele>661.00</ele>
        <time>2021-05-22T06:37:17Z</time>
      </trkpt>
      <trkpt lat="41.724892" lon="2.301286">
        <ele>661.00</ele>
        <time>2021-05-22T06:37:18Z</time>
      </trkpt>
      <trkpt lat="41.724818" lon="2.300986">
        <ele>661.40</ele>
        <time>2021-05-22T06:37:24Z</time>
      </trkpt>
      <trkpt lat="41.724818" lon="2.300986">
        <ele>661.60</ele>
        <time>2021-05-22T06:37:27Z</time>
      </trkpt>
      <trkpt lat="41.724818" lon="2.300986">
        <ele>661.80</ele>
        <time>2021-05-22T06:37:28Z</time>
      </trkpt>
      <trkpt lat="41.724872" lon="2.300956">
        <ele>662.00</ele>
        <time>2021-05-22T06:37:32Z</time>
      </trkpt>
      <trkpt lat="41.724891" lon="2.300932">
        <ele>662.20</ele>
        <time>2021-05-22T06:37:35Z</time>
      </trkpt>
      <trkpt lat="41.724904" lon="2.300931">
        <ele>662.20</ele>
        <time>2021-05-22T06:37:36Z</time>
      </trkpt>
      <trkpt lat="41.724916" lon="2.300925">
        <ele>662.40</ele>
        <time>2021-05-22T06:37:37Z</time>
      </trkpt>
      <trkpt lat="41.724945" lon="2.300911">
        <ele>662.80</ele>
        <time>2021-05-22T06:37:39Z</time>
      </trkpt>
      <trkpt lat="41.724996" lon="2.300882">
        <ele>663.20</ele>
        <time>2021-05-22T06:37:43Z</time>
      </trkpt>
      <trkpt lat="41.725010" lon="2.300875">
        <ele>663.40</ele>
        <time>2021-05-22T06:37:44Z</time>
      </trkpt>
      <trkpt lat="41.725060" lon="2.300853">
        <ele>664.00</ele>
        <time>2021-05-22T06:37:48Z</time>
      </trkpt>
      <trkpt lat="41.725134" lon="2.300860">
        <ele>663.80</ele>
        <time>2021-05-22T06:37:53Z</time>
      </trkpt>
      <trkpt lat="41.725167" lon="2.300863">
        <ele>663.60</ele>
        <time>2021-05-22T06:37:56Z</time>
      </trkpt>
      <trkpt lat="41.725187" lon="2.300886">
        <ele>663.20</ele>
        <time>2021-05-22T06:38:02Z</time>
      </trkpt>
      <trkpt lat="41.725193" lon="2.300891">
        <ele>663.20</ele>
        <time>2021-05-22T06:38:03Z</time>
      </trkpt>
      <trkpt lat="41.725247" lon="2.300897">
        <ele>662.80</ele>
        <time>2021-05-22T06:38:09Z</time>
      </trkpt>
      <trkpt lat="41.725261" lon="2.300921">
        <ele>662.60</ele>
        <time>2021-05-22T06:38:15Z</time>
      </trkpt>
      <trkpt lat="41.725264" lon="2.300937">
        <ele>662.80</ele>
        <time>2021-05-22T06:38:17Z</time>
      </trkpt>
      <trkpt lat="41.725262" lon="2.300939">
        <ele>662.60</ele>
        <time>2021-05-22T06:38:18Z</time>
      </trkpt>
      <trkpt lat="41.725255" lon="2.300942">
        <ele>662.80</ele>
        <time>2021-05-22T06:38:20Z</time>
      </trkpt>
      <trkpt lat="41.725261" lon="2.300927">
        <ele>662.80</ele>
        <time>2021-05-22T06:38:22Z</time>
      </trkpt>
      <trkpt lat="41.725237" lon="2.300884">
        <ele>663.40</ele>
        <time>2021-05-22T06:38:30Z</time>
      </trkpt>
      <trkpt lat="41.725210" lon="2.300802">
        <ele>664.60</ele>
        <time>2021-05-22T06:38:36Z</time>
      </trkpt>
      <trkpt lat="41.725211" lon="2.300797">
        <ele>664.60</ele>
        <time>2021-05-22T06:38:37Z</time>
      </trkpt>
      <trkpt lat="41.725210" lon="2.300796">
        <ele>664.80</ele>
        <time>2021-05-22T06:38:40Z</time>
      </trkpt>
      <trkpt lat="41.725164" lon="2.300808">
        <ele>664.80</ele>
        <time>2021-05-22T06:38:46Z</time>
      </trkpt>
      <trkpt lat="41.725163" lon="2.300814">
        <ele>664.40</ele>
        <time>2021-05-22T06:38:55Z</time>
      </trkpt>
      <trkpt lat="41.725161" lon="2.300794">
        <ele>664.40</ele>
        <time>2021-05-22T06:38:57Z</time>
      </trkpt>
      <trkpt lat="41.725153" lon="2.300770">
        <ele>665.00</ele>
        <time>2021-05-22T06:39:01Z</time>
      </trkpt>
      <trkpt lat="41.725151" lon="2.300770">
        <ele>665.00</ele>
        <time>2021-05-22T06:39:02Z</time>
      </trkpt>
      <trkpt lat="41.725142" lon="2.300741">
        <ele>665.00</ele>
        <time>2021-05-22T06:39:04Z</time>
      </trkpt>
      <trkpt lat="41.725133" lon="2.300725">
        <ele>665.00</ele>
        <time>2021-05-22T06:39:07Z</time>
      </trkpt>
      <trkpt lat="41.725133" lon="2.300720">
        <ele>665.20</ele>
        <time>2021-05-22T06:39:08Z</time>
      </trkpt>
      <trkpt lat="41.725132" lon="2.300723">
        <ele>665.20</ele>
        <time>2021-05-22T06:39:09Z</time>
      </trkpt>
      <trkpt lat="41.725122" lon="2.300710">
        <ele>664.60</ele>
        <time>2021-05-22T06:39:14Z</time>
      </trkpt>
      <trkpt lat="41.725121" lon="2.300690">
        <ele>665.20</ele>
        <time>2021-05-22T06:39:21Z</time>
      </trkpt>
      <trkpt lat="41.725124" lon="2.300634">
        <ele>665.20</ele>
        <time>2021-05-22T06:39:29Z</time>
      </trkpt>
      <trkpt lat="41.725124" lon="2.300634">
        <ele>665.60</ele>
        <time>2021-05-22T06:39:30Z</time>
      </trkpt>
      <trkpt lat="41.725159" lon="2.300608">
        <ele>665.60</ele>
        <time>2021-05-22T06:39:38Z</time>
      </trkpt>
      <trkpt lat="41.725159" lon="2.300593">
        <ele>665.80</ele>
        <time>2021-05-22T06:39:43Z</time>
      </trkpt>
      <trkpt lat="41.725144" lon="2.300575">
        <ele>666.00</ele>
        <time>2021-05-22T06:39:45Z</time>
      </trkpt>
      <trkpt lat="41.725137" lon="2.300563">
        <ele>666.00</ele>
        <time>2021-05-22T06:39:46Z</time>
      </trkpt>
      <trkpt lat="41.725133" lon="2.300555">
        <ele>666.00</ele>
        <time>2021-05-22T06:39:50Z</time>
      </trkpt>
      <trkpt lat="41.725124" lon="2.300511">
        <ele>666.40</ele>
        <time>2021-05-22T06:39:54Z</time>
      </trkpt>
      <trkpt lat="41.725124" lon="2.300511">
        <ele>666.60</ele>
        <time>2021-05-22T06:39:56Z</time>
      </trkpt>
      <trkpt lat="41.725119" lon="2.300473">
        <ele>666.60</ele>
        <time>2021-05-22T06:39:57Z</time>
      </trkpt>
      <trkpt lat="41.725113" lon="2.300461">
        <ele>666.80</ele>
        <time>2021-05-22T06:39:58Z</time>
      </trkpt>
      <trkpt lat="41.725076" lon="2.300397">
        <ele>667.60</ele>
        <time>2021-05-22T06:40:03Z</time>
      </trkpt>
      <trkpt lat="41.725043" lon="2.300348">
        <ele>668.20</ele>
        <time>2021-05-22T06:40:06Z</time>
      </trkpt>
      <trkpt lat="41.725035" lon="2.300222">
        <ele>668.80</ele>
        <time>2021-05-22T06:40:13Z</time>
      </trkpt>
      <trkpt lat="41.725041" lon="2.300194">
        <ele>669.00</ele>
        <time>2021-05-22T06:40:14Z</time>
      </trkpt>
      <trkpt lat="41.725054" lon="2.300151">
        <ele>670.00</ele>
        <time>2021-05-22T06:40:18Z</time>
      </trkpt>
      <trkpt lat="41.725080" lon="2.300084">
        <ele>670.40</ele>
        <time>2021-05-22T06:40:23Z</time>
      </trkpt>
      <trkpt lat="41.725098" lon="2.300017">
        <ele>671.20</ele>
        <time>2021-05-22T06:40:26Z</time>
      </trkpt>
      <trkpt lat="41.725134" lon="2.299955">
        <ele>672.20</ele>
        <time>2021-05-22T06:40:33Z</time>
      </trkpt>
      <trkpt lat="41.725141" lon="2.299952">
        <ele>672.40</ele>
        <time>2021-05-22T06:40:34Z</time>
      </trkpt>
      <trkpt lat="41.725171" lon="2.299922">
        <ele>673.60</ele>
        <time>2021-05-22T06:40:39Z</time>
      </trkpt>
      <trkpt lat="41.725203" lon="2.299890">
        <ele>673.80</ele>
        <time>2021-05-22T06:40:42Z</time>
      </trkpt>
      <trkpt lat="41.725240" lon="2.299865">
        <ele>674.60</ele>
        <time>2021-05-22T06:40:46Z</time>
      </trkpt>
      <trkpt lat="41.725260" lon="2.299838">
        <ele>675.20</ele>
        <time>2021-05-22T06:40:49Z</time>
      </trkpt>
      <trkpt lat="41.725272" lon="2.299825">
        <ele>675.80</ele>
        <time>2021-05-22T06:40:52Z</time>
      </trkpt>
      <trkpt lat="41.725283" lon="2.299810">
        <ele>676.40</ele>
        <time>2021-05-22T06:40:56Z</time>
      </trkpt>
      <trkpt lat="41.725305" lon="2.299800">
        <ele>677.00</ele>
        <time>2021-05-22T06:40:59Z</time>
      </trkpt>
      <trkpt lat="41.725308" lon="2.299794">
        <ele>677.20</ele>
        <time>2021-05-22T06:41:00Z</time>
      </trkpt>
      <trkpt lat="41.725336" lon="2.299754">
        <ele>677.80</ele>
        <time>2021-05-22T06:41:05Z</time>
      </trkpt>
      <trkpt lat="41.725339" lon="2.299743">
        <ele>678.20</ele>
        <time>2021-05-22T06:41:06Z</time>
      </trkpt>
      <trkpt lat="41.725360" lon="2.299721">
        <ele>679.20</ele>
        <time>2021-05-22T06:41:11Z</time>
      </trkpt>
      <trkpt lat="41.725366" lon="2.299713">
        <ele>679.20</ele>
        <time>2021-05-22T06:41:12Z</time>
      </trkpt>
      <trkpt lat="41.725391" lon="2.299704">
        <ele>679.40</ele>
        <time>2021-05-22T06:41:15Z</time>
      </trkpt>
      <trkpt lat="41.725420" lon="2.299680">
        <ele>680.20</ele>
        <time>2021-05-22T06:41:19Z</time>
      </trkpt>
      <trkpt lat="41.725465" lon="2.299674">
        <ele>681.40</ele>
        <time>2021-05-22T06:41:23Z</time>
      </trkpt>
      <trkpt lat="41.725479" lon="2.299676">
        <ele>681.40</ele>
        <time>2021-05-22T06:41:24Z</time>
      </trkpt>
      <trkpt lat="41.725594" lon="2.299692">
        <ele>682.20</ele>
        <time>2021-05-22T06:41:33Z</time>
      </trkpt>
      <trkpt lat="41.725604" lon="2.299697">
        <ele>682.20</ele>
        <time>2021-05-22T06:41:34Z</time>
      </trkpt>
      <trkpt lat="41.725611" lon="2.299707">
        <ele>682.40</ele>
        <time>2021-05-22T06:41:35Z</time>
      </trkpt>
      <trkpt lat="41.725624" lon="2.299729">
        <ele>682.80</ele>
        <time>2021-05-22T06:41:40Z</time>
      </trkpt>
      <trkpt lat="41.725649" lon="2.299736">
        <ele>683.40</ele>
        <time>2021-05-22T06:41:44Z</time>
      </trkpt>
      <trkpt lat="41.725654" lon="2.299738">
        <ele>683.20</ele>
        <time>2021-05-22T06:41:48Z</time>
      </trkpt>
      <trkpt lat="41.725668" lon="2.299761">
        <ele>683.40</ele>
        <time>2021-05-22T06:41:54Z</time>
      </trkpt>
      <trkpt lat="41.725669" lon="2.299762">
        <ele>683.60</ele>
        <time>2021-05-22T06:41:56Z</time>
      </trkpt>
      <trkpt lat="41.725679" lon="2.299791">
        <ele>683.60</ele>
        <time>2021-05-22T06:41:58Z</time>
      </trkpt>
      <trkpt lat="41.725678" lon="2.299807">
        <ele>683.80</ele>
        <time>2021-05-22T06:42:00Z</time>
      </trkpt>
      <trkpt lat="41.725662" lon="2.299818">
        <ele>684.00</ele>
        <time>2021-05-22T06:42:03Z</time>
      </trkpt>
      <trkpt lat="41.725656" lon="2.299817">
        <ele>684.60</ele>
        <time>2021-05-22T06:42:05Z</time>
      </trkpt>
      <trkpt lat="41.725668" lon="2.299796">
        <ele>685.40</ele>
        <time>2021-05-22T06:42:10Z</time>
      </trkpt>
      <trkpt lat="41.725668" lon="2.299800">
        <ele>685.40</ele>
        <time>2021-05-22T06:42:12Z</time>
      </trkpt>
      <trkpt lat="41.725668" lon="2.299804">
        <ele>685.60</ele>
        <time>2021-05-22T06:42:13Z</time>
      </trkpt>
      <trkpt lat="41.725665" lon="2.299810">
        <ele>685.80</ele>
        <time>2021-05-22T06:42:15Z</time>
      </trkpt>
      <trkpt lat="41.725675" lon="2.299815">
        <ele>686.00</ele>
        <time>2021-05-22T06:42:21Z</time>
      </trkpt>
      <trkpt lat="41.725672" lon="2.299808">
        <ele>686.40</ele>
        <time>2021-05-22T06:42:23Z</time>
      </trkpt>
      <trkpt lat="41.725672" lon="2.299808">
        <ele>686.60</ele>
        <time>2021-05-22T06:42:24Z</time>
      </trkpt>
      <trkpt lat="41.725657" lon="2.299819">
        <ele>686.60</ele>
        <time>2021-05-22T06:42:25Z</time>
      </trkpt>
      <trkpt lat="41.725619" lon="2.299843">
        <ele>687.60</ele>
        <time>2021-05-22T06:42:31Z</time>
      </trkpt>
      <trkpt lat="41.725613" lon="2.299844">
        <ele>687.80</ele>
        <time>2021-05-22T06:42:32Z</time>
      </trkpt>
      <trkpt lat="41.725599" lon="2.299842">
        <ele>688.00</ele>
        <time>2021-05-22T06:42:34Z</time>
      </trkpt>
      <trkpt lat="41.725599" lon="2.299892">
        <ele>689.20</ele>
        <time>2021-05-22T06:42:39Z</time>
      </trkpt>
      <trkpt lat="41.725621" lon="2.299913">
        <ele>689.40</ele>
        <time>2021-05-22T06:42:41Z</time>
      </trkpt>
      <trkpt lat="41.725654" lon="2.299950">
        <ele>689.60</ele>
        <time>2021-05-22T06:42:49Z</time>
      </trkpt>
      <trkpt lat="41.725683" lon="2.299970">
        <ele>690.20</ele>
        <time>2021-05-22T06:42:52Z</time>
      </trkpt>
      <trkpt lat="41.725703" lon="2.300006">
        <ele>691.20</ele>
        <time>2021-05-22T06:42:57Z</time>
      </trkpt>
      <trkpt lat="41.725705" lon="2.300009">
        <ele>691.60</ele>
        <time>2021-05-22T06:42:58Z</time>
      </trkpt>
      <trkpt lat="41.725719" lon="2.300017">
        <ele>692.60</ele>
        <time>2021-05-22T06:43:04Z</time>
      </trkpt>
      <trkpt lat="41.725698" lon="2.300019">
        <ele>693.20</ele>
        <time>2021-05-22T06:43:06Z</time>
      </trkpt>
      <trkpt lat="41.725687" lon="2.300034">
        <ele>693.60</ele>
        <time>2021-05-22T06:43:08Z</time>
      </trkpt>
      <trkpt lat="41.725692" lon="2.300073">
        <ele>694.60</ele>
        <time>2021-05-22T06:43:12Z</time>
      </trkpt>
      <trkpt lat="41.725696" lon="2.300078">
        <ele>695.00</ele>
        <time>2021-05-22T06:43:13Z</time>
      </trkpt>
      <trkpt lat="41.725693" lon="2.300085">
        <ele>695.80</ele>
        <time>2021-05-22T06:43:17Z</time>
      </trkpt>
      <trkpt lat="41.725687" lon="2.300074">
        <ele>696.20</ele>
        <time>2021-05-22T06:43:21Z</time>
      </trkpt>
      <trkpt lat="41.725711" lon="2.300061">
        <ele>696.80</ele>
        <time>2021-05-22T06:43:25Z</time>
      </trkpt>
      <trkpt lat="41.725703" lon="2.300069">
        <ele>697.00</ele>
        <time>2021-05-22T06:43:30Z</time>
      </trkpt>
      <trkpt lat="41.725712" lon="2.300075">
        <ele>697.40</ele>
        <time>2021-05-22T06:43:31Z</time>
      </trkpt>
      <trkpt lat="41.725724" lon="2.300102">
        <ele>697.80</ele>
        <time>2021-05-22T06:43:34Z</time>
      </trkpt>
      <trkpt lat="41.725751" lon="2.300133">
        <ele>698.80</ele>
        <time>2021-05-22T06:43:39Z</time>
      </trkpt>
      <trkpt lat="41.725756" lon="2.300141">
        <ele>699.20</ele>
        <time>2021-05-22T06:43:40Z</time>
      </trkpt>
      <trkpt lat="41.725748" lon="2.300169">
        <ele>700.00</ele>
        <time>2021-05-22T06:43:46Z</time>
      </trkpt>
      <trkpt lat="41.725742" lon="2.300196">
        <ele>700.20</ele>
        <time>2021-05-22T06:43:49Z</time>
      </trkpt>
      <trkpt lat="41.725742" lon="2.300196">
        <ele>700.80</ele>
        <time>2021-05-22T06:43:52Z</time>
      </trkpt>
      <trkpt lat="41.725750" lon="2.300217">
        <ele>701.20</ele>
        <time>2021-05-22T06:43:53Z</time>
      </trkpt>
      <trkpt lat="41.725751" lon="2.300226">
        <ele>701.40</ele>
        <time>2021-05-22T06:43:54Z</time>
      </trkpt>
      <trkpt lat="41.725758" lon="2.300270">
        <ele>702.80</ele>
        <time>2021-05-22T06:44:00Z</time>
      </trkpt>
      <trkpt lat="41.725791" lon="2.300315">
        <ele>703.80</ele>
        <time>2021-05-22T06:44:04Z</time>
      </trkpt>
      <trkpt lat="41.725831" lon="2.300369">
        <ele>704.20</ele>
        <time>2021-05-22T06:44:08Z</time>
      </trkpt>
      <trkpt lat="41.725852" lon="2.300397">
        <ele>704.40</ele>
        <time>2021-05-22T06:44:10Z</time>
      </trkpt>
      <trkpt lat="41.725865" lon="2.300450">
        <ele>704.40</ele>
        <time>2021-05-22T06:44:15Z</time>
      </trkpt>
      <trkpt lat="41.725884" lon="2.300491">
        <ele>704.20</ele>
        <time>2021-05-22T06:44:19Z</time>
      </trkpt>
      <trkpt lat="41.725897" lon="2.300517">
        <ele>704.20</ele>
        <time>2021-05-22T06:44:23Z</time>
      </trkpt>
      <trkpt lat="41.725942" lon="2.300520">
        <ele>704.80</ele>
        <time>2021-05-22T06:44:29Z</time>
      </trkpt>
      <trkpt lat="41.725941" lon="2.300512">
        <ele>704.80</ele>
        <time>2021-05-22T06:44:32Z</time>
      </trkpt>
      <trkpt lat="41.725949" lon="2.300514">
        <ele>704.60</ele>
        <time>2021-05-22T06:44:39Z</time>
      </trkpt>
      <trkpt lat="41.725946" lon="2.300529">
        <ele>704.60</ele>
        <time>2021-05-22T06:44:40Z</time>
      </trkpt>
      <trkpt lat="41.725943" lon="2.300575">
        <ele>704.80</ele>
        <time>2021-05-22T06:44:48Z</time>
      </trkpt>
      <trkpt lat="41.725944" lon="2.300580">
        <ele>704.60</ele>
        <time>2021-05-22T06:44:54Z</time>
      </trkpt>
      <trkpt lat="41.725976" lon="2.300585">
        <ele>704.40</ele>
        <time>2021-05-22T06:45:01Z</time>
      </trkpt>
      <trkpt lat="41.725969" lon="2.300599">
        <ele>704.40</ele>
        <time>2021-05-22T06:45:02Z</time>
      </trkpt>
      <trkpt lat="41.725952" lon="2.300625">
        <ele>704.40</ele>
        <time>2021-05-22T06:45:04Z</time>
      </trkpt>
      <trkpt lat="41.725943" lon="2.300640">
        <ele>704.80</ele>
        <time>2021-05-22T06:45:05Z</time>
      </trkpt>
      <trkpt lat="41.725919" lon="2.300674">
        <ele>705.60</ele>
        <time>2021-05-22T06:45:08Z</time>
      </trkpt>
      <trkpt lat="41.725905" lon="2.300685">
        <ele>705.80</ele>
        <time>2021-05-22T06:45:10Z</time>
      </trkpt>
      <trkpt lat="41.725895" lon="2.300693">
        <ele>706.00</ele>
        <time>2021-05-22T06:45:11Z</time>
      </trkpt>
      <trkpt lat="41.725861" lon="2.300715">
        <ele>706.80</ele>
        <time>2021-05-22T06:45:18Z</time>
      </trkpt>
      <trkpt lat="41.725861" lon="2.300715">
        <ele>706.60</ele>
        <time>2021-05-22T06:45:21Z</time>
      </trkpt>
      <trkpt lat="41.725859" lon="2.300756">
        <ele>706.40</ele>
        <time>2021-05-22T06:45:22Z</time>
      </trkpt>
      <trkpt lat="41.725868" lon="2.300799">
        <ele>705.60</ele>
        <time>2021-05-22T06:45:24Z</time>
      </trkpt>
      <trkpt lat="41.725900" lon="2.300883">
        <ele>704.40</ele>
        <time>2021-05-22T06:45:27Z</time>
      </trkpt>
      <trkpt lat="41.725961" lon="2.300979">
        <ele>703.80</ele>
        <time>2021-05-22T06:45:30Z</time>
      </trkpt>
      <trkpt lat="41.726048" lon="2.301161">
        <ele>704.40</ele>
        <time>2021-05-22T06:45:37Z</time>
      </trkpt>
      <trkpt lat="41.726104" lon="2.301251">
        <ele>704.80</ele>
        <time>2021-05-22T06:45:41Z</time>
      </trkpt>
      <trkpt lat="41.726127" lon="2.301316">
        <ele>704.80</ele>
        <time>2021-05-22T06:45:43Z</time>
      </trkpt>
      <trkpt lat="41.726145" lon="2.301422">
        <ele>705.20</ele>
        <time>2021-05-22T06:45:49Z</time>
      </trkpt>
      <trkpt lat="41.726160" lon="2.301458">
        <ele>705.40</ele>
        <time>2021-05-22T06:45:51Z</time>
      </trkpt>
      <trkpt lat="41.726168" lon="2.301547">
        <ele>706.40</ele>
        <time>2021-05-22T06:45:57Z</time>
      </trkpt>
      <trkpt lat="41.726170" lon="2.301572">
        <ele>707.00</ele>
        <time>2021-05-22T06:45:59Z</time>
      </trkpt>
      <trkpt lat="41.726178" lon="2.301595">
        <ele>707.60</ele>
        <time>2021-05-22T06:46:01Z</time>
      </trkpt>
      <trkpt lat="41.726204" lon="2.301663">
        <ele>708.00</ele>
        <time>2021-05-22T06:46:05Z</time>
      </trkpt>
      <trkpt lat="41.726196" lon="2.301691">
        <ele>708.00</ele>
        <time>2021-05-22T06:46:06Z</time>
      </trkpt>
      <trkpt lat="41.726209" lon="2.301746">
        <ele>708.20</ele>
        <time>2021-05-22T06:46:08Z</time>
      </trkpt>
      <trkpt lat="41.726250" lon="2.301788">
        <ele>708.60</ele>
        <time>2021-05-22T06:46:11Z</time>
      </trkpt>
      <trkpt lat="41.726275" lon="2.301818">
        <ele>709.00</ele>
        <time>2021-05-22T06:46:13Z</time>
      </trkpt>
      <trkpt lat="41.726334" lon="2.301873">
        <ele>709.80</ele>
        <time>2021-05-22T06:46:18Z</time>
      </trkpt>
      <trkpt lat="41.726348" lon="2.301903">
        <ele>710.20</ele>
        <time>2021-05-22T06:46:22Z</time>
      </trkpt>
      <trkpt lat="41.726311" lon="2.301897">
        <ele>710.40</ele>
        <time>2021-05-22T06:46:29Z</time>
      </trkpt>
      <trkpt lat="41.726275" lon="2.301894">
        <ele>710.20</ele>
        <time>2021-05-22T06:46:38Z</time>
      </trkpt>
      <trkpt lat="41.726288" lon="2.301882">
        <ele>710.80</ele>
        <time>2021-05-22T06:46:43Z</time>
      </trkpt>
      <trkpt lat="41.726282" lon="2.301885">
        <ele>710.80</ele>
        <time>2021-05-22T06:46:44Z</time>
      </trkpt>
      <trkpt lat="41.726278" lon="2.301893">
        <ele>710.80</ele>
        <time>2021-05-22T06:46:46Z</time>
      </trkpt>
      <trkpt lat="41.726266" lon="2.301931">
        <ele>711.60</ele>
        <time>2021-05-22T06:46:55Z</time>
      </trkpt>
      <trkpt lat="41.726245" lon="2.301942">
        <ele>712.00</ele>
        <time>2021-05-22T06:46:57Z</time>
      </trkpt>
      <trkpt lat="41.726260" lon="2.301958">
        <ele>712.60</ele>
        <time>2021-05-22T06:47:03Z</time>
      </trkpt>
      <trkpt lat="41.726261" lon="2.301958">
        <ele>712.60</ele>
        <time>2021-05-22T06:47:04Z</time>
      </trkpt>
      <trkpt lat="41.726293" lon="2.301901">
        <ele>711.20</ele>
        <time>2021-05-22T06:47:11Z</time>
      </trkpt>
      <trkpt lat="41.726295" lon="2.301903">
        <ele>710.80</ele>
        <time>2021-05-22T06:47:12Z</time>
      </trkpt>
      <trkpt lat="41.726300" lon="2.301903">
        <ele>710.60</ele>
        <time>2021-05-22T06:47:15Z</time>
      </trkpt>
      <trkpt lat="41.726305" lon="2.301909">
        <ele>711.00</ele>
        <time>2021-05-22T06:47:18Z</time>
      </trkpt>
      <trkpt lat="41.726311" lon="2.301942">
        <ele>711.40</ele>
        <time>2021-05-22T06:47:21Z</time>
      </trkpt>
      <trkpt lat="41.726318" lon="2.301949">
        <ele>712.20</ele>
        <time>2021-05-22T06:47:23Z</time>
      </trkpt>
      <trkpt lat="41.726318" lon="2.301949">
        <ele>712.40</ele>
        <time>2021-05-22T06:47:24Z</time>
      </trkpt>
      <trkpt lat="41.726322" lon="2.301988">
        <ele>713.00</ele>
        <time>2021-05-22T06:47:27Z</time>
      </trkpt>
      <trkpt lat="41.726325" lon="2.302001">
        <ele>713.20</ele>
        <time>2021-05-22T06:47:28Z</time>
      </trkpt>
      <trkpt lat="41.726320" lon="2.302034">
        <ele>714.40</ele>
        <time>2021-05-22T06:47:32Z</time>
      </trkpt>
      <trkpt lat="41.726315" lon="2.302043">
        <ele>714.80</ele>
        <time>2021-05-22T06:47:36Z</time>
      </trkpt>
      <trkpt lat="41.726313" lon="2.302038">
        <ele>715.20</ele>
        <time>2021-05-22T06:47:41Z</time>
      </trkpt>
      <trkpt lat="41.726310" lon="2.302053">
        <ele>715.40</ele>
        <time>2021-05-22T06:47:44Z</time>
      </trkpt>
      <trkpt lat="41.726306" lon="2.302055">
        <ele>715.60</ele>
        <time>2021-05-22T06:47:45Z</time>
      </trkpt>
      <trkpt lat="41.726318" lon="2.302067">
        <ele>716.40</ele>
        <time>2021-05-22T06:47:53Z</time>
      </trkpt>
      <trkpt lat="41.726318" lon="2.302076">
        <ele>716.60</ele>
        <time>2021-05-22T06:47:55Z</time>
      </trkpt>
      <trkpt lat="41.726321" lon="2.302112">
        <ele>717.60</ele>
        <time>2021-05-22T06:48:01Z</time>
      </trkpt>
      <trkpt lat="41.726337" lon="2.302139">
        <ele>718.20</ele>
        <time>2021-05-22T06:48:03Z</time>
      </trkpt>
      <trkpt lat="41.726344" lon="2.302149">
        <ele>718.80</ele>
        <time>2021-05-22T06:48:04Z</time>
      </trkpt>
      <trkpt lat="41.726362" lon="2.302174">
        <ele>719.20</ele>
        <time>2021-05-22T06:48:08Z</time>
      </trkpt>
      <trkpt lat="41.726373" lon="2.302188">
        <ele>719.80</ele>
        <time>2021-05-22T06:48:11Z</time>
      </trkpt>
      <trkpt lat="41.726386" lon="2.302221">
        <ele>720.40</ele>
        <time>2021-05-22T06:48:17Z</time>
      </trkpt>
      <trkpt lat="41.726384" lon="2.302223">
        <ele>720.60</ele>
        <time>2021-05-22T06:48:27Z</time>
      </trkpt>
      <trkpt lat="41.726387" lon="2.302244">
        <ele>720.80</ele>
        <time>2021-05-22T06:48:30Z</time>
      </trkpt>
      <trkpt lat="41.726419" lon="2.302293">
        <ele>722.00</ele>
        <time>2021-05-22T06:48:36Z</time>
      </trkpt>
      <trkpt lat="41.726435" lon="2.302309">
        <ele>722.40</ele>
        <time>2021-05-22T06:48:38Z</time>
      </trkpt>
      <trkpt lat="41.726465" lon="2.302348">
        <ele>723.20</ele>
        <time>2021-05-22T06:48:42Z</time>
      </trkpt>
      <trkpt lat="41.726474" lon="2.302354">
        <ele>723.60</ele>
        <time>2021-05-22T06:48:44Z</time>
      </trkpt>
      <trkpt lat="41.726486" lon="2.302365">
        <ele>724.40</ele>
        <time>2021-05-22T06:48:48Z</time>
      </trkpt>
      <trkpt lat="41.726497" lon="2.302380">
        <ele>724.80</ele>
        <time>2021-05-22T06:48:52Z</time>
      </trkpt>
      <trkpt lat="41.726505" lon="2.302397">
        <ele>725.40</ele>
        <time>2021-05-22T06:48:55Z</time>
      </trkpt>
      <trkpt lat="41.726511" lon="2.302407">
        <ele>726.20</ele>
        <time>2021-05-22T06:49:00Z</time>
      </trkpt>
      <trkpt lat="41.726500" lon="2.302401">
        <ele>726.40</ele>
        <time>2021-05-22T06:49:08Z</time>
      </trkpt>
      <trkpt lat="41.726500" lon="2.302399">
        <ele>726.40</ele>
        <time>2021-05-22T06:49:09Z</time>
      </trkpt>
      <trkpt lat="41.726520" lon="2.302441">
        <ele>727.00</ele>
        <time>2021-05-22T06:49:16Z</time>
      </trkpt>
      <trkpt lat="41.726533" lon="2.302464">
        <ele>727.60</ele>
        <time>2021-05-22T06:49:19Z</time>
      </trkpt>
      <trkpt lat="41.726558" lon="2.302502">
        <ele>728.60</ele>
        <time>2021-05-22T06:49:24Z</time>
      </trkpt>
      <trkpt lat="41.726565" lon="2.302503">
        <ele>729.20</ele>
        <time>2021-05-22T06:49:26Z</time>
      </trkpt>
      <trkpt lat="41.726586" lon="2.302539">
        <ele>730.00</ele>
        <time>2021-05-22T06:49:33Z</time>
      </trkpt>
      <trkpt lat="41.726586" lon="2.302578">
        <ele>731.00</ele>
        <time>2021-05-22T06:49:38Z</time>
      </trkpt>
      <trkpt lat="41.726585" lon="2.302585">
        <ele>731.40</ele>
        <time>2021-05-22T06:49:40Z</time>
      </trkpt>
      <trkpt lat="41.726604" lon="2.302619">
        <ele>732.20</ele>
        <time>2021-05-22T06:49:45Z</time>
      </trkpt>
      <trkpt lat="41.726609" lon="2.302628">
        <ele>732.40</ele>
        <time>2021-05-22T06:49:46Z</time>
      </trkpt>
      <trkpt lat="41.726607" lon="2.302630">
        <ele>731.80</ele>
        <time>2021-05-22T06:49:56Z</time>
      </trkpt>
      <trkpt lat="41.726592" lon="2.302599">
        <ele>731.20</ele>
        <time>2021-05-22T06:50:01Z</time>
      </trkpt>
      <trkpt lat="41.726595" lon="2.302582">
        <ele>730.60</ele>
        <time>2021-05-22T06:50:04Z</time>
      </trkpt>
      <trkpt lat="41.726612" lon="2.302563">
        <ele>730.20</ele>
        <time>2021-05-22T06:50:08Z</time>
      </trkpt>
      <trkpt lat="41.726602" lon="2.302552">
        <ele>730.00</ele>
        <time>2021-05-22T06:50:10Z</time>
      </trkpt>
      <trkpt lat="41.726594" lon="2.302537">
        <ele>729.60</ele>
        <time>2021-05-22T06:50:14Z</time>
      </trkpt>
      <trkpt lat="41.726566" lon="2.302516">
        <ele>729.40</ele>
        <time>2021-05-22T06:50:21Z</time>
      </trkpt>
      <trkpt lat="41.726554" lon="2.302527">
        <ele>729.00</ele>
        <time>2021-05-22T06:50:26Z</time>
      </trkpt>
      <trkpt lat="41.726555" lon="2.302536">
        <ele>728.80</ele>
        <time>2021-05-22T06:50:28Z</time>
      </trkpt>
      <trkpt lat="41.726579" lon="2.302556">
        <ele>728.60</ele>
        <time>2021-05-22T06:50:34Z</time>
      </trkpt>
      <trkpt lat="41.726582" lon="2.302561">
        <ele>728.60</ele>
        <time>2021-05-22T06:50:35Z</time>
      </trkpt>
      <trkpt lat="41.726598" lon="2.302545">
        <ele>730.00</ele>
        <time>2021-05-22T06:50:40Z</time>
      </trkpt>
      <trkpt lat="41.726601" lon="2.302541">
        <ele>730.20</ele>
        <time>2021-05-22T06:50:43Z</time>
      </trkpt>
      <trkpt lat="41.726599" lon="2.302546">
        <ele>729.80</ele>
        <time>2021-05-22T06:50:51Z</time>
      </trkpt>
      <trkpt lat="41.726627" lon="2.302544">
        <ele>729.80</ele>
        <time>2021-05-22T06:50:59Z</time>
      </trkpt>
      <trkpt lat="41.726638" lon="2.302541">
        <ele>730.00</ele>
        <time>2021-05-22T06:51:06Z</time>
      </trkpt>
      <trkpt lat="41.726649" lon="2.302538">
        <ele>729.60</ele>
        <time>2021-05-22T06:51:13Z</time>
      </trkpt>
      <trkpt lat="41.726650" lon="2.302574">
        <ele>730.60</ele>
        <time>2021-05-22T06:51:20Z</time>
      </trkpt>
      <trkpt lat="41.726651" lon="2.302584">
        <ele>730.80</ele>
        <time>2021-05-22T06:51:21Z</time>
      </trkpt>
      <trkpt lat="41.726651" lon="2.302584">
        <ele>730.80</ele>
        <time>2021-05-22T06:51:22Z</time>
      </trkpt>
      <trkpt lat="41.726651" lon="2.302584">
        <ele>731.20</ele>
        <time>2021-05-22T06:51:23Z</time>
      </trkpt>
      <trkpt lat="41.726653" lon="2.302593">
        <ele>731.60</ele>
        <time>2021-05-22T06:51:27Z</time>
      </trkpt>
      <trkpt lat="41.726651" lon="2.302574">
        <ele>731.60</ele>
        <time>2021-05-22T06:51:30Z</time>
      </trkpt>
      <trkpt lat="41.726647" lon="2.302553">
        <ele>731.20</ele>
        <time>2021-05-22T06:51:32Z</time>
      </trkpt>
      <trkpt lat="41.726643" lon="2.302527">
        <ele>730.00</ele>
        <time>2021-05-22T06:51:35Z</time>
      </trkpt>
      <trkpt lat="41.726647" lon="2.302527">
        <ele>729.60</ele>
        <time>2021-05-22T06:51:36Z</time>
      </trkpt>
      <trkpt lat="41.726639" lon="2.302545">
        <ele>729.40</ele>
        <time>2021-05-22T06:51:44Z</time>
      </trkpt>
      <trkpt lat="41.726650" lon="2.302571">
        <ele>730.80</ele>
        <time>2021-05-22T06:51:49Z</time>
      </trkpt>
      <trkpt lat="41.726648" lon="2.302573">
        <ele>731.00</ele>
        <time>2021-05-22T06:51:50Z</time>
      </trkpt>
      <trkpt lat="41.726647" lon="2.302576">
        <ele>731.40</ele>
        <time>2021-05-22T06:51:51Z</time>
      </trkpt>
      <trkpt lat="41.726647" lon="2.302576">
        <ele>732.00</ele>
        <time>2021-05-22T06:51:54Z</time>
      </trkpt>
      <trkpt lat="41.726638" lon="2.302582">
        <ele>732.00</ele>
        <time>2021-05-22T06:51:58Z</time>
      </trkpt>
      <trkpt lat="41.726643" lon="2.302588">
        <ele>732.20</ele>
        <time>2021-05-22T06:51:59Z</time>
      </trkpt>
      <trkpt lat="41.726648" lon="2.302623">
        <ele>732.80</ele>
        <time>2021-05-22T06:52:05Z</time>
      </trkpt>
      <trkpt lat="41.726640" lon="2.302640">
        <ele>733.20</ele>
        <time>2021-05-22T06:52:07Z</time>
      </trkpt>
      <trkpt lat="41.726609" lon="2.302677">
        <ele>734.20</ele>
        <time>2021-05-22T06:52:13Z</time>
      </trkpt>
      <trkpt lat="41.726599" lon="2.302691">
        <ele>734.40</ele>
        <time>2021-05-22T06:52:15Z</time>
      </trkpt>
      <trkpt lat="41.726591" lon="2.302708">
        <ele>735.40</ele>
        <time>2021-05-22T06:52:19Z</time>
      </trkpt>
      <trkpt lat="41.726606" lon="2.302768">
        <ele>736.60</ele>
        <time>2021-05-22T06:52:26Z</time>
      </trkpt>
      <trkpt lat="41.726615" lon="2.302798">
        <ele>737.60</ele>
        <time>2021-05-22T06:52:30Z</time>
      </trkpt>
      <trkpt lat="41.726636" lon="2.302832">
        <ele>738.60</ele>
        <time>2021-05-22T06:52:34Z</time>
      </trkpt>
      <trkpt lat="41.726663" lon="2.302868">
        <ele>739.60</ele>
        <time>2021-05-22T06:52:39Z</time>
      </trkpt>
      <trkpt lat="41.726672" lon="2.302882">
        <ele>740.60</ele>
        <time>2021-05-22T06:52:42Z</time>
      </trkpt>
      <trkpt lat="41.726676" lon="2.302886">
        <ele>740.80</ele>
        <time>2021-05-22T06:52:43Z</time>
      </trkpt>
      <trkpt lat="41.726674" lon="2.302894">
        <ele>741.60</ele>
        <time>2021-05-22T06:52:51Z</time>
      </trkpt>
      <trkpt lat="41.726675" lon="2.302894">
        <ele>741.60</ele>
        <time>2021-05-22T06:52:55Z</time>
      </trkpt>
      <trkpt lat="41.726680" lon="2.302893">
        <ele>741.60</ele>
        <time>2021-05-22T06:52:58Z</time>
      </trkpt>
      <trkpt lat="41.726685" lon="2.302901">
        <ele>741.80</ele>
        <time>2021-05-22T06:53:02Z</time>
      </trkpt>
      <trkpt lat="41.726687" lon="2.302902">
        <ele>741.80</ele>
        <time>2021-05-22T06:53:03Z</time>
      </trkpt>
      <trkpt lat="41.726686" lon="2.302916">
        <ele>742.00</ele>
        <time>2021-05-22T06:53:07Z</time>
      </trkpt>
      <trkpt lat="41.726711" lon="2.302941">
        <ele>742.20</ele>
        <time>2021-05-22T06:53:17Z</time>
      </trkpt>
      <trkpt lat="41.726727" lon="2.302957">
        <ele>742.60</ele>
        <time>2021-05-22T06:53:19Z</time>
      </trkpt>
      <trkpt lat="41.726734" lon="2.302963">
        <ele>742.80</ele>
        <time>2021-05-22T06:53:20Z</time>
      </trkpt>
      <trkpt lat="41.726737" lon="2.302988">
        <ele>743.80</ele>
        <time>2021-05-22T06:53:25Z</time>
      </trkpt>
      <trkpt lat="41.726737" lon="2.302988">
        <ele>744.20</ele>
        <time>2021-05-22T06:53:28Z</time>
      </trkpt>
      <trkpt lat="41.726743" lon="2.303017">
        <ele>745.00</ele>
        <time>2021-05-22T06:53:31Z</time>
      </trkpt>
      <trkpt lat="41.726744" lon="2.303023">
        <ele>745.40</ele>
        <time>2021-05-22T06:53:32Z</time>
      </trkpt>
      <trkpt lat="41.726741" lon="2.303065">
        <ele>746.00</ele>
        <time>2021-05-22T06:53:36Z</time>
      </trkpt>
      <trkpt lat="41.726747" lon="2.303114">
        <ele>747.20</ele>
        <time>2021-05-22T06:53:42Z</time>
      </trkpt>
      <trkpt lat="41.726732" lon="2.303136">
        <ele>747.80</ele>
        <time>2021-05-22T06:53:45Z</time>
      </trkpt>
      <trkpt lat="41.726738" lon="2.303158">
        <ele>748.20</ele>
        <time>2021-05-22T06:53:47Z</time>
      </trkpt>
      <trkpt lat="41.726749" lon="2.303202">
        <ele>749.00</ele>
        <time>2021-05-22T06:53:51Z</time>
      </trkpt>
      <trkpt lat="41.726759" lon="2.303237">
        <ele>749.40</ele>
        <time>2021-05-22T06:53:54Z</time>
      </trkpt>
      <trkpt lat="41.726769" lon="2.303279">
        <ele>750.60</ele>
        <time>2021-05-22T06:53:58Z</time>
      </trkpt>
      <trkpt lat="41.726772" lon="2.303290">
        <ele>750.80</ele>
        <time>2021-05-22T06:53:59Z</time>
      </trkpt>
      <trkpt lat="41.726796" lon="2.303364">
        <ele>751.80</ele>
        <time>2021-05-22T06:54:07Z</time>
      </trkpt>
      <trkpt lat="41.726806" lon="2.303430">
        <ele>752.80</ele>
        <time>2021-05-22T06:54:14Z</time>
      </trkpt>
      <trkpt lat="41.726816" lon="2.303468">
        <ele>753.40</ele>
        <time>2021-05-22T06:54:17Z</time>
      </trkpt>
      <trkpt lat="41.726823" lon="2.303493">
        <ele>754.00</ele>
        <time>2021-05-22T06:54:21Z</time>
      </trkpt>
      <trkpt lat="41.726840" lon="2.303513">
        <ele>754.20</ele>
        <time>2021-05-22T06:54:25Z</time>
      </trkpt>
      <trkpt lat="41.726873" lon="2.303521">
        <ele>754.60</ele>
        <time>2021-05-22T06:54:37Z</time>
      </trkpt>
      <trkpt lat="41.726915" lon="2.303554">
        <ele>754.60</ele>
        <time>2021-05-22T06:54:42Z</time>
      </trkpt>
      <trkpt lat="41.726886" lon="2.303564">
        <ele>754.80</ele>
        <time>2021-05-22T06:54:46Z</time>
      </trkpt>
      <trkpt lat="41.726921" lon="2.303650">
        <ele>755.00</ele>
        <time>2021-05-22T06:54:58Z</time>
      </trkpt>
      <trkpt lat="41.726924" lon="2.303656">
        <ele>755.20</ele>
        <time>2021-05-22T06:54:59Z</time>
      </trkpt>
      <trkpt lat="41.726953" lon="2.303732">
        <ele>756.00</ele>
        <time>2021-05-22T06:55:05Z</time>
      </trkpt>
      <trkpt lat="41.726957" lon="2.303742">
        <ele>756.20</ele>
        <time>2021-05-22T06:55:06Z</time>
      </trkpt>
      <trkpt lat="41.726964" lon="2.303752">
        <ele>756.80</ele>
        <time>2021-05-22T06:55:10Z</time>
      </trkpt>
      <trkpt lat="41.726982" lon="2.303788">
        <ele>757.40</ele>
        <time>2021-05-22T06:55:15Z</time>
      </trkpt>
      <trkpt lat="41.727000" lon="2.303833">
        <ele>758.20</ele>
        <time>2021-05-22T06:55:20Z</time>
      </trkpt>
      <trkpt lat="41.727001" lon="2.303840">
        <ele>758.20</ele>
        <time>2021-05-22T06:55:21Z</time>
      </trkpt>
      <trkpt lat="41.727000" lon="2.303876">
        <ele>758.40</ele>
        <time>2021-05-22T06:55:29Z</time>
      </trkpt>
      <trkpt lat="41.727006" lon="2.303900">
        <ele>758.60</ele>
        <time>2021-05-22T06:55:32Z</time>
      </trkpt>
      <trkpt lat="41.727018" lon="2.303915">
        <ele>759.20</ele>
        <time>2021-05-22T06:55:35Z</time>
      </trkpt>
      <trkpt lat="41.727035" lon="2.303925">
        <ele>759.80</ele>
        <time>2021-05-22T06:55:37Z</time>
      </trkpt>
      <trkpt lat="41.727044" lon="2.303935">
        <ele>760.40</ele>
        <time>2021-05-22T06:55:39Z</time>
      </trkpt>
      <trkpt lat="41.727052" lon="2.303958">
        <ele>761.00</ele>
        <time>2021-05-22T06:55:41Z</time>
      </trkpt>
      <trkpt lat="41.727082" lon="2.304013">
        <ele>762.20</ele>
        <time>2021-05-22T06:55:47Z</time>
      </trkpt>
      <trkpt lat="41.727108" lon="2.304069">
        <ele>763.20</ele>
        <time>2021-05-22T06:55:58Z</time>
      </trkpt>
      <trkpt lat="41.727111" lon="2.304070">
        <ele>763.40</ele>
        <time>2021-05-22T06:55:59Z</time>
      </trkpt>
      <trkpt lat="41.727130" lon="2.304049">
        <ele>763.40</ele>
        <time>2021-05-22T06:56:09Z</time>
      </trkpt>
      <trkpt lat="41.727129" lon="2.304035">
        <ele>763.00</ele>
        <time>2021-05-22T06:56:12Z</time>
      </trkpt>
      <trkpt lat="41.727100" lon="2.304008">
        <ele>762.40</ele>
        <time>2021-05-22T06:56:28Z</time>
      </trkpt>
      <trkpt lat="41.727103" lon="2.304001">
        <ele>762.20</ele>
        <time>2021-05-22T06:56:32Z</time>
      </trkpt>
      <trkpt lat="41.727111" lon="2.303996">
        <ele>762.20</ele>
        <time>2021-05-22T06:56:40Z</time>
      </trkpt>
      <trkpt lat="41.727093" lon="2.304011">
        <ele>762.60</ele>
        <time>2021-05-22T06:56:44Z</time>
      </trkpt>
      <trkpt lat="41.727118" lon="2.304050">
        <ele>763.40</ele>
        <time>2021-05-22T06:56:55Z</time>
      </trkpt>
      <trkpt lat="41.727124" lon="2.304049">
        <ele>763.80</ele>
        <time>2021-05-22T06:56:56Z</time>
      </trkpt>
      <trkpt lat="41.727128" lon="2.304064">
        <ele>764.40</ele>
        <time>2021-05-22T06:56:58Z</time>
      </trkpt>
      <trkpt lat="41.727148" lon="2.304102">
        <ele>765.40</ele>
        <time>2021-05-22T06:57:02Z</time>
      </trkpt>
      <trkpt lat="41.727148" lon="2.304102">
        <ele>765.60</ele>
        <time>2021-05-22T06:57:03Z</time>
      </trkpt>
      <trkpt lat="41.727149" lon="2.304117">
        <ele>765.60</ele>
        <time>2021-05-22T06:57:04Z</time>
      </trkpt>
      <trkpt lat="41.727153" lon="2.304125">
        <ele>765.80</ele>
        <time>2021-05-22T06:57:05Z</time>
      </trkpt>
      <trkpt lat="41.727145" lon="2.304156">
        <ele>766.20</ele>
        <time>2021-05-22T06:57:09Z</time>
      </trkpt>
      <trkpt lat="41.727173" lon="2.304194">
        <ele>766.60</ele>
        <time>2021-05-22T06:57:21Z</time>
      </trkpt>
      <trkpt lat="41.727173" lon="2.304194">
        <ele>766.60</ele>
        <time>2021-05-22T06:57:22Z</time>
      </trkpt>
      <trkpt lat="41.727191" lon="2.304216">
        <ele>767.60</ele>
        <time>2021-05-22T06:57:28Z</time>
      </trkpt>
      <trkpt lat="41.727200" lon="2.304207">
        <ele>767.40</ele>
        <time>2021-05-22T06:57:34Z</time>
      </trkpt>
      <trkpt lat="41.727201" lon="2.304205">
        <ele>767.40</ele>
        <time>2021-05-22T06:57:35Z</time>
      </trkpt>
      <trkpt lat="41.727222" lon="2.304238">
        <ele>768.20</ele>
        <time>2021-05-22T06:57:46Z</time>
      </trkpt>
      <trkpt lat="41.727225" lon="2.304277">
        <ele>769.00</ele>
        <time>2021-05-22T06:57:49Z</time>
      </trkpt>
      <trkpt lat="41.727227" lon="2.304291">
        <ele>769.20</ele>
        <time>2021-05-22T06:57:50Z</time>
      </trkpt>
      <trkpt lat="41.727215" lon="2.304325">
        <ele>770.20</ele>
        <time>2021-05-22T06:57:54Z</time>
      </trkpt>
      <trkpt lat="41.727199" lon="2.304373">
        <ele>771.40</ele>
        <time>2021-05-22T06:57:59Z</time>
      </trkpt>
      <trkpt lat="41.727191" lon="2.304416">
        <ele>772.40</ele>
        <time>2021-05-22T06:58:03Z</time>
      </trkpt>
      <trkpt lat="41.727188" lon="2.304425">
        <ele>772.80</ele>
        <time>2021-05-22T06:58:04Z</time>
      </trkpt>
      <trkpt lat="41.727183" lon="2.304447">
        <ele>773.40</ele>
        <time>2021-05-22T06:58:07Z</time>
      </trkpt>
      <trkpt lat="41.727186" lon="2.304483">
        <ele>774.00</ele>
        <time>2021-05-22T06:58:11Z</time>
      </trkpt>
      <trkpt lat="41.727188" lon="2.304490">
        <ele>774.40</ele>
        <time>2021-05-22T06:58:13Z</time>
      </trkpt>
      <trkpt lat="41.727198" lon="2.304508">
        <ele>775.00</ele>
        <time>2021-05-22T06:58:18Z</time>
      </trkpt>
      <trkpt lat="41.727204" lon="2.304488">
        <ele>775.80</ele>
        <time>2021-05-22T06:58:22Z</time>
      </trkpt>
      <trkpt lat="41.727204" lon="2.304488">
        <ele>776.20</ele>
        <time>2021-05-22T06:58:24Z</time>
      </trkpt>
      <trkpt lat="41.727225" lon="2.304464">
        <ele>776.80</ele>
        <time>2021-05-22T06:58:26Z</time>
      </trkpt>
      <trkpt lat="41.727232" lon="2.304464">
        <ele>777.40</ele>
        <time>2021-05-22T06:58:28Z</time>
      </trkpt>
      <trkpt lat="41.727238" lon="2.304456">
        <ele>777.60</ele>
        <time>2021-05-22T06:58:33Z</time>
      </trkpt>
      <trkpt lat="41.727243" lon="2.304464">
        <ele>777.80</ele>
        <time>2021-05-22T06:58:35Z</time>
      </trkpt>
      <trkpt lat="41.727252" lon="2.304496">
        <ele>779.00</ele>
        <time>2021-05-22T06:58:40Z</time>
      </trkpt>
      <trkpt lat="41.727274" lon="2.304541">
        <ele>780.20</ele>
        <time>2021-05-22T06:58:48Z</time>
      </trkpt>
      <trkpt lat="41.727301" lon="2.304546">
        <ele>781.60</ele>
        <time>2021-05-22T06:58:52Z</time>
      </trkpt>
      <trkpt lat="41.727308" lon="2.304541">
        <ele>781.80</ele>
        <time>2021-05-22T06:58:53Z</time>
      </trkpt>
      <trkpt lat="41.727351" lon="2.304534">
        <ele>782.60</ele>
        <time>2021-05-22T06:59:00Z</time>
      </trkpt>
      <trkpt lat="41.727390" lon="2.304537">
        <ele>783.60</ele>
        <time>2021-05-22T06:59:06Z</time>
      </trkpt>
      <trkpt lat="41.727390" lon="2.304537">
        <ele>783.60</ele>
        <time>2021-05-22T06:59:07Z</time>
      </trkpt>
      <trkpt lat="41.727393" lon="2.304540">
        <ele>784.20</ele>
        <time>2021-05-22T06:59:10Z</time>
      </trkpt>
      <trkpt lat="41.727359" lon="2.304530">
        <ele>784.00</ele>
        <time>2021-05-22T06:59:16Z</time>
      </trkpt>
      <trkpt lat="41.727335" lon="2.304546">
        <ele>783.60</ele>
        <time>2021-05-22T06:59:31Z</time>
      </trkpt>
      <trkpt lat="41.727296" lon="2.304547">
        <ele>782.80</ele>
        <time>2021-05-22T06:59:45Z</time>
      </trkpt>
      <trkpt lat="41.727303" lon="2.304552">
        <ele>782.60</ele>
        <time>2021-05-22T06:59:47Z</time>
      </trkpt>
      <trkpt lat="41.727320" lon="2.304552">
        <ele>781.40</ele>
        <time>2021-05-22T06:59:55Z</time>
      </trkpt>
      <trkpt lat="41.727320" lon="2.304552">
        <ele>781.20</ele>
        <time>2021-05-22T06:59:57Z</time>
      </trkpt>
      <trkpt lat="41.727331" lon="2.304549">
        <ele>781.40</ele>
        <time>2021-05-22T06:59:59Z</time>
      </trkpt>
      <trkpt lat="41.727374" lon="2.304553">
        <ele>781.60</ele>
        <time>2021-05-22T07:00:10Z</time>
      </trkpt>
      <trkpt lat="41.727371" lon="2.304554">
        <ele>781.60</ele>
        <time>2021-05-22T07:00:11Z</time>
      </trkpt>
      <trkpt lat="41.727371" lon="2.304557">
        <ele>781.80</ele>
        <time>2021-05-22T07:00:12Z</time>
      </trkpt>
      <trkpt lat="41.727348" lon="2.304573">
        <ele>782.20</ele>
        <time>2021-05-22T07:00:20Z</time>
      </trkpt>
      <trkpt lat="41.727342" lon="2.304569">
        <ele>782.20</ele>
        <time>2021-05-22T07:00:22Z</time>
      </trkpt>
      <trkpt lat="41.727342" lon="2.304558">
        <ele>782.20</ele>
        <time>2021-05-22T07:00:24Z</time>
      </trkpt>
      <trkpt lat="41.727349" lon="2.304550">
        <ele>782.00</ele>
        <time>2021-05-22T07:00:38Z</time>
      </trkpt>
      <trkpt lat="41.727363" lon="2.304547">
        <ele>782.40</ele>
        <time>2021-05-22T07:00:41Z</time>
      </trkpt>
      <trkpt lat="41.727404" lon="2.304569">
        <ele>783.40</ele>
        <time>2021-05-22T07:00:48Z</time>
      </trkpt>
      <trkpt lat="41.727436" lon="2.304578">
        <ele>784.00</ele>
        <time>2021-05-22T07:00:52Z</time>
      </trkpt>
      <trkpt lat="41.727443" lon="2.304585">
        <ele>784.40</ele>
        <time>2021-05-22T07:00:53Z</time>
      </trkpt>
      <trkpt lat="41.727499" lon="2.304612">
        <ele>785.60</ele>
        <time>2021-05-22T07:00:59Z</time>
      </trkpt>
      <trkpt lat="41.727527" lon="2.304635">
        <ele>786.40</ele>
        <time>2021-05-22T07:01:06Z</time>
      </trkpt>
      <trkpt lat="41.727538" lon="2.304644">
        <ele>786.60</ele>
        <time>2021-05-22T07:01:08Z</time>
      </trkpt>
      <trkpt lat="41.727529" lon="2.304650">
        <ele>787.60</ele>
        <time>2021-05-22T07:01:16Z</time>
      </trkpt>
      <trkpt lat="41.727533" lon="2.304655">
        <ele>787.80</ele>
        <time>2021-05-22T07:01:17Z</time>
      </trkpt>
      <trkpt lat="41.727541" lon="2.304661">
        <ele>788.00</ele>
        <time>2021-05-22T07:01:20Z</time>
      </trkpt>
      <trkpt lat="41.727540" lon="2.304666">
        <ele>788.00</ele>
        <time>2021-05-22T07:01:22Z</time>
      </trkpt>
      <trkpt lat="41.727539" lon="2.304668">
        <ele>788.00</ele>
        <time>2021-05-22T07:01:23Z</time>
      </trkpt>
      <trkpt lat="41.727549" lon="2.304684">
        <ele>788.40</ele>
        <time>2021-05-22T07:01:28Z</time>
      </trkpt>
      <trkpt lat="41.727556" lon="2.304729">
        <ele>788.80</ele>
        <time>2021-05-22T07:01:33Z</time>
      </trkpt>
      <trkpt lat="41.727555" lon="2.304732">
        <ele>789.20</ele>
        <time>2021-05-22T07:01:34Z</time>
      </trkpt>
      <trkpt lat="41.727557" lon="2.304747">
        <ele>790.00</ele>
        <time>2021-05-22T07:01:38Z</time>
      </trkpt>
      <trkpt lat="41.727573" lon="2.304764">
        <ele>791.00</ele>
        <time>2021-05-22T07:01:45Z</time>
      </trkpt>
      <trkpt lat="41.727581" lon="2.304768">
        <ele>791.40</ele>
        <time>2021-05-22T07:01:47Z</time>
      </trkpt>
      <trkpt lat="41.727590" lon="2.304763">
        <ele>791.80</ele>
        <time>2021-05-22T07:01:50Z</time>
      </trkpt>
      <trkpt lat="41.727596" lon="2.304764">
        <ele>792.00</ele>
        <time>2021-05-22T07:01:51Z</time>
      </trkpt>
      <trkpt lat="41.727630" lon="2.304770">
        <ele>793.20</ele>
        <time>2021-05-22T07:01:56Z</time>
      </trkpt>
      <trkpt lat="41.727649" lon="2.304781">
        <ele>793.80</ele>
        <time>2021-05-22T07:02:00Z</time>
      </trkpt>
      <trkpt lat="41.727662" lon="2.304786">
        <ele>794.40</ele>
        <time>2021-05-22T07:02:03Z</time>
      </trkpt>
      <trkpt lat="41.727649" lon="2.304814">
        <ele>795.00</ele>
        <time>2021-05-22T07:02:09Z</time>
      </trkpt>
      <trkpt lat="41.727679" lon="2.304812">
        <ele>795.40</ele>
        <time>2021-05-22T07:02:17Z</time>
      </trkpt>
      <trkpt lat="41.727701" lon="2.304817">
        <ele>795.80</ele>
        <time>2021-05-22T07:02:20Z</time>
      </trkpt>
      <trkpt lat="41.727732" lon="2.304817">
        <ele>796.20</ele>
        <time>2021-05-22T07:02:23Z</time>
      </trkpt>
      <trkpt lat="41.727739" lon="2.304818">
        <ele>796.40</ele>
        <time>2021-05-22T07:02:24Z</time>
      </trkpt>
      <trkpt lat="41.727742" lon="2.304829">
        <ele>797.40</ele>
        <time>2021-05-22T07:02:29Z</time>
      </trkpt>
      <trkpt lat="41.727728" lon="2.304827">
        <ele>797.40</ele>
        <time>2021-05-22T07:02:31Z</time>
      </trkpt>
      <trkpt lat="41.727683" lon="2.304830">
        <ele>796.20</ele>
        <time>2021-05-22T07:02:39Z</time>
      </trkpt>
      <trkpt lat="41.727695" lon="2.304821">
        <ele>796.00</ele>
        <time>2021-05-22T07:02:44Z</time>
      </trkpt>
      <trkpt lat="41.727716" lon="2.304834">
        <ele>797.20</ele>
        <time>2021-05-22T07:02:49Z</time>
      </trkpt>
      <trkpt lat="41.727739" lon="2.304837">
        <ele>797.60</ele>
        <time>2021-05-22T07:02:52Z</time>
      </trkpt>
      <trkpt lat="41.727769" lon="2.304848">
        <ele>798.60</ele>
        <time>2021-05-22T07:03:00Z</time>
      </trkpt>
      <trkpt lat="41.727771" lon="2.304851">
        <ele>799.00</ele>
        <time>2021-05-22T07:03:01Z</time>
      </trkpt>
      <trkpt lat="41.727785" lon="2.304865">
        <ele>800.00</ele>
        <time>2021-05-22T07:03:07Z</time>
      </trkpt>
      <trkpt lat="41.727769" lon="2.304882">
        <ele>801.20</ele>
        <time>2021-05-22T07:03:12Z</time>
      </trkpt>
      <trkpt lat="41.727769" lon="2.304884">
        <ele>801.40</ele>
        <time>2021-05-22T07:03:13Z</time>
      </trkpt>
      <trkpt lat="41.727779" lon="2.304903">
        <ele>801.40</ele>
        <time>2021-05-22T07:03:19Z</time>
      </trkpt>
      <trkpt lat="41.727779" lon="2.304909">
        <ele>801.80</ele>
        <time>2021-05-22T07:03:20Z</time>
      </trkpt>
      <trkpt lat="41.727794" lon="2.304926">
        <ele>802.40</ele>
        <time>2021-05-22T07:03:24Z</time>
      </trkpt>
      <trkpt lat="41.727803" lon="2.304941">
        <ele>803.00</ele>
        <time>2021-05-22T07:03:27Z</time>
      </trkpt>
      <trkpt lat="41.727775" lon="2.304906">
        <ele>801.40</ele>
        <time>2021-05-22T07:03:37Z</time>
      </trkpt>
      <trkpt lat="41.727775" lon="2.304901">
        <ele>801.20</ele>
        <time>2021-05-22T07:03:38Z</time>
      </trkpt>
      <trkpt lat="41.727779" lon="2.304884">
        <ele>801.20</ele>
        <time>2021-05-22T07:03:48Z</time>
      </trkpt>
      <trkpt lat="41.727779" lon="2.304883">
        <ele>800.80</ele>
        <time>2021-05-22T07:03:54Z</time>
      </trkpt>
      <trkpt lat="41.727780" lon="2.304880">
        <ele>800.80</ele>
        <time>2021-05-22T07:03:55Z</time>
      </trkpt>
      <trkpt lat="41.727780" lon="2.304875">
        <ele>800.80</ele>
        <time>2021-05-22T07:03:58Z</time>
      </trkpt>
      <trkpt lat="41.727780" lon="2.304876">
        <ele>801.00</ele>
        <time>2021-05-22T07:04:01Z</time>
      </trkpt>
      <trkpt lat="41.727787" lon="2.304884">
        <ele>801.00</ele>
        <time>2021-05-22T07:04:07Z</time>
      </trkpt>
      <trkpt lat="41.727814" lon="2.304921">
        <ele>802.40</ele>
        <time>2021-05-22T07:04:12Z</time>
      </trkpt>
      <trkpt lat="41.727828" lon="2.304949">
        <ele>803.40</ele>
        <time>2021-05-22T07:04:15Z</time>
      </trkpt>
      <trkpt lat="41.727860" lon="2.304987">
        <ele>804.60</ele>
        <time>2021-05-22T07:04:22Z</time>
      </trkpt>
      <trkpt lat="41.727865" lon="2.304997">
        <ele>804.60</ele>
        <time>2021-05-22T07:04:25Z</time>
      </trkpt>
      <trkpt lat="41.727876" lon="2.305017">
        <ele>804.80</ele>
        <time>2021-05-22T07:04:28Z</time>
      </trkpt>
      <trkpt lat="41.727907" lon="2.305067">
        <ele>805.40</ele>
        <time>2021-05-22T07:04:36Z</time>
      </trkpt>
      <trkpt lat="41.727914" lon="2.305071">
        <ele>805.60</ele>
        <time>2021-05-22T07:04:38Z</time>
      </trkpt>
      <trkpt lat="41.727914" lon="2.305071">
        <ele>805.60</ele>
        <time>2021-05-22T07:04:39Z</time>
      </trkpt>
      <trkpt lat="41.727914" lon="2.305071">
        <ele>805.80</ele>
        <time>2021-05-22T07:04:40Z</time>
      </trkpt>
      <trkpt lat="41.727921" lon="2.305149">
        <ele>806.00</ele>
        <time>2021-05-22T07:04:50Z</time>
      </trkpt>
      <trkpt lat="41.727923" lon="2.305233">
        <ele>806.20</ele>
        <time>2021-05-22T07:05:02Z</time>
      </trkpt>
      <trkpt lat="41.727898" lon="2.305242">
        <ele>806.40</ele>
        <time>2021-05-22T07:05:15Z</time>
      </trkpt>
      <trkpt lat="41.727927" lon="2.305275">
        <ele>805.80</ele>
        <time>2021-05-22T07:05:26Z</time>
      </trkpt>
      <trkpt lat="41.727958" lon="2.305284">
        <ele>806.60</ele>
        <time>2021-05-22T07:05:36Z</time>
      </trkpt>
      <trkpt lat="41.727962" lon="2.305277">
        <ele>806.40</ele>
        <time>2021-05-22T07:05:41Z</time>
      </trkpt>
      <trkpt lat="41.727938" lon="2.305241">
        <ele>806.20</ele>
        <time>2021-05-22T07:05:53Z</time>
      </trkpt>
      <trkpt lat="41.727970" lon="2.305267">
        <ele>806.20</ele>
        <time>2021-05-22T07:06:07Z</time>
      </trkpt>
      <trkpt lat="41.727963" lon="2.305283">
        <ele>806.00</ele>
        <time>2021-05-22T07:06:12Z</time>
      </trkpt>
      <trkpt lat="41.727962" lon="2.305317">
        <ele>806.60</ele>
        <time>2021-05-22T07:06:16Z</time>
      </trkpt>
      <trkpt lat="41.727964" lon="2.305322">
        <ele>806.80</ele>
        <time>2021-05-22T07:06:17Z</time>
      </trkpt>
      <trkpt lat="41.728000" lon="2.305336">
        <ele>807.80</ele>
        <time>2021-05-22T07:06:22Z</time>
      </trkpt>
      <trkpt lat="41.728000" lon="2.305336">
        <ele>808.80</ele>
        <time>2021-05-22T07:06:29Z</time>
      </trkpt>
      <trkpt lat="41.728019" lon="2.305346">
        <ele>809.00</ele>
        <time>2021-05-22T07:06:30Z</time>
      </trkpt>
      <trkpt lat="41.728024" lon="2.305356">
        <ele>809.20</ele>
        <time>2021-05-22T07:06:34Z</time>
      </trkpt>
      <trkpt lat="41.728037" lon="2.305347">
        <ele>809.40</ele>
        <time>2021-05-22T07:06:41Z</time>
      </trkpt>
      <trkpt lat="41.728048" lon="2.305342">
        <ele>809.40</ele>
        <time>2021-05-22T07:06:44Z</time>
      </trkpt>
      <trkpt lat="41.728065" lon="2.305371">
        <ele>810.00</ele>
        <time>2021-05-22T07:06:55Z</time>
      </trkpt>
      <trkpt lat="41.728068" lon="2.305377">
        <ele>810.20</ele>
        <time>2021-05-22T07:06:56Z</time>
      </trkpt>
      <trkpt lat="41.728088" lon="2.305407">
        <ele>811.00</ele>
        <time>2021-05-22T07:07:02Z</time>
      </trkpt>
      <trkpt lat="41.728105" lon="2.305437">
        <ele>812.20</ele>
        <time>2021-05-22T07:07:07Z</time>
      </trkpt>
      <trkpt lat="41.728106" lon="2.305467">
        <ele>812.40</ele>
        <time>2021-05-22T07:07:10Z</time>
      </trkpt>
      <trkpt lat="41.728108" lon="2.305516">
        <ele>813.20</ele>
        <time>2021-05-22T07:07:16Z</time>
      </trkpt>
      <trkpt lat="41.728105" lon="2.305535">
        <ele>814.00</ele>
        <time>2021-05-22T07:07:23Z</time>
      </trkpt>
      <trkpt lat="41.728089" lon="2.305511">
        <ele>813.20</ele>
        <time>2021-05-22T07:07:37Z</time>
      </trkpt>
      <trkpt lat="41.728090" lon="2.305535">
        <ele>813.20</ele>
        <time>2021-05-22T07:07:44Z</time>
      </trkpt>
      <trkpt lat="41.728090" lon="2.305535">
        <ele>813.60</ele>
        <time>2021-05-22T07:07:45Z</time>
      </trkpt>
      <trkpt lat="41.728097" lon="2.305548">
        <ele>814.00</ele>
        <time>2021-05-22T07:07:47Z</time>
      </trkpt>
      <trkpt lat="41.728098" lon="2.305545">
        <ele>814.00</ele>
        <time>2021-05-22T07:07:49Z</time>
      </trkpt>
      <trkpt lat="41.728100" lon="2.305541">
        <ele>813.60</ele>
        <time>2021-05-22T07:07:51Z</time>
      </trkpt>
      <trkpt lat="41.728080" lon="2.305493">
        <ele>812.00</ele>
        <time>2021-05-22T07:08:03Z</time>
      </trkpt>
      <trkpt lat="41.728076" lon="2.305492">
        <ele>811.80</ele>
        <time>2021-05-22T07:08:04Z</time>
      </trkpt>
      <trkpt lat="41.728072" lon="2.305519">
        <ele>811.80</ele>
        <time>2021-05-22T07:08:17Z</time>
      </trkpt>
      <trkpt lat="41.728060" lon="2.305506">
        <ele>812.00</ele>
        <time>2021-05-22T07:08:20Z</time>
      </trkpt>
      <trkpt lat="41.728073" lon="2.305513">
        <ele>812.40</ele>
        <time>2021-05-22T07:08:34Z</time>
      </trkpt>
      <trkpt lat="41.728074" lon="2.305507">
        <ele>812.20</ele>
        <time>2021-05-22T07:08:37Z</time>
      </trkpt>
      <trkpt lat="41.728075" lon="2.305502">
        <ele>811.00</ele>
        <time>2021-05-22T07:08:41Z</time>
      </trkpt>
      <trkpt lat="41.728075" lon="2.305504">
        <ele>811.20</ele>
        <time>2021-05-22T07:08:46Z</time>
      </trkpt>
      <trkpt lat="41.728087" lon="2.305508">
        <ele>811.80</ele>
        <time>2021-05-22T07:08:53Z</time>
      </trkpt>
      <trkpt lat="41.728094" lon="2.305514">
        <ele>811.80</ele>
        <time>2021-05-22T07:08:55Z</time>
      </trkpt>
      <trkpt lat="41.728101" lon="2.305518">
        <ele>812.80</ele>
        <time>2021-05-22T07:08:58Z</time>
      </trkpt>
      <trkpt lat="41.728099" lon="2.305517">
        <ele>812.80</ele>
        <time>2021-05-22T07:08:59Z</time>
      </trkpt>
      <trkpt lat="41.728108" lon="2.305518">
        <ele>812.80</ele>
        <time>2021-05-22T07:09:02Z</time>
      </trkpt>
      <trkpt lat="41.728116" lon="2.305570">
        <ele>812.40</ele>
        <time>2021-05-22T07:09:09Z</time>
      </trkpt>
      <trkpt lat="41.728104" lon="2.305611">
        <ele>813.40</ele>
        <time>2021-05-22T07:09:14Z</time>
      </trkpt>
      <trkpt lat="41.728108" lon="2.305631">
        <ele>813.60</ele>
        <time>2021-05-22T07:09:16Z</time>
      </trkpt>
      <trkpt lat="41.728090" lon="2.305680">
        <ele>814.40</ele>
        <time>2021-05-22T07:09:21Z</time>
      </trkpt>
      <trkpt lat="41.728086" lon="2.305717">
        <ele>815.00</ele>
        <time>2021-05-22T07:09:24Z</time>
      </trkpt>
      <trkpt lat="41.728092" lon="2.305737">
        <ele>815.60</ele>
        <time>2021-05-22T07:09:27Z</time>
      </trkpt>
      <trkpt lat="41.728092" lon="2.305745">
        <ele>816.00</ele>
        <time>2021-05-22T07:09:29Z</time>
      </trkpt>
      <trkpt lat="41.728093" lon="2.305755">
        <ele>816.20</ele>
        <time>2021-05-22T07:09:30Z</time>
      </trkpt>
      <trkpt lat="41.728090" lon="2.305775">
        <ele>816.60</ele>
        <time>2021-05-22T07:09:32Z</time>
      </trkpt>
      <trkpt lat="41.728085" lon="2.305785">
        <ele>817.00</ele>
        <time>2021-05-22T07:09:35Z</time>
      </trkpt>
      <trkpt lat="41.728083" lon="2.305794">
        <ele>817.40</ele>
        <time>2021-05-22T07:09:37Z</time>
      </trkpt>
      <trkpt lat="41.728079" lon="2.305799">
        <ele>817.60</ele>
        <time>2021-05-22T07:09:40Z</time>
      </trkpt>
      <trkpt lat="41.728073" lon="2.305801">
        <ele>817.80</ele>
        <time>2021-05-22T07:09:42Z</time>
      </trkpt>
      <trkpt lat="41.728073" lon="2.305801">
        <ele>818.00</ele>
        <time>2021-05-22T07:09:45Z</time>
      </trkpt>
      <trkpt lat="41.728052" lon="2.305811">
        <ele>818.40</ele>
        <time>2021-05-22T07:09:51Z</time>
      </trkpt>
      <trkpt lat="41.728044" lon="2.305810">
        <ele>818.60</ele>
        <time>2021-05-22T07:09:56Z</time>
      </trkpt>
      <trkpt lat="41.728049" lon="2.305811">
        <ele>817.80</ele>
        <time>2021-05-22T07:10:06Z</time>
      </trkpt>
      <trkpt lat="41.728048" lon="2.305812">
        <ele>818.20</ele>
        <time>2021-05-22T07:10:07Z</time>
      </trkpt>
      <trkpt lat="41.728053" lon="2.305805">
        <ele>818.40</ele>
        <time>2021-05-22T07:10:08Z</time>
      </trkpt>
      <trkpt lat="41.728063" lon="2.305815">
        <ele>819.20</ele>
        <time>2021-05-22T07:10:15Z</time>
      </trkpt>
      <trkpt lat="41.728069" lon="2.305858">
        <ele>819.80</ele>
        <time>2021-05-22T07:10:21Z</time>
      </trkpt>
      <trkpt lat="41.728069" lon="2.305862">
        <ele>820.20</ele>
        <time>2021-05-22T07:10:22Z</time>
      </trkpt>
      <trkpt lat="41.728074" lon="2.305889">
        <ele>821.00</ele>
        <time>2021-05-22T07:10:25Z</time>
      </trkpt>
      <trkpt lat="41.728084" lon="2.305906">
        <ele>822.00</ele>
        <time>2021-05-22T07:10:30Z</time>
      </trkpt>
      <trkpt lat="41.728092" lon="2.305937">
        <ele>822.80</ele>
        <time>2021-05-22T07:10:35Z</time>
      </trkpt>
      <trkpt lat="41.728093" lon="2.305942">
        <ele>823.00</ele>
        <time>2021-05-22T07:10:36Z</time>
      </trkpt>
      <trkpt lat="41.728087" lon="2.305993">
        <ele>824.00</ele>
        <time>2021-05-22T07:10:46Z</time>
      </trkpt>
      <trkpt lat="41.728096" lon="2.306011">
        <ele>824.20</ele>
        <time>2021-05-22T07:10:48Z</time>
      </trkpt>
      <trkpt lat="41.728106" lon="2.306027">
        <ele>825.00</ele>
        <time>2021-05-22T07:10:52Z</time>
      </trkpt>
      <trkpt lat="41.728107" lon="2.306030">
        <ele>825.20</ele>
        <time>2021-05-22T07:10:53Z</time>
      </trkpt>
      <trkpt lat="41.728106" lon="2.306047">
        <ele>826.60</ele>
        <time>2021-05-22T07:10:57Z</time>
      </trkpt>
      <trkpt lat="41.728105" lon="2.306075">
        <ele>827.80</ele>
        <time>2021-05-22T07:11:02Z</time>
      </trkpt>
      <trkpt lat="41.728111" lon="2.306086">
        <ele>828.20</ele>
        <time>2021-05-22T07:11:10Z</time>
      </trkpt>
      <trkpt lat="41.728122" lon="2.306077">
        <ele>827.60</ele>
        <time>2021-05-22T07:11:17Z</time>
      </trkpt>
      <trkpt lat="41.728128" lon="2.306061">
        <ele>826.60</ele>
        <time>2021-05-22T07:11:23Z</time>
      </trkpt>
      <trkpt lat="41.728119" lon="2.306048">
        <ele>825.60</ele>
        <time>2021-05-22T07:11:29Z</time>
      </trkpt>
      <trkpt lat="41.728115" lon="2.306052">
        <ele>824.80</ele>
        <time>2021-05-22T07:11:33Z</time>
      </trkpt>
      <trkpt lat="41.728099" lon="2.306016">
        <ele>824.40</ele>
        <time>2021-05-22T07:11:38Z</time>
      </trkpt>
      <trkpt lat="41.728096" lon="2.306004">
        <ele>824.40</ele>
        <time>2021-05-22T07:11:44Z</time>
      </trkpt>
      <trkpt lat="41.728108" lon="2.306036">
        <ele>824.20</ele>
        <time>2021-05-22T07:11:55Z</time>
      </trkpt>
      <trkpt lat="41.728108" lon="2.306040">
        <ele>824.40</ele>
        <time>2021-05-22T07:11:56Z</time>
      </trkpt>
      <trkpt lat="41.728113" lon="2.306055">
        <ele>825.00</ele>
        <time>2021-05-22T07:11:58Z</time>
      </trkpt>
      <trkpt lat="41.728115" lon="2.306072">
        <ele>825.60</ele>
        <time>2021-05-22T07:12:00Z</time>
      </trkpt>
      <trkpt lat="41.728116" lon="2.306099">
        <ele>826.80</ele>
        <time>2021-05-22T07:12:06Z</time>
      </trkpt>
      <trkpt lat="41.728116" lon="2.306099">
        <ele>827.00</ele>
        <time>2021-05-22T07:12:08Z</time>
      </trkpt>
      <trkpt lat="41.728134" lon="2.306119">
        <ele>827.80</ele>
        <time>2021-05-22T07:12:22Z</time>
      </trkpt>
      <trkpt lat="41.728139" lon="2.306124">
        <ele>828.00</ele>
        <time>2021-05-22T07:12:23Z</time>
      </trkpt>
      <trkpt lat="41.728154" lon="2.306159">
        <ele>829.00</ele>
        <time>2021-05-22T07:12:28Z</time>
      </trkpt>
      <trkpt lat="41.728149" lon="2.306185">
        <ele>829.80</ele>
        <time>2021-05-22T07:12:31Z</time>
      </trkpt>
      <trkpt lat="41.728149" lon="2.306202">
        <ele>830.20</ele>
        <time>2021-05-22T07:12:33Z</time>
      </trkpt>
      <trkpt lat="41.728155" lon="2.306209">
        <ele>830.80</ele>
        <time>2021-05-22T07:12:35Z</time>
      </trkpt>
      <trkpt lat="41.728154" lon="2.306218">
        <ele>830.80</ele>
        <time>2021-05-22T07:12:42Z</time>
      </trkpt>
      <trkpt lat="41.728169" lon="2.306263">
        <ele>831.00</ele>
        <time>2021-05-22T07:12:55Z</time>
      </trkpt>
      <trkpt lat="41.728168" lon="2.306283">
        <ele>831.20</ele>
        <time>2021-05-22T07:13:00Z</time>
      </trkpt>
      <trkpt lat="41.728153" lon="2.306289">
        <ele>831.20</ele>
        <time>2021-05-22T07:13:03Z</time>
      </trkpt>
      <trkpt lat="41.728137" lon="2.306281">
        <ele>831.60</ele>
        <time>2021-05-22T07:13:07Z</time>
      </trkpt>
      <trkpt lat="41.728127" lon="2.306273">
        <ele>831.20</ele>
        <time>2021-05-22T07:13:13Z</time>
      </trkpt>
      <trkpt lat="41.728091" lon="2.306303">
        <ele>832.20</ele>
        <time>2021-05-22T07:13:21Z</time>
      </trkpt>
      <trkpt lat="41.728058" lon="2.306311">
        <ele>832.40</ele>
        <time>2021-05-22T07:13:32Z</time>
      </trkpt>
      <trkpt lat="41.728055" lon="2.306316">
        <ele>832.60</ele>
        <time>2021-05-22T07:13:36Z</time>
      </trkpt>
      <trkpt lat="41.728052" lon="2.306345">
        <ele>833.60</ele>
        <time>2021-05-22T07:13:41Z</time>
      </trkpt>
      <trkpt lat="41.728052" lon="2.306355">
        <ele>833.80</ele>
        <time>2021-05-22T07:13:43Z</time>
      </trkpt>
      <trkpt lat="41.728050" lon="2.306366">
        <ele>834.40</ele>
        <time>2021-05-22T07:13:45Z</time>
      </trkpt>
      <trkpt lat="41.728051" lon="2.306373">
        <ele>834.80</ele>
        <time>2021-05-22T07:13:46Z</time>
      </trkpt>
      <trkpt lat="41.728050" lon="2.306416">
        <ele>835.60</ele>
        <time>2021-05-22T07:13:52Z</time>
      </trkpt>
      <trkpt lat="41.728049" lon="2.306415">
        <ele>835.80</ele>
        <time>2021-05-22T07:13:55Z</time>
      </trkpt>
      <trkpt lat="41.728034" lon="2.306464">
        <ele>836.60</ele>
        <time>2021-05-22T07:14:04Z</time>
      </trkpt>
      <trkpt lat="41.728034" lon="2.306464">
        <ele>836.80</ele>
        <time>2021-05-22T07:14:05Z</time>
      </trkpt>
      <trkpt lat="41.728043" lon="2.306476">
        <ele>837.40</ele>
        <time>2021-05-22T07:14:08Z</time>
      </trkpt>
      <trkpt lat="41.728033" lon="2.306485">
        <ele>837.80</ele>
        <time>2021-05-22T07:14:13Z</time>
      </trkpt>
      <trkpt lat="41.728027" lon="2.306482">
        <ele>838.20</ele>
        <time>2021-05-22T07:14:16Z</time>
      </trkpt>
      <trkpt lat="41.728027" lon="2.306482">
        <ele>838.40</ele>
        <time>2021-05-22T07:14:17Z</time>
      </trkpt>
      <trkpt lat="41.728020" lon="2.306498">
        <ele>839.00</ele>
        <time>2021-05-22T07:14:21Z</time>
      </trkpt>
      <trkpt lat="41.728029" lon="2.306528">
        <ele>840.00</ele>
        <time>2021-05-22T07:14:27Z</time>
      </trkpt>
      <trkpt lat="41.728034" lon="2.306535">
        <ele>840.40</ele>
        <time>2021-05-22T07:14:29Z</time>
      </trkpt>
      <trkpt lat="41.728039" lon="2.306546">
        <ele>840.80</ele>
        <time>2021-05-22T07:14:32Z</time>
      </trkpt>
      <trkpt lat="41.728038" lon="2.306557">
        <ele>841.20</ele>
        <time>2021-05-22T07:14:34Z</time>
      </trkpt>
      <trkpt lat="41.728047" lon="2.306573">
        <ele>841.80</ele>
        <time>2021-05-22T07:14:37Z</time>
      </trkpt>
      <trkpt lat="41.728037" lon="2.306586">
        <ele>842.20</ele>
        <time>2021-05-22T07:14:40Z</time>
      </trkpt>
      <trkpt lat="41.728038" lon="2.306610">
        <ele>842.60</ele>
        <time>2021-05-22T07:14:43Z</time>
      </trkpt>
      <trkpt lat="41.728044" lon="2.306609">
        <ele>842.00</ele>
        <time>2021-05-22T07:14:57Z</time>
      </trkpt>
      <trkpt lat="41.728033" lon="2.306600">
        <ele>841.20</ele>
        <time>2021-05-22T07:15:06Z</time>
      </trkpt>
      <trkpt lat="41.727992" lon="2.306534">
        <ele>840.80</ele>
        <time>2021-05-22T07:15:12Z</time>
      </trkpt>
      <trkpt lat="41.727985" lon="2.306509">
        <ele>840.00</ele>
        <time>2021-05-22T07:15:18Z</time>
      </trkpt>
      <trkpt lat="41.727998" lon="2.306531">
        <ele>840.40</ele>
        <time>2021-05-22T07:15:24Z</time>
      </trkpt>
      <trkpt lat="41.728019" lon="2.306584">
        <ele>841.20</ele>
        <time>2021-05-22T07:15:33Z</time>
      </trkpt>
      <trkpt lat="41.728021" lon="2.306601">
        <ele>841.80</ele>
        <time>2021-05-22T07:15:37Z</time>
      </trkpt>
      <trkpt lat="41.728027" lon="2.306615">
        <ele>842.00</ele>
        <time>2021-05-22T07:15:39Z</time>
      </trkpt>
      <trkpt lat="41.728034" lon="2.306617">
        <ele>842.60</ele>
        <time>2021-05-22T07:15:40Z</time>
      </trkpt>
      <trkpt lat="41.728053" lon="2.306627">
        <ele>843.80</ele>
        <time>2021-05-22T07:15:46Z</time>
      </trkpt>
      <trkpt lat="41.728090" lon="2.306656">
        <ele>844.20</ele>
        <time>2021-05-22T07:15:50Z</time>
      </trkpt>
      <trkpt lat="41.728110" lon="2.306683">
        <ele>845.00</ele>
        <time>2021-05-22T07:15:52Z</time>
      </trkpt>
      <trkpt lat="41.728121" lon="2.306724">
        <ele>845.60</ele>
        <time>2021-05-22T07:15:54Z</time>
      </trkpt>
      <trkpt lat="41.728119" lon="2.306737">
        <ele>846.00</ele>
        <time>2021-05-22T07:15:56Z</time>
      </trkpt>
      <trkpt lat="41.728148" lon="2.306789">
        <ele>846.40</ele>
        <time>2021-05-22T07:16:00Z</time>
      </trkpt>
      <trkpt lat="41.728155" lon="2.306797">
        <ele>846.80</ele>
        <time>2021-05-22T07:16:02Z</time>
      </trkpt>
      <trkpt lat="41.728154" lon="2.306797">
        <ele>847.00</ele>
        <time>2021-05-22T07:16:04Z</time>
      </trkpt>
      <trkpt lat="41.728157" lon="2.306803">
        <ele>847.00</ele>
        <time>2021-05-22T07:16:05Z</time>
      </trkpt>
      <trkpt lat="41.728166" lon="2.306818">
        <ele>847.40</ele>
        <time>2021-05-22T07:16:11Z</time>
      </trkpt>
      <trkpt lat="41.728157" lon="2.306836">
        <ele>847.40</ele>
        <time>2021-05-22T07:16:23Z</time>
      </trkpt>
      <trkpt lat="41.728166" lon="2.306833">
        <ele>847.60</ele>
        <time>2021-05-22T07:16:37Z</time>
      </trkpt>
      <trkpt lat="41.728184" lon="2.306850">
        <ele>848.00</ele>
        <time>2021-05-22T07:16:42Z</time>
      </trkpt>
      <trkpt lat="41.728216" lon="2.306883">
        <ele>848.40</ele>
        <time>2021-05-22T07:16:49Z</time>
      </trkpt>
      <trkpt lat="41.728245" lon="2.306942">
        <ele>849.20</ele>
        <time>2021-05-22T07:16:55Z</time>
      </trkpt>
      <trkpt lat="41.728267" lon="2.306964">
        <ele>849.40</ele>
        <time>2021-05-22T07:16:57Z</time>
      </trkpt>
      <trkpt lat="41.728274" lon="2.306975">
        <ele>849.40</ele>
        <time>2021-05-22T07:16:58Z</time>
      </trkpt>
      <trkpt lat="41.728357" lon="2.307092">
        <ele>849.80</ele>
        <time>2021-05-22T07:17:09Z</time>
      </trkpt>
      <trkpt lat="41.728393" lon="2.307150">
        <ele>850.20</ele>
        <time>2021-05-22T07:17:12Z</time>
      </trkpt>
      <trkpt lat="41.728435" lon="2.307221">
        <ele>851.20</ele>
        <time>2021-05-22T07:17:18Z</time>
      </trkpt>
      <trkpt lat="41.728454" lon="2.307306">
        <ele>852.40</ele>
        <time>2021-05-22T07:17:24Z</time>
      </trkpt>
      <trkpt lat="41.728473" lon="2.307362">
        <ele>853.40</ele>
        <time>2021-05-22T07:17:33Z</time>
      </trkpt>
      <trkpt lat="41.728495" lon="2.307404">
        <ele>854.40</ele>
        <time>2021-05-22T07:17:36Z</time>
      </trkpt>
      <trkpt lat="41.728501" lon="2.307415">
        <ele>854.40</ele>
        <time>2021-05-22T07:17:37Z</time>
      </trkpt>
      <trkpt lat="41.728508" lon="2.307453">
        <ele>855.60</ele>
        <time>2021-05-22T07:17:41Z</time>
      </trkpt>
      <trkpt lat="41.728534" lon="2.307508">
        <ele>856.20</ele>
        <time>2021-05-22T07:17:46Z</time>
      </trkpt>
      <trkpt lat="41.728543" lon="2.307528">
        <ele>856.80</ele>
        <time>2021-05-22T07:17:48Z</time>
      </trkpt>
      <trkpt lat="41.728571" lon="2.307597">
        <ele>857.20</ele>
        <time>2021-05-22T07:17:52Z</time>
      </trkpt>
      <trkpt lat="41.728591" lon="2.307625">
        <ele>857.80</ele>
        <time>2021-05-22T07:17:56Z</time>
      </trkpt>
      <trkpt lat="41.728599" lon="2.307678">
        <ele>858.80</ele>
        <time>2021-05-22T07:18:04Z</time>
      </trkpt>
      <trkpt lat="41.728600" lon="2.307679">
        <ele>858.80</ele>
        <time>2021-05-22T07:18:05Z</time>
      </trkpt>
      <trkpt lat="41.728585" lon="2.307698">
        <ele>859.20</ele>
        <time>2021-05-22T07:18:15Z</time>
      </trkpt>
      <trkpt lat="41.728584" lon="2.307703">
        <ele>859.00</ele>
        <time>2021-05-22T07:18:17Z</time>
      </trkpt>
      <trkpt lat="41.728574" lon="2.307754">
        <ele>859.00</ele>
        <time>2021-05-22T07:18:35Z</time>
      </trkpt>
      <trkpt lat="41.728609" lon="2.307774">
        <ele>859.40</ele>
        <time>2021-05-22T07:18:43Z</time>
      </trkpt>
      <trkpt lat="41.728613" lon="2.307780">
        <ele>859.40</ele>
        <time>2021-05-22T07:18:44Z</time>
      </trkpt>
      <trkpt lat="41.728621" lon="2.307788">
        <ele>859.40</ele>
        <time>2021-05-22T07:18:45Z</time>
      </trkpt>
      <trkpt lat="41.728619" lon="2.307792">
        <ele>859.40</ele>
        <time>2021-05-22T07:18:47Z</time>
      </trkpt>
      <trkpt lat="41.728628" lon="2.307819">
        <ele>860.00</ele>
        <time>2021-05-22T07:18:51Z</time>
      </trkpt>
      <trkpt lat="41.728642" lon="2.307854">
        <ele>860.60</ele>
        <time>2021-05-22T07:18:54Z</time>
      </trkpt>
      <trkpt lat="41.728661" lon="2.307877">
        <ele>861.20</ele>
        <time>2021-05-22T07:18:57Z</time>
      </trkpt>
      <trkpt lat="41.728694" lon="2.307897">
        <ele>862.20</ele>
        <time>2021-05-22T07:19:06Z</time>
      </trkpt>
      <trkpt lat="41.728699" lon="2.307909">
        <ele>862.20</ele>
        <time>2021-05-22T07:19:10Z</time>
      </trkpt>
      <trkpt lat="41.728701" lon="2.307978">
        <ele>863.40</ele>
        <time>2021-05-22T07:19:17Z</time>
      </trkpt>
      <trkpt lat="41.728714" lon="2.308025">
        <ele>864.60</ele>
        <time>2021-05-22T07:19:24Z</time>
      </trkpt>
      <trkpt lat="41.728732" lon="2.308058">
        <ele>865.80</ele>
        <time>2021-05-22T07:19:29Z</time>
      </trkpt>
      <trkpt lat="41.728733" lon="2.308071">
        <ele>866.00</ele>
        <time>2021-05-22T07:19:30Z</time>
      </trkpt>
      <trkpt lat="41.728746" lon="2.308106">
        <ele>866.80</ele>
        <time>2021-05-22T07:19:34Z</time>
      </trkpt>
      <trkpt lat="41.728776" lon="2.308156">
        <ele>868.00</ele>
        <time>2021-05-22T07:19:39Z</time>
      </trkpt>
      <trkpt lat="41.728758" lon="2.308150">
        <ele>868.60</ele>
        <time>2021-05-22T07:19:44Z</time>
      </trkpt>
      <trkpt lat="41.728756" lon="2.308132">
        <ele>868.20</ele>
        <time>2021-05-22T07:19:57Z</time>
      </trkpt>
      <trkpt lat="41.728739" lon="2.308134">
        <ele>868.00</ele>
        <time>2021-05-22T07:20:04Z</time>
      </trkpt>
      <trkpt lat="41.728743" lon="2.308122">
        <ele>868.20</ele>
        <time>2021-05-22T07:20:05Z</time>
      </trkpt>
      <trkpt lat="41.728745" lon="2.308118">
        <ele>868.20</ele>
        <time>2021-05-22T07:20:07Z</time>
      </trkpt>
      <trkpt lat="41.728750" lon="2.308136">
        <ele>867.80</ele>
        <time>2021-05-22T07:20:18Z</time>
      </trkpt>
      <trkpt lat="41.728795" lon="2.308199">
        <ele>869.00</ele>
        <time>2021-05-22T07:20:28Z</time>
      </trkpt>
      <trkpt lat="41.728796" lon="2.308221">
        <ele>869.40</ele>
        <time>2021-05-22T07:20:30Z</time>
      </trkpt>
      <trkpt lat="41.728795" lon="2.308254">
        <ele>870.00</ele>
        <time>2021-05-22T07:20:35Z</time>
      </trkpt>
      <trkpt lat="41.728809" lon="2.308284">
        <ele>871.00</ele>
        <time>2021-05-22T07:20:40Z</time>
      </trkpt>
      <trkpt lat="41.728811" lon="2.308295">
        <ele>871.20</ele>
        <time>2021-05-22T07:20:42Z</time>
      </trkpt>
      <trkpt lat="41.728823" lon="2.308311">
        <ele>871.60</ele>
        <time>2021-05-22T07:20:46Z</time>
      </trkpt>
      <trkpt lat="41.728829" lon="2.308315">
        <ele>871.60</ele>
        <time>2021-05-22T07:20:48Z</time>
      </trkpt>
      <trkpt lat="41.728835" lon="2.308321">
        <ele>872.00</ele>
        <time>2021-05-22T07:20:53Z</time>
      </trkpt>
      <trkpt lat="41.728851" lon="2.308338">
        <ele>872.20</ele>
        <time>2021-05-22T07:20:55Z</time>
      </trkpt>
      <trkpt lat="41.728854" lon="2.308348">
        <ele>872.20</ele>
        <time>2021-05-22T07:20:57Z</time>
      </trkpt>
      <trkpt lat="41.728861" lon="2.308361">
        <ele>872.20</ele>
        <time>2021-05-22T07:20:59Z</time>
      </trkpt>
      <trkpt lat="41.728879" lon="2.308386">
        <ele>873.20</ele>
        <time>2021-05-22T07:21:04Z</time>
      </trkpt>
      <trkpt lat="41.728901" lon="2.308412">
        <ele>874.20</ele>
        <time>2021-05-22T07:21:12Z</time>
      </trkpt>
      <trkpt lat="41.728904" lon="2.308409">
        <ele>874.20</ele>
        <time>2021-05-22T07:21:15Z</time>
      </trkpt>
      <trkpt lat="41.728927" lon="2.308494">
        <ele>875.40</ele>
        <time>2021-05-22T07:21:26Z</time>
      </trkpt>
      <trkpt lat="41.728955" lon="2.308529">
        <ele>876.60</ele>
        <time>2021-05-22T07:21:30Z</time>
      </trkpt>
      <trkpt lat="41.728962" lon="2.308546">
        <ele>877.00</ele>
        <time>2021-05-22T07:21:35Z</time>
      </trkpt>
      <trkpt lat="41.728998" lon="2.308582">
        <ele>877.60</ele>
        <time>2021-05-22T07:21:46Z</time>
      </trkpt>
      <trkpt lat="41.729021" lon="2.308623">
        <ele>878.80</ele>
        <time>2021-05-22T07:21:54Z</time>
      </trkpt>
      <trkpt lat="41.729055" lon="2.308688">
        <ele>879.20</ele>
        <time>2021-05-22T07:22:00Z</time>
      </trkpt>
      <trkpt lat="41.729095" lon="2.308750">
        <ele>879.60</ele>
        <time>2021-05-22T07:22:04Z</time>
      </trkpt>
      <trkpt lat="41.729114" lon="2.308797">
        <ele>880.00</ele>
        <time>2021-05-22T07:22:08Z</time>
      </trkpt>
      <trkpt lat="41.729148" lon="2.308860">
        <ele>880.40</ele>
        <time>2021-05-22T07:22:13Z</time>
      </trkpt>
      <trkpt lat="41.729154" lon="2.308887">
        <ele>880.40</ele>
        <time>2021-05-22T07:22:15Z</time>
      </trkpt>
      <trkpt lat="41.729181" lon="2.308969">
        <ele>880.00</ele>
        <time>2021-05-22T07:22:21Z</time>
      </trkpt>
      <trkpt lat="41.729198" lon="2.309017">
        <ele>879.40</ele>
        <time>2021-05-22T07:22:23Z</time>
      </trkpt>
      <trkpt lat="41.729218" lon="2.309052">
        <ele>879.00</ele>
        <time>2021-05-22T07:22:24Z</time>
      </trkpt>
      <trkpt lat="41.729277" lon="2.309156">
        <ele>878.60</ele>
        <time>2021-05-22T07:22:27Z</time>
      </trkpt>
      <trkpt lat="41.729324" lon="2.309189">
        <ele>879.00</ele>
        <time>2021-05-22T07:22:31Z</time>
      </trkpt>
      <trkpt lat="41.729361" lon="2.309203">
        <ele>880.00</ele>
        <time>2021-05-22T07:22:36Z</time>
      </trkpt>
      <trkpt lat="41.729390" lon="2.309243">
        <ele>880.60</ele>
        <time>2021-05-22T07:22:40Z</time>
      </trkpt>
      <trkpt lat="41.729391" lon="2.309251">
        <ele>880.60</ele>
        <time>2021-05-22T07:22:41Z</time>
      </trkpt>
      <trkpt lat="41.729394" lon="2.309259">
        <ele>880.80</ele>
        <time>2021-05-22T07:22:42Z</time>
      </trkpt>
      <trkpt lat="41.729403" lon="2.309278">
        <ele>881.20</ele>
        <time>2021-05-22T07:22:44Z</time>
      </trkpt>
      <trkpt lat="41.729436" lon="2.309309">
        <ele>882.20</ele>
        <time>2021-05-22T07:22:48Z</time>
      </trkpt>
      <trkpt lat="41.729436" lon="2.309309">
        <ele>882.40</ele>
        <time>2021-05-22T07:22:49Z</time>
      </trkpt>
      <trkpt lat="41.729450" lon="2.309324">
        <ele>882.60</ele>
        <time>2021-05-22T07:22:56Z</time>
      </trkpt>
      <trkpt lat="41.729428" lon="2.309292">
        <ele>882.00</ele>
        <time>2021-05-22T07:23:02Z</time>
      </trkpt>
      <trkpt lat="41.729406" lon="2.309278">
        <ele>881.60</ele>
        <time>2021-05-22T07:23:06Z</time>
      </trkpt>
      <trkpt lat="41.729401" lon="2.309263">
        <ele>881.60</ele>
        <time>2021-05-22T07:23:08Z</time>
      </trkpt>
      <trkpt lat="41.729401" lon="2.309261">
        <ele>881.60</ele>
        <time>2021-05-22T07:23:09Z</time>
      </trkpt>
      <trkpt lat="41.729402" lon="2.309254">
        <ele>881.80</ele>
        <time>2021-05-22T07:23:16Z</time>
      </trkpt>
      <trkpt lat="41.729423" lon="2.309277">
        <ele>882.00</ele>
        <time>2021-05-22T07:23:21Z</time>
      </trkpt>
      <trkpt lat="41.729448" lon="2.309294">
        <ele>882.20</ele>
        <time>2021-05-22T07:23:23Z</time>
      </trkpt>
      <trkpt lat="41.729492" lon="2.309352">
        <ele>883.20</ele>
        <time>2021-05-22T07:23:27Z</time>
      </trkpt>
      <trkpt lat="41.729499" lon="2.309367">
        <ele>883.60</ele>
        <time>2021-05-22T07:23:29Z</time>
      </trkpt>
      <trkpt lat="41.729512" lon="2.309389">
        <ele>883.80</ele>
        <time>2021-05-22T07:23:31Z</time>
      </trkpt>
      <trkpt lat="41.729517" lon="2.309376">
        <ele>883.80</ele>
        <time>2021-05-22T07:23:36Z</time>
      </trkpt>
      <trkpt lat="41.729506" lon="2.309355">
        <ele>882.60</ele>
        <time>2021-05-22T07:23:45Z</time>
      </trkpt>
      <trkpt lat="41.729520" lon="2.309367">
        <ele>883.00</ele>
        <time>2021-05-22T07:23:51Z</time>
      </trkpt>
      <trkpt lat="41.729511" lon="2.309357">
        <ele>882.40</ele>
        <time>2021-05-22T07:23:53Z</time>
      </trkpt>
      <trkpt lat="41.729504" lon="2.309337">
        <ele>882.40</ele>
        <time>2021-05-22T07:23:56Z</time>
      </trkpt>
      <trkpt lat="41.729486" lon="2.309323">
        <ele>882.40</ele>
        <time>2021-05-22T07:23:59Z</time>
      </trkpt>
      <trkpt lat="41.729493" lon="2.309341">
        <ele>882.40</ele>
        <time>2021-05-22T07:24:04Z</time>
      </trkpt>
      <trkpt lat="41.729499" lon="2.309346">
        <ele>882.40</ele>
        <time>2021-05-22T07:24:05Z</time>
      </trkpt>
      <trkpt lat="41.729499" lon="2.309346">
        <ele>882.40</ele>
        <time>2021-05-22T07:24:06Z</time>
      </trkpt>
      <trkpt lat="41.729494" lon="2.309348">
        <ele>882.40</ele>
        <time>2021-05-22T07:24:13Z</time>
      </trkpt>
      <trkpt lat="41.729556" lon="2.309408">
        <ele>882.40</ele>
        <time>2021-05-22T07:24:21Z</time>
      </trkpt>
      <trkpt lat="41.729555" lon="2.309447">
        <ele>882.40</ele>
        <time>2021-05-22T07:24:28Z</time>
      </trkpt>
      <trkpt lat="41.729597" lon="2.309488">
        <ele>882.40</ele>
        <time>2021-05-22T07:24:37Z</time>
      </trkpt>
      <trkpt lat="41.729611" lon="2.309506">
        <ele>882.40</ele>
        <time>2021-05-22T07:24:38Z</time>
      </trkpt>
      <trkpt lat="41.729612" lon="2.309517">
        <ele>882.40</ele>
        <time>2021-05-22T07:24:42Z</time>
      </trkpt>
      <trkpt lat="41.729611" lon="2.309529">
        <ele>882.20</ele>
        <time>2021-05-22T07:24:44Z</time>
      </trkpt>
      <trkpt lat="41.729601" lon="2.309563">
        <ele>881.80</ele>
        <time>2021-05-22T07:24:46Z</time>
      </trkpt>
      <trkpt lat="41.729590" lon="2.309570">
        <ele>881.20</ele>
        <time>2021-05-22T07:24:52Z</time>
      </trkpt>
      <trkpt lat="41.729585" lon="2.309591">
        <ele>881.00</ele>
        <time>2021-05-22T07:24:53Z</time>
      </trkpt>
      <trkpt lat="41.729576" lon="2.309620">
        <ele>881.00</ele>
        <time>2021-05-22T07:24:54Z</time>
      </trkpt>
      <trkpt lat="41.729572" lon="2.309679">
        <ele>880.60</ele>
        <time>2021-05-22T07:24:56Z</time>
      </trkpt>
      <trkpt lat="41.729559" lon="2.309742">
        <ele>881.00</ele>
        <time>2021-05-22T07:25:02Z</time>
      </trkpt>
      <trkpt lat="41.729557" lon="2.309788">
        <ele>882.20</ele>
        <time>2021-05-22T07:25:06Z</time>
      </trkpt>
      <trkpt lat="41.729557" lon="2.309813">
        <ele>883.00</ele>
        <time>2021-05-22T07:25:09Z</time>
      </trkpt>
      <trkpt lat="41.729558" lon="2.309821">
        <ele>883.20</ele>
        <time>2021-05-22T07:25:11Z</time>
      </trkpt>
      <trkpt lat="41.729584" lon="2.309854">
        <ele>884.00</ele>
        <time>2021-05-22T07:25:16Z</time>
      </trkpt>
      <trkpt lat="41.729587" lon="2.309867">
        <ele>884.60</ele>
        <time>2021-05-22T07:25:18Z</time>
      </trkpt>
      <trkpt lat="41.729600" lon="2.309877">
        <ele>885.40</ele>
        <time>2021-05-22T07:25:22Z</time>
      </trkpt>
      <trkpt lat="41.729604" lon="2.309876">
        <ele>885.60</ele>
        <time>2021-05-22T07:25:23Z</time>
      </trkpt>
      <trkpt lat="41.729612" lon="2.309888">
        <ele>886.40</ele>
        <time>2021-05-22T07:25:30Z</time>
      </trkpt>
      <trkpt lat="41.729615" lon="2.309903">
        <ele>886.40</ele>
        <time>2021-05-22T07:25:32Z</time>
      </trkpt>
      <trkpt lat="41.729609" lon="2.309911">
        <ele>887.00</ele>
        <time>2021-05-22T07:25:34Z</time>
      </trkpt>
      <trkpt lat="41.729610" lon="2.309928">
        <ele>888.20</ele>
        <time>2021-05-22T07:25:40Z</time>
      </trkpt>
      <trkpt lat="41.729612" lon="2.309931">
        <ele>888.60</ele>
        <time>2021-05-22T07:25:44Z</time>
      </trkpt>
      <trkpt lat="41.729650" lon="2.309951">
        <ele>888.80</ele>
        <time>2021-05-22T07:25:56Z</time>
      </trkpt>
      <trkpt lat="41.729670" lon="2.309958">
        <ele>889.60</ele>
        <time>2021-05-22T07:25:59Z</time>
      </trkpt>
      <trkpt lat="41.729696" lon="2.309954">
        <ele>890.60</ele>
        <time>2021-05-22T07:26:05Z</time>
      </trkpt>
      <trkpt lat="41.729707" lon="2.309959">
        <ele>890.80</ele>
        <time>2021-05-22T07:26:08Z</time>
      </trkpt>
      <trkpt lat="41.729747" lon="2.309982">
        <ele>891.80</ele>
        <time>2021-05-22T07:26:15Z</time>
      </trkpt>
      <trkpt lat="41.729785" lon="2.310037">
        <ele>893.00</ele>
        <time>2021-05-22T07:26:21Z</time>
      </trkpt>
      <trkpt lat="41.729794" lon="2.310046">
        <ele>893.20</ele>
        <time>2021-05-22T07:26:22Z</time>
      </trkpt>
      <trkpt lat="41.729817" lon="2.310080">
        <ele>893.80</ele>
        <time>2021-05-22T07:26:31Z</time>
      </trkpt>
      <trkpt lat="41.729801" lon="2.310053">
        <ele>893.20</ele>
        <time>2021-05-22T07:26:41Z</time>
      </trkpt>
      <trkpt lat="41.729799" lon="2.310049">
        <ele>893.00</ele>
        <time>2021-05-22T07:26:43Z</time>
      </trkpt>
      <trkpt lat="41.729829" lon="2.310092">
        <ele>892.40</ele>
        <time>2021-05-22T07:26:57Z</time>
      </trkpt>
      <trkpt lat="41.729821" lon="2.310096">
        <ele>892.60</ele>
        <time>2021-05-22T07:27:00Z</time>
      </trkpt>
      <trkpt lat="41.729838" lon="2.310107">
        <ele>892.60</ele>
        <time>2021-05-22T07:27:07Z</time>
      </trkpt>
      <trkpt lat="41.729854" lon="2.310075">
        <ele>893.40</ele>
        <time>2021-05-22T07:27:14Z</time>
      </trkpt>
      <trkpt lat="41.729870" lon="2.310064">
        <ele>893.00</ele>
        <time>2021-05-22T07:27:23Z</time>
      </trkpt>
      <trkpt lat="41.729869" lon="2.310048">
        <ele>893.00</ele>
        <time>2021-05-22T07:27:29Z</time>
      </trkpt>
      <trkpt lat="41.729855" lon="2.310038">
        <ele>893.00</ele>
        <time>2021-05-22T07:27:34Z</time>
      </trkpt>
      <trkpt lat="41.729877" lon="2.310035">
        <ele>892.60</ele>
        <time>2021-05-22T07:27:49Z</time>
      </trkpt>
      <trkpt lat="41.729880" lon="2.310055">
        <ele>892.60</ele>
        <time>2021-05-22T07:28:00Z</time>
      </trkpt>
      <trkpt lat="41.729880" lon="2.310074">
        <ele>892.60</ele>
        <time>2021-05-22T07:28:03Z</time>
      </trkpt>
      <trkpt lat="41.729859" lon="2.310093">
        <ele>892.60</ele>
        <time>2021-05-22T07:28:16Z</time>
      </trkpt>
      <trkpt lat="41.729855" lon="2.310094">
        <ele>892.60</ele>
        <time>2021-05-22T07:28:26Z</time>
      </trkpt>
      <trkpt lat="41.729875" lon="2.310066">
        <ele>892.60</ele>
        <time>2021-05-22T07:28:38Z</time>
      </trkpt>
      <trkpt lat="41.729879" lon="2.310073">
        <ele>892.60</ele>
        <time>2021-05-22T07:28:40Z</time>
      </trkpt>
      <trkpt lat="41.729878" lon="2.310070">
        <ele>892.60</ele>
        <time>2021-05-22T07:28:41Z</time>
      </trkpt>
      <trkpt lat="41.729881" lon="2.310056">
        <ele>897.60</ele>
        <time>2021-05-22T07:28:48Z</time>
      </trkpt>
      <trkpt lat="41.729884" lon="2.310059">
        <ele>897.60</ele>
        <time>2021-05-22T07:28:50Z</time>
      </trkpt>
      <trkpt lat="41.729919" lon="2.310082">
        <ele>898.60</ele>
        <time>2021-05-22T07:28:56Z</time>
      </trkpt>
      <trkpt lat="41.729957" lon="2.310090">
        <ele>899.80</ele>
        <time>2021-05-22T07:29:02Z</time>
      </trkpt>
      <trkpt lat="41.729976" lon="2.310103">
        <ele>900.40</ele>
        <time>2021-05-22T07:29:04Z</time>
      </trkpt>
      <trkpt lat="41.729976" lon="2.310103">
        <ele>900.80</ele>
        <time>2021-05-22T07:29:05Z</time>
      </trkpt>
      <trkpt lat="41.730019" lon="2.310155">
        <ele>900.80</ele>
        <time>2021-05-22T07:29:14Z</time>
      </trkpt>
      <trkpt lat="41.730033" lon="2.310187">
        <ele>901.40</ele>
        <time>2021-05-22T07:29:20Z</time>
      </trkpt>
      <trkpt lat="41.730027" lon="2.310184">
        <ele>902.00</ele>
        <time>2021-05-22T07:29:22Z</time>
      </trkpt>
      <trkpt lat="41.730045" lon="2.310170">
        <ele>902.80</ele>
        <time>2021-05-22T07:29:26Z</time>
      </trkpt>
      <trkpt lat="41.730041" lon="2.310166">
        <ele>903.00</ele>
        <time>2021-05-22T07:29:28Z</time>
      </trkpt>
      <trkpt lat="41.730042" lon="2.310175">
        <ele>904.20</ele>
        <time>2021-05-22T07:29:31Z</time>
      </trkpt>
      <trkpt lat="41.730051" lon="2.310188">
        <ele>905.00</ele>
        <time>2021-05-22T07:29:37Z</time>
      </trkpt>
      <trkpt lat="41.730058" lon="2.310189">
        <ele>905.20</ele>
        <time>2021-05-22T07:29:39Z</time>
      </trkpt>
      <trkpt lat="41.730034" lon="2.310166">
        <ele>905.40</ele>
        <time>2021-05-22T07:29:47Z</time>
      </trkpt>
      <trkpt lat="41.730016" lon="2.310153">
        <ele>905.40</ele>
        <time>2021-05-22T07:29:49Z</time>
      </trkpt>
      <trkpt lat="41.729969" lon="2.310144">
        <ele>904.00</ele>
        <time>2021-05-22T07:29:56Z</time>
      </trkpt>
      <trkpt lat="41.729953" lon="2.310139">
        <ele>902.80</ele>
        <time>2021-05-22T07:29:59Z</time>
      </trkpt>
      <trkpt lat="41.729961" lon="2.310141">
        <ele>901.80</ele>
        <time>2021-05-22T07:30:02Z</time>
      </trkpt>
      <trkpt lat="41.729950" lon="2.310134">
        <ele>901.20</ele>
        <time>2021-05-22T07:30:11Z</time>
      </trkpt>
      <trkpt lat="41.729945" lon="2.310129">
        <ele>900.80</ele>
        <time>2021-05-22T07:30:14Z</time>
      </trkpt>
      <trkpt lat="41.729946" lon="2.310129">
        <ele>900.80</ele>
        <time>2021-05-22T07:30:15Z</time>
      </trkpt>
      <trkpt lat="41.729959" lon="2.310131">
        <ele>902.00</ele>
        <time>2021-05-22T07:30:22Z</time>
      </trkpt>
      <trkpt lat="41.729963" lon="2.310135">
        <ele>902.80</ele>
        <time>2021-05-22T07:30:26Z</time>
      </trkpt>
      <trkpt lat="41.729964" lon="2.310137">
        <ele>902.80</ele>
        <time>2021-05-22T07:30:27Z</time>
      </trkpt>
      <trkpt lat="41.729978" lon="2.310156">
        <ele>903.00</ele>
        <time>2021-05-22T07:30:29Z</time>
      </trkpt>
      <trkpt lat="41.730029" lon="2.310200">
        <ele>904.20</ele>
        <time>2021-05-22T07:30:36Z</time>
      </trkpt>
      <trkpt lat="41.730036" lon="2.310203">
        <ele>904.40</ele>
        <time>2021-05-22T07:30:37Z</time>
      </trkpt>
      <trkpt lat="41.730057" lon="2.310212">
        <ele>905.40</ele>
        <time>2021-05-22T07:30:40Z</time>
      </trkpt>
      <trkpt lat="41.730087" lon="2.310235">
        <ele>906.60</ele>
        <time>2021-05-22T07:30:46Z</time>
      </trkpt>
      <trkpt lat="41.730114" lon="2.310243">
        <ele>907.20</ele>
        <time>2021-05-22T07:30:51Z</time>
      </trkpt>
      <trkpt lat="41.730119" lon="2.310259">
        <ele>907.80</ele>
        <time>2021-05-22T07:30:53Z</time>
      </trkpt>
      <trkpt lat="41.730127" lon="2.310257">
        <ele>908.20</ele>
        <time>2021-05-22T07:30:56Z</time>
      </trkpt>
      <trkpt lat="41.730123" lon="2.310254">
        <ele>908.40</ele>
        <time>2021-05-22T07:30:58Z</time>
      </trkpt>
      <trkpt lat="41.730110" lon="2.310246">
        <ele>908.20</ele>
        <time>2021-05-22T07:31:00Z</time>
      </trkpt>
      <trkpt lat="41.730091" lon="2.310230">
        <ele>907.60</ele>
        <time>2021-05-22T07:31:04Z</time>
      </trkpt>
      <trkpt lat="41.730070" lon="2.310222">
        <ele>906.80</ele>
        <time>2021-05-22T07:31:09Z</time>
      </trkpt>
      <trkpt lat="41.730060" lon="2.310224">
        <ele>906.00</ele>
        <time>2021-05-22T07:31:12Z</time>
      </trkpt>
      <trkpt lat="41.730063" lon="2.310204">
        <ele>906.40</ele>
        <time>2021-05-22T07:31:25Z</time>
      </trkpt>
      <trkpt lat="41.730083" lon="2.310208">
        <ele>906.40</ele>
        <time>2021-05-22T07:31:33Z</time>
      </trkpt>
      <trkpt lat="41.730091" lon="2.310224">
        <ele>907.40</ele>
        <time>2021-05-22T07:31:38Z</time>
      </trkpt>
      <trkpt lat="41.730089" lon="2.310223">
        <ele>907.40</ele>
        <time>2021-05-22T07:31:39Z</time>
      </trkpt>
      <trkpt lat="41.730082" lon="2.310222">
        <ele>907.80</ele>
        <time>2021-05-22T07:31:41Z</time>
      </trkpt>
      <trkpt lat="41.730110" lon="2.310249">
        <ele>908.80</ele>
        <time>2021-05-22T07:31:47Z</time>
      </trkpt>
      <trkpt lat="41.730127" lon="2.310259">
        <ele>909.20</ele>
        <time>2021-05-22T07:31:49Z</time>
      </trkpt>
      <trkpt lat="41.730164" lon="2.310285">
        <ele>910.20</ele>
        <time>2021-05-22T07:31:53Z</time>
      </trkpt>
      <trkpt lat="41.730189" lon="2.310307">
        <ele>911.40</ele>
        <time>2021-05-22T07:31:58Z</time>
      </trkpt>
      <trkpt lat="41.730193" lon="2.310331">
        <ele>911.60</ele>
        <time>2021-05-22T07:32:01Z</time>
      </trkpt>
      <trkpt lat="41.730205" lon="2.310365">
        <ele>912.40</ele>
        <time>2021-05-22T07:32:06Z</time>
      </trkpt>
      <trkpt lat="41.730204" lon="2.310380">
        <ele>912.80</ele>
        <time>2021-05-22T07:32:11Z</time>
      </trkpt>
      <trkpt lat="41.730204" lon="2.310380">
        <ele>913.20</ele>
        <time>2021-05-22T07:32:12Z</time>
      </trkpt>
      <trkpt lat="41.730213" lon="2.310386">
        <ele>913.60</ele>
        <time>2021-05-22T07:32:15Z</time>
      </trkpt>
      <trkpt lat="41.730211" lon="2.310382">
        <ele>913.80</ele>
        <time>2021-05-22T07:32:22Z</time>
      </trkpt>
      <trkpt lat="41.730238" lon="2.310398">
        <ele>914.80</ele>
        <time>2021-05-22T07:32:30Z</time>
      </trkpt>
      <trkpt lat="41.730242" lon="2.310397">
        <ele>915.00</ele>
        <time>2021-05-22T07:32:32Z</time>
      </trkpt>
      <trkpt lat="41.730243" lon="2.310398">
        <ele>915.00</ele>
        <time>2021-05-22T07:32:33Z</time>
      </trkpt>
      <trkpt lat="41.730248" lon="2.310418">
        <ele>915.60</ele>
        <time>2021-05-22T07:32:37Z</time>
      </trkpt>
      <trkpt lat="41.730248" lon="2.310428">
        <ele>915.80</ele>
        <time>2021-05-22T07:32:38Z</time>
      </trkpt>
      <trkpt lat="41.730248" lon="2.310434">
        <ele>915.80</ele>
        <time>2021-05-22T07:32:39Z</time>
      </trkpt>
      <trkpt lat="41.730257" lon="2.310454">
        <ele>916.60</ele>
        <time>2021-05-22T07:32:43Z</time>
      </trkpt>
      <trkpt lat="41.730260" lon="2.310459">
        <ele>916.80</ele>
        <time>2021-05-22T07:32:45Z</time>
      </trkpt>
      <trkpt lat="41.730267" lon="2.310480">
        <ele>917.80</ele>
        <time>2021-05-22T07:32:50Z</time>
      </trkpt>
      <trkpt lat="41.730268" lon="2.310479">
        <ele>918.60</ele>
        <time>2021-05-22T07:32:55Z</time>
      </trkpt>
      <trkpt lat="41.730270" lon="2.310498">
        <ele>918.40</ele>
        <time>2021-05-22T07:33:01Z</time>
      </trkpt>
      <trkpt lat="41.730274" lon="2.310543">
        <ele>918.80</ele>
        <time>2021-05-22T07:33:06Z</time>
      </trkpt>
      <trkpt lat="41.730276" lon="2.310551">
        <ele>918.80</ele>
        <time>2021-05-22T07:33:07Z</time>
      </trkpt>
      <trkpt lat="41.730281" lon="2.310560">
        <ele>919.00</ele>
        <time>2021-05-22T07:33:08Z</time>
      </trkpt>
      <trkpt lat="41.730278" lon="2.310563">
        <ele>919.20</ele>
        <time>2021-05-22T07:33:13Z</time>
      </trkpt>
      <trkpt lat="41.730272" lon="2.310551">
        <ele>918.80</ele>
        <time>2021-05-22T07:33:16Z</time>
      </trkpt>
      <trkpt lat="41.730269" lon="2.310545">
        <ele>918.60</ele>
        <time>2021-05-22T07:33:18Z</time>
      </trkpt>
      <trkpt lat="41.730260" lon="2.310533">
        <ele>917.80</ele>
        <time>2021-05-22T07:33:25Z</time>
      </trkpt>
      <trkpt lat="41.730256" lon="2.310542">
        <ele>917.60</ele>
        <time>2021-05-22T07:33:32Z</time>
      </trkpt>
      <trkpt lat="41.730279" lon="2.310551">
        <ele>918.80</ele>
        <time>2021-05-22T07:33:42Z</time>
      </trkpt>
      <trkpt lat="41.730277" lon="2.310548">
        <ele>919.00</ele>
        <time>2021-05-22T07:33:44Z</time>
      </trkpt>
      <trkpt lat="41.730299" lon="2.310551">
        <ele>918.20</ele>
        <time>2021-05-22T07:33:54Z</time>
      </trkpt>
      <trkpt lat="41.730288" lon="2.310563">
        <ele>919.60</ele>
        <time>2021-05-22T07:34:02Z</time>
      </trkpt>
      <trkpt lat="41.730291" lon="2.310553">
        <ele>919.00</ele>
        <time>2021-05-22T07:34:08Z</time>
      </trkpt>
      <trkpt lat="41.730293" lon="2.310549">
        <ele>918.80</ele>
        <time>2021-05-22T07:34:09Z</time>
      </trkpt>
      <trkpt lat="41.730293" lon="2.310547">
        <ele>918.40</ele>
        <time>2021-05-22T07:34:14Z</time>
      </trkpt>
      <trkpt lat="41.730307" lon="2.310557">
        <ele>918.20</ele>
        <time>2021-05-22T07:34:28Z</time>
      </trkpt>
      <trkpt lat="41.730313" lon="2.310556">
        <ele>918.60</ele>
        <time>2021-05-22T07:34:33Z</time>
      </trkpt>
      <trkpt lat="41.730314" lon="2.310556">
        <ele>918.60</ele>
        <time>2021-05-22T07:34:34Z</time>
      </trkpt>
      <trkpt lat="41.730314" lon="2.310557">
        <ele>918.40</ele>
        <time>2021-05-22T07:34:35Z</time>
      </trkpt>
      <trkpt lat="41.730320" lon="2.310586">
        <ele>919.00</ele>
        <time>2021-05-22T07:34:44Z</time>
      </trkpt>
      <trkpt lat="41.730353" lon="2.310601">
        <ele>919.80</ele>
        <time>2021-05-22T07:34:52Z</time>
      </trkpt>
      <trkpt lat="41.730359" lon="2.310600">
        <ele>920.00</ele>
        <time>2021-05-22T07:34:53Z</time>
      </trkpt>
      <trkpt lat="41.730366" lon="2.310600">
        <ele>920.20</ele>
        <time>2021-05-22T07:34:54Z</time>
      </trkpt>
      <trkpt lat="41.730374" lon="2.310601">
        <ele>920.40</ele>
        <time>2021-05-22T07:34:55Z</time>
      </trkpt>
      <trkpt lat="41.730392" lon="2.310611">
        <ele>921.00</ele>
        <time>2021-05-22T07:34:58Z</time>
      </trkpt>
      <trkpt lat="41.730431" lon="2.310629">
        <ele>922.00</ele>
        <time>2021-05-22T07:35:04Z</time>
      </trkpt>
      <trkpt lat="41.730450" lon="2.310642">
        <ele>922.60</ele>
        <time>2021-05-22T07:35:08Z</time>
      </trkpt>
      <trkpt lat="41.730454" lon="2.310642">
        <ele>923.00</ele>
        <time>2021-05-22T07:35:11Z</time>
      </trkpt>
      <trkpt lat="41.730472" lon="2.310676">
        <ele>923.60</ele>
        <time>2021-05-22T07:35:19Z</time>
      </trkpt>
      <trkpt lat="41.730473" lon="2.310680">
        <ele>923.80</ele>
        <time>2021-05-22T07:35:20Z</time>
      </trkpt>
      <trkpt lat="41.730472" lon="2.310683">
        <ele>924.20</ele>
        <time>2021-05-22T07:35:24Z</time>
      </trkpt>
      <trkpt lat="41.730448" lon="2.310654">
        <ele>923.80</ele>
        <time>2021-05-22T07:35:30Z</time>
      </trkpt>
      <trkpt lat="41.730446" lon="2.310645">
        <ele>923.00</ele>
        <time>2021-05-22T07:35:34Z</time>
      </trkpt>
      <trkpt lat="41.730475" lon="2.310697">
        <ele>923.40</ele>
        <time>2021-05-22T07:35:43Z</time>
      </trkpt>
      <trkpt lat="41.730508" lon="2.310720">
        <ele>924.20</ele>
        <time>2021-05-22T07:35:48Z</time>
      </trkpt>
      <trkpt lat="41.730526" lon="2.310739">
        <ele>925.20</ele>
        <time>2021-05-22T07:35:52Z</time>
      </trkpt>
      <trkpt lat="41.730534" lon="2.310749">
        <ele>925.40</ele>
        <time>2021-05-22T07:35:55Z</time>
      </trkpt>
      <trkpt lat="41.730543" lon="2.310758">
        <ele>926.20</ele>
        <time>2021-05-22T07:36:01Z</time>
      </trkpt>
      <trkpt lat="41.730543" lon="2.310758">
        <ele>926.20</ele>
        <time>2021-05-22T07:36:02Z</time>
      </trkpt>
      <trkpt lat="41.730562" lon="2.310803">
        <ele>927.20</ele>
        <time>2021-05-22T07:36:09Z</time>
      </trkpt>
      <trkpt lat="41.730562" lon="2.310855">
        <ele>928.60</ele>
        <time>2021-05-22T07:36:16Z</time>
      </trkpt>
      <trkpt lat="41.730575" lon="2.310875">
        <ele>929.80</ele>
        <time>2021-05-22T07:36:20Z</time>
      </trkpt>
      <trkpt lat="41.730583" lon="2.310899">
        <ele>930.60</ele>
        <time>2021-05-22T07:36:24Z</time>
      </trkpt>
      <trkpt lat="41.730581" lon="2.310901">
        <ele>930.80</ele>
        <time>2021-05-22T07:36:25Z</time>
      </trkpt>
      <trkpt lat="41.730584" lon="2.310910">
        <ele>931.40</ele>
        <time>2021-05-22T07:36:28Z</time>
      </trkpt>
      <trkpt lat="41.730590" lon="2.310922">
        <ele>932.00</ele>
        <time>2021-05-22T07:36:31Z</time>
      </trkpt>
      <trkpt lat="41.730601" lon="2.310938">
        <ele>932.40</ele>
        <time>2021-05-22T07:36:34Z</time>
      </trkpt>
      <trkpt lat="41.730618" lon="2.310934">
        <ele>933.00</ele>
        <time>2021-05-22T07:36:38Z</time>
      </trkpt>
      <trkpt lat="41.730596" lon="2.310923">
        <ele>932.80</ele>
        <time>2021-05-22T07:36:50Z</time>
      </trkpt>
      <trkpt lat="41.730594" lon="2.310920">
        <ele>932.20</ele>
        <time>2021-05-22T07:36:52Z</time>
      </trkpt>
      <trkpt lat="41.730592" lon="2.310919">
        <ele>932.00</ele>
        <time>2021-05-22T07:36:53Z</time>
      </trkpt>
      <trkpt lat="41.730596" lon="2.310920">
        <ele>932.00</ele>
        <time>2021-05-22T07:36:54Z</time>
      </trkpt>
      <trkpt lat="41.730589" lon="2.310915">
        <ele>932.00</ele>
        <time>2021-05-22T07:36:58Z</time>
      </trkpt>
      <trkpt lat="41.730584" lon="2.310913">
        <ele>932.20</ele>
        <time>2021-05-22T07:37:00Z</time>
      </trkpt>
      <trkpt lat="41.730581" lon="2.310920">
        <ele>932.20</ele>
        <time>2021-05-22T07:37:04Z</time>
      </trkpt>
      <trkpt lat="41.730575" lon="2.310927">
        <ele>932.20</ele>
        <time>2021-05-22T07:37:09Z</time>
      </trkpt>
      <trkpt lat="41.730587" lon="2.310942">
        <ele>932.40</ele>
        <time>2021-05-22T07:37:20Z</time>
      </trkpt>
      <trkpt lat="41.730625" lon="2.310950">
        <ele>933.00</ele>
        <time>2021-05-22T07:37:27Z</time>
      </trkpt>
      <trkpt lat="41.730631" lon="2.310950">
        <ele>933.00</ele>
        <time>2021-05-22T07:37:28Z</time>
      </trkpt>
      <trkpt lat="41.730658" lon="2.310962">
        <ele>933.80</ele>
        <time>2021-05-22T07:37:32Z</time>
      </trkpt>
      <trkpt lat="41.730663" lon="2.310970">
        <ele>934.20</ele>
        <time>2021-05-22T07:37:34Z</time>
      </trkpt>
      <trkpt lat="41.730685" lon="2.310990">
        <ele>935.20</ele>
        <time>2021-05-22T07:37:39Z</time>
      </trkpt>
      <trkpt lat="41.730706" lon="2.311017">
        <ele>935.80</ele>
        <time>2021-05-22T07:37:44Z</time>
      </trkpt>
      <trkpt lat="41.730713" lon="2.311034">
        <ele>936.40</ele>
        <time>2021-05-22T07:37:47Z</time>
      </trkpt>
      <trkpt lat="41.730736" lon="2.311060">
        <ele>937.60</ele>
        <time>2021-05-22T07:37:53Z</time>
      </trkpt>
      <trkpt lat="41.730768" lon="2.311054">
        <ele>938.60</ele>
        <time>2021-05-22T07:37:59Z</time>
      </trkpt>
      <trkpt lat="41.730798" lon="2.311062">
        <ele>939.80</ele>
        <time>2021-05-22T07:38:05Z</time>
      </trkpt>
      <trkpt lat="41.730779" lon="2.311048">
        <ele>939.80</ele>
        <time>2021-05-22T07:38:12Z</time>
      </trkpt>
      <trkpt lat="41.730769" lon="2.311051">
        <ele>940.00</ele>
        <time>2021-05-22T07:38:18Z</time>
      </trkpt>
      <trkpt lat="41.730772" lon="2.311078">
        <ele>940.80</ele>
        <time>2021-05-22T07:38:26Z</time>
      </trkpt>
      <trkpt lat="41.730773" lon="2.311084">
        <ele>941.00</ele>
        <time>2021-05-22T07:38:27Z</time>
      </trkpt>
      <trkpt lat="41.730779" lon="2.311089">
        <ele>941.40</ele>
        <time>2021-05-22T07:38:29Z</time>
      </trkpt>
      <trkpt lat="41.730770" lon="2.311085">
        <ele>941.80</ele>
        <time>2021-05-22T07:38:32Z</time>
      </trkpt>
      <trkpt lat="41.730780" lon="2.311085">
        <ele>942.80</ele>
        <time>2021-05-22T07:38:40Z</time>
      </trkpt>
      <trkpt lat="41.730789" lon="2.311103">
        <ele>943.00</ele>
        <time>2021-05-22T07:38:47Z</time>
      </trkpt>
      <trkpt lat="41.730793" lon="2.311124">
        <ele>944.20</ele>
        <time>2021-05-22T07:38:52Z</time>
      </trkpt>
      <trkpt lat="41.730793" lon="2.311124">
        <ele>944.40</ele>
        <time>2021-05-22T07:38:53Z</time>
      </trkpt>
      <trkpt lat="41.730805" lon="2.311148">
        <ele>945.60</ele>
        <time>2021-05-22T07:39:00Z</time>
      </trkpt>
      <trkpt lat="41.730814" lon="2.311146">
        <ele>946.60</ele>
        <time>2021-05-22T07:39:06Z</time>
      </trkpt>
      <trkpt lat="41.730817" lon="2.311147">
        <ele>946.60</ele>
        <time>2021-05-22T07:39:07Z</time>
      </trkpt>
      <trkpt lat="41.730857" lon="2.311166">
        <ele>947.60</ele>
        <time>2021-05-22T07:39:15Z</time>
      </trkpt>
      <trkpt lat="41.730874" lon="2.311180">
        <ele>948.80</ele>
        <time>2021-05-22T07:39:19Z</time>
      </trkpt>
      <trkpt lat="41.730890" lon="2.311190">
        <ele>949.80</ele>
        <time>2021-05-22T07:39:25Z</time>
      </trkpt>
      <trkpt lat="41.730920" lon="2.311208">
        <ele>951.00</ele>
        <time>2021-05-22T07:39:30Z</time>
      </trkpt>
      <trkpt lat="41.730930" lon="2.311214">
        <ele>951.40</ele>
        <time>2021-05-22T07:39:32Z</time>
      </trkpt>
      <trkpt lat="41.730930" lon="2.311283">
        <ele>951.40</ele>
        <time>2021-05-22T07:39:42Z</time>
      </trkpt>
      <trkpt lat="41.730926" lon="2.311295">
        <ele>951.40</ele>
        <time>2021-05-22T07:39:45Z</time>
      </trkpt>
      <trkpt lat="41.730923" lon="2.311295">
        <ele>951.20</ele>
        <time>2021-05-22T07:39:46Z</time>
      </trkpt>
      <trkpt lat="41.730897" lon="2.311294">
        <ele>951.40</ele>
        <time>2021-05-22T07:39:55Z</time>
      </trkpt>
      <trkpt lat="41.730908" lon="2.311267">
        <ele>951.60</ele>
        <time>2021-05-22T07:40:08Z</time>
      </trkpt>
      <trkpt lat="41.730929" lon="2.311263">
        <ele>951.60</ele>
        <time>2021-05-22T07:40:18Z</time>
      </trkpt>
      <trkpt lat="41.730921" lon="2.311283">
        <ele>950.80</ele>
        <time>2021-05-22T07:40:33Z</time>
      </trkpt>
      <trkpt lat="41.730941" lon="2.311272">
        <ele>950.80</ele>
        <time>2021-05-22T07:40:47Z</time>
      </trkpt>
      <trkpt lat="41.730915" lon="2.311287">
        <ele>951.20</ele>
        <time>2021-05-22T07:41:00Z</time>
      </trkpt>
      <trkpt lat="41.730895" lon="2.311334">
        <ele>951.60</ele>
        <time>2021-05-22T07:41:13Z</time>
      </trkpt>
      <trkpt lat="41.730896" lon="2.311334">
        <ele>952.00</ele>
        <time>2021-05-22T07:41:16Z</time>
      </trkpt>
      <trkpt lat="41.730895" lon="2.311332">
        <ele>952.20</ele>
        <time>2021-05-22T07:41:17Z</time>
      </trkpt>
      <trkpt lat="41.730897" lon="2.311310">
        <ele>953.20</ele>
        <time>2021-05-22T07:41:25Z</time>
      </trkpt>
      <trkpt lat="41.730904" lon="2.311310">
        <ele>953.80</ele>
        <time>2021-05-22T07:41:27Z</time>
      </trkpt>
      <trkpt lat="41.730908" lon="2.311312">
        <ele>954.20</ele>
        <time>2021-05-22T07:41:29Z</time>
      </trkpt>
      <trkpt lat="41.730923" lon="2.311331">
        <ele>955.00</ele>
        <time>2021-05-22T07:41:33Z</time>
      </trkpt>
      <trkpt lat="41.730927" lon="2.311335">
        <ele>955.20</ele>
        <time>2021-05-22T07:41:35Z</time>
      </trkpt>
      <trkpt lat="41.730923" lon="2.311328">
        <ele>955.40</ele>
        <time>2021-05-22T07:41:39Z</time>
      </trkpt>
      <trkpt lat="41.730905" lon="2.311320">
        <ele>954.20</ele>
        <time>2021-05-22T07:41:46Z</time>
      </trkpt>
      <trkpt lat="41.730906" lon="2.311318">
        <ele>953.00</ele>
        <time>2021-05-22T07:41:50Z</time>
      </trkpt>
      <trkpt lat="41.730921" lon="2.311313">
        <ele>953.40</ele>
        <time>2021-05-22T07:41:55Z</time>
      </trkpt>
      <trkpt lat="41.730941" lon="2.311329">
        <ele>954.40</ele>
        <time>2021-05-22T07:42:01Z</time>
      </trkpt>
      <trkpt lat="41.730964" lon="2.311343">
        <ele>955.40</ele>
        <time>2021-05-22T07:42:05Z</time>
      </trkpt>
      <trkpt lat="41.730967" lon="2.311352">
        <ele>955.60</ele>
        <time>2021-05-22T07:42:06Z</time>
      </trkpt>
      <trkpt lat="41.730968" lon="2.311355">
        <ele>956.00</ele>
        <time>2021-05-22T07:42:07Z</time>
      </trkpt>
      <trkpt lat="41.730978" lon="2.311367">
        <ele>956.60</ele>
        <time>2021-05-22T07:42:09Z</time>
      </trkpt>
      <trkpt lat="41.731002" lon="2.311392">
        <ele>957.80</ele>
        <time>2021-05-22T07:42:16Z</time>
      </trkpt>
      <trkpt lat="41.731025" lon="2.311411">
        <ele>958.80</ele>
        <time>2021-05-22T07:42:21Z</time>
      </trkpt>
      <trkpt lat="41.731030" lon="2.311414">
        <ele>958.80</ele>
        <time>2021-05-22T07:42:22Z</time>
      </trkpt>
      <trkpt lat="41.731023" lon="2.311403">
        <ele>958.80</ele>
        <time>2021-05-22T07:42:28Z</time>
      </trkpt>
      <trkpt lat="41.731030" lon="2.311403">
        <ele>959.00</ele>
        <time>2021-05-22T07:42:31Z</time>
      </trkpt>
      <trkpt lat="41.731039" lon="2.311403">
        <ele>959.00</ele>
        <time>2021-05-22T07:42:32Z</time>
      </trkpt>
      <trkpt lat="41.731057" lon="2.311403">
        <ele>959.80</ele>
        <time>2021-05-22T07:42:36Z</time>
      </trkpt>
      <trkpt lat="41.731073" lon="2.311406">
        <ele>960.80</ele>
        <time>2021-05-22T07:42:41Z</time>
      </trkpt>
      <trkpt lat="41.731098" lon="2.311430">
        <ele>961.80</ele>
        <time>2021-05-22T07:42:45Z</time>
      </trkpt>
      <trkpt lat="41.731098" lon="2.311430">
        <ele>962.00</ele>
        <time>2021-05-22T07:42:46Z</time>
      </trkpt>
      <trkpt lat="41.731094" lon="2.311427">
        <ele>962.00</ele>
        <time>2021-05-22T07:42:48Z</time>
      </trkpt>
      <trkpt lat="41.731073" lon="2.311425">
        <ele>961.40</ele>
        <time>2021-05-22T07:42:55Z</time>
      </trkpt>
      <trkpt lat="41.731053" lon="2.311401">
        <ele>960.80</ele>
        <time>2021-05-22T07:43:09Z</time>
      </trkpt>
      <trkpt lat="41.731048" lon="2.311408">
        <ele>960.80</ele>
        <time>2021-05-22T07:43:10Z</time>
      </trkpt>
      <trkpt lat="41.731023" lon="2.311412">
        <ele>960.00</ele>
        <time>2021-05-22T07:43:23Z</time>
      </trkpt>
      <trkpt lat="41.731016" lon="2.311407">
        <ele>959.80</ele>
        <time>2021-05-22T07:43:25Z</time>
      </trkpt>
      <trkpt lat="41.730989" lon="2.311396">
        <ele>959.00</ele>
        <time>2021-05-22T07:43:34Z</time>
      </trkpt>
      <trkpt lat="41.730967" lon="2.311398">
        <ele>958.80</ele>
        <time>2021-05-22T07:43:43Z</time>
      </trkpt>
      <trkpt lat="41.730964" lon="2.311400">
        <ele>958.40</ele>
        <time>2021-05-22T07:43:44Z</time>
      </trkpt>
      <trkpt lat="41.730947" lon="2.311396">
        <ele>957.60</ele>
        <time>2021-05-22T07:43:54Z</time>
      </trkpt>
      <trkpt lat="41.730945" lon="2.311396">
        <ele>957.20</ele>
        <time>2021-05-22T07:43:56Z</time>
      </trkpt>
      <trkpt lat="41.730967" lon="2.311398">
        <ele>956.80</ele>
        <time>2021-05-22T07:44:10Z</time>
      </trkpt>
      <trkpt lat="41.730982" lon="2.311392">
        <ele>957.80</ele>
        <time>2021-05-22T07:44:15Z</time>
      </trkpt>
      <trkpt lat="41.730988" lon="2.311390">
        <ele>958.20</ele>
        <time>2021-05-22T07:44:18Z</time>
      </trkpt>
      <trkpt lat="41.730992" lon="2.311381">
        <ele>958.40</ele>
        <time>2021-05-22T07:44:24Z</time>
      </trkpt>
      <trkpt lat="41.730991" lon="2.311375">
        <ele>958.60</ele>
        <time>2021-05-22T07:44:32Z</time>
      </trkpt>
      <trkpt lat="41.730983" lon="2.311399">
        <ele>958.60</ele>
        <time>2021-05-22T07:44:37Z</time>
      </trkpt>
      <trkpt lat="41.730981" lon="2.311405">
        <ele>958.80</ele>
        <time>2021-05-22T07:44:45Z</time>
      </trkpt>
      <trkpt lat="41.730981" lon="2.311405">
        <ele>958.80</ele>
        <time>2021-05-22T07:44:46Z</time>
      </trkpt>
      <trkpt lat="41.730982" lon="2.311405">
        <ele>958.80</ele>
        <time>2021-05-22T07:44:48Z</time>
      </trkpt>
      <trkpt lat="41.730988" lon="2.311406">
        <ele>958.80</ele>
        <time>2021-05-22T07:44:50Z</time>
      </trkpt>
      <trkpt lat="41.731020" lon="2.311400">
        <ele>959.80</ele>
        <time>2021-05-22T07:44:58Z</time>
      </trkpt>
      <trkpt lat="41.731034" lon="2.311409">
        <ele>960.80</ele>
        <time>2021-05-22T07:45:03Z</time>
      </trkpt>
      <trkpt lat="41.731044" lon="2.311411">
        <ele>961.00</ele>
        <time>2021-05-22T07:45:05Z</time>
      </trkpt>
      <trkpt lat="41.731051" lon="2.311436">
        <ele>961.40</ele>
        <time>2021-05-22T07:45:17Z</time>
      </trkpt>
      <trkpt lat="41.731060" lon="2.311440">
        <ele>961.80</ele>
        <time>2021-05-22T07:45:21Z</time>
      </trkpt>
      <trkpt lat="41.731081" lon="2.311421">
        <ele>961.20</ele>
        <time>2021-05-22T07:45:28Z</time>
      </trkpt>
      <trkpt lat="41.731093" lon="2.311425">
        <ele>961.00</ele>
        <time>2021-05-22T07:45:30Z</time>
      </trkpt>
      <trkpt lat="41.731099" lon="2.311445">
        <ele>961.80</ele>
        <time>2021-05-22T07:45:46Z</time>
      </trkpt>
      <trkpt lat="41.731112" lon="2.311479">
        <ele>962.20</ele>
        <time>2021-05-22T07:45:55Z</time>
      </trkpt>
      <trkpt lat="41.731113" lon="2.311486">
        <ele>962.20</ele>
        <time>2021-05-22T07:45:57Z</time>
      </trkpt>
      <trkpt lat="41.731115" lon="2.311502">
        <ele>962.60</ele>
        <time>2021-05-22T07:46:00Z</time>
      </trkpt>
      <trkpt lat="41.731118" lon="2.311506">
        <ele>962.80</ele>
        <time>2021-05-22T07:46:01Z</time>
      </trkpt>
      <trkpt lat="41.731120" lon="2.311510">
        <ele>963.00</ele>
        <time>2021-05-22T07:46:02Z</time>
      </trkpt>
      <trkpt lat="41.731119" lon="2.311536">
        <ele>963.40</ele>
        <time>2021-05-22T07:46:07Z</time>
      </trkpt>
      <trkpt lat="41.731115" lon="2.311537">
        <ele>963.60</ele>
        <time>2021-05-22T07:46:09Z</time>
      </trkpt>
      <trkpt lat="41.731123" lon="2.311543">
        <ele>963.60</ele>
        <time>2021-05-22T07:46:10Z</time>
      </trkpt>
      <trkpt lat="41.731123" lon="2.311543">
        <ele>963.60</ele>
        <time>2021-05-22T07:46:11Z</time>
      </trkpt>
      <trkpt lat="41.731126" lon="2.311543">
        <ele>964.00</ele>
        <time>2021-05-22T07:46:12Z</time>
      </trkpt>
      <trkpt lat="41.731125" lon="2.311544">
        <ele>964.80</ele>
        <time>2021-05-22T07:46:16Z</time>
      </trkpt>
      <trkpt lat="41.731119" lon="2.311511">
        <ele>963.60</ele>
        <time>2021-05-22T07:46:23Z</time>
      </trkpt>
      <trkpt lat="41.731117" lon="2.311503">
        <ele>963.00</ele>
        <time>2021-05-22T07:46:25Z</time>
      </trkpt>
      <trkpt lat="41.731131" lon="2.311479">
        <ele>962.60</ele>
        <time>2021-05-22T07:46:38Z</time>
      </trkpt>
      <trkpt lat="41.731124" lon="2.311500">
        <ele>962.60</ele>
        <time>2021-05-22T07:46:50Z</time>
      </trkpt>
      <trkpt lat="41.731132" lon="2.311506">
        <ele>962.60</ele>
        <time>2021-05-22T07:46:51Z</time>
      </trkpt>
      <trkpt lat="41.731141" lon="2.311541">
        <ele>963.40</ele>
        <time>2021-05-22T07:47:04Z</time>
      </trkpt>
      <trkpt lat="41.731144" lon="2.311537">
        <ele>963.60</ele>
        <time>2021-05-22T07:47:06Z</time>
      </trkpt>
      <trkpt lat="41.731144" lon="2.311532">
        <ele>963.60</ele>
        <time>2021-05-22T07:47:08Z</time>
      </trkpt>
      <trkpt lat="41.731141" lon="2.311572">
        <ele>963.60</ele>
        <time>2021-05-22T07:47:20Z</time>
      </trkpt>
      <trkpt lat="41.731179" lon="2.311592">
        <ele>963.60</ele>
        <time>2021-05-22T07:47:29Z</time>
      </trkpt>
      <trkpt lat="41.731246" lon="2.311622">
        <ele>963.60</ele>
        <time>2021-05-22T07:47:40Z</time>
      </trkpt>
      <trkpt lat="41.731277" lon="2.311640">
        <ele>963.60</ele>
        <time>2021-05-22T07:47:43Z</time>
      </trkpt>
      <trkpt lat="41.731294" lon="2.311656">
        <ele>963.60</ele>
        <time>2021-05-22T07:47:49Z</time>
      </trkpt>
      <trkpt lat="41.731294" lon="2.311654">
        <ele>963.60</ele>
        <time>2021-05-22T07:47:50Z</time>
      </trkpt>
      <trkpt lat="41.731299" lon="2.311647">
        <ele>963.60</ele>
        <time>2021-05-22T07:47:54Z</time>
      </trkpt>
      <trkpt lat="41.731285" lon="2.311639">
        <ele>963.60</ele>
        <time>2021-05-22T07:48:05Z</time>
      </trkpt>
      <trkpt lat="41.731278" lon="2.311634">
        <ele>969.40</ele>
        <time>2021-05-22T07:48:07Z</time>
      </trkpt>
      <trkpt lat="41.731262" lon="2.311633">
        <ele>969.80</ele>
        <time>2021-05-22T07:48:12Z</time>
      </trkpt>
      <trkpt lat="41.731248" lon="2.311618">
        <ele>970.20</ele>
        <time>2021-05-22T07:48:15Z</time>
      </trkpt>
      <trkpt lat="41.731239" lon="2.311605">
        <ele>969.60</ele>
        <time>2021-05-22T07:48:16Z</time>
      </trkpt>
      <trkpt lat="41.731239" lon="2.311605">
        <ele>969.40</ele>
        <time>2021-05-22T07:48:17Z</time>
      </trkpt>
      <trkpt lat="41.731207" lon="2.311599">
        <ele>968.60</ele>
        <time>2021-05-22T07:48:26Z</time>
      </trkpt>
      <trkpt lat="41.731196" lon="2.311589">
        <ele>968.40</ele>
        <time>2021-05-22T07:48:28Z</time>
      </trkpt>
      <trkpt lat="41.731200" lon="2.311590">
        <ele>968.40</ele>
        <time>2021-05-22T07:48:38Z</time>
      </trkpt>
      <trkpt lat="41.731195" lon="2.311589">
        <ele>968.20</ele>
        <time>2021-05-22T07:48:41Z</time>
      </trkpt>
      <trkpt lat="41.731187" lon="2.311579">
        <ele>967.80</ele>
        <time>2021-05-22T07:48:43Z</time>
      </trkpt>
      <trkpt lat="41.731186" lon="2.311572">
        <ele>967.40</ele>
        <time>2021-05-22T07:48:45Z</time>
      </trkpt>
      <trkpt lat="41.731183" lon="2.311562">
        <ele>967.00</ele>
        <time>2021-05-22T07:48:49Z</time>
      </trkpt>
      <trkpt lat="41.731182" lon="2.311555">
        <ele>967.00</ele>
        <time>2021-05-22T07:49:00Z</time>
      </trkpt>
      <trkpt lat="41.731157" lon="2.311551">
        <ele>966.40</ele>
        <time>2021-05-22T07:49:11Z</time>
      </trkpt>
      <trkpt lat="41.731154" lon="2.311532">
        <ele>966.40</ele>
        <time>2021-05-22T07:49:17Z</time>
      </trkpt>
      <trkpt lat="41.731169" lon="2.311541">
        <ele>966.40</ele>
        <time>2021-05-22T07:49:22Z</time>
      </trkpt>
      <trkpt lat="41.731170" lon="2.311537">
        <ele>967.00</ele>
        <time>2021-05-22T07:49:27Z</time>
      </trkpt>
      <trkpt lat="41.731166" lon="2.311538">
        <ele>966.80</ele>
        <time>2021-05-22T07:49:29Z</time>
      </trkpt>
      <trkpt lat="41.731162" lon="2.311543">
        <ele>966.20</ele>
        <time>2021-05-22T07:49:33Z</time>
      </trkpt>
      <trkpt lat="41.731153" lon="2.311539">
        <ele>965.80</ele>
        <time>2021-05-22T07:49:40Z</time>
      </trkpt>
      <trkpt lat="41.731168" lon="2.311549">
        <ele>965.40</ele>
        <time>2021-05-22T07:49:47Z</time>
      </trkpt>
      <trkpt lat="41.731204" lon="2.311603">
        <ele>967.00</ele>
        <time>2021-05-22T07:49:56Z</time>
      </trkpt>
      <trkpt lat="41.731206" lon="2.311605">
        <ele>967.20</ele>
        <time>2021-05-22T07:49:57Z</time>
      </trkpt>
      <trkpt lat="41.731208" lon="2.311608">
        <ele>967.60</ele>
        <time>2021-05-22T07:49:58Z</time>
      </trkpt>
      <trkpt lat="41.731236" lon="2.311637">
        <ele>968.60</ele>
        <time>2021-05-22T07:50:05Z</time>
      </trkpt>
      <trkpt lat="41.731258" lon="2.311660">
        <ele>969.80</ele>
        <time>2021-05-22T07:50:10Z</time>
      </trkpt>
      <trkpt lat="41.731276" lon="2.311666">
        <ele>970.20</ele>
        <time>2021-05-22T07:50:12Z</time>
      </trkpt>
      <trkpt lat="41.731294" lon="2.311661">
        <ele>970.80</ele>
        <time>2021-05-22T07:50:15Z</time>
      </trkpt>
      <trkpt lat="41.731315" lon="2.311658">
        <ele>971.00</ele>
        <time>2021-05-22T07:50:22Z</time>
      </trkpt>
      <trkpt lat="41.731325" lon="2.311670">
        <ele>971.00</ele>
        <time>2021-05-22T07:50:24Z</time>
      </trkpt>
      <trkpt lat="41.731330" lon="2.311686">
        <ele>971.80</ele>
        <time>2021-05-22T07:50:27Z</time>
      </trkpt>
      <trkpt lat="41.731343" lon="2.311732">
        <ele>972.80</ele>
        <time>2021-05-22T07:50:32Z</time>
      </trkpt>
      <trkpt lat="41.731347" lon="2.311739">
        <ele>973.00</ele>
        <time>2021-05-22T07:50:33Z</time>
      </trkpt>
      <trkpt lat="41.731377" lon="2.311766">
        <ele>974.00</ele>
        <time>2021-05-22T07:50:38Z</time>
      </trkpt>
      <trkpt lat="41.731390" lon="2.311777">
        <ele>975.00</ele>
        <time>2021-05-22T07:50:41Z</time>
      </trkpt>
      <trkpt lat="41.731398" lon="2.311779">
        <ele>975.20</ele>
        <time>2021-05-22T07:50:42Z</time>
      </trkpt>
      <trkpt lat="41.731399" lon="2.311783">
        <ele>975.40</ele>
        <time>2021-05-22T07:50:45Z</time>
      </trkpt>
      <trkpt lat="41.731395" lon="2.311779">
        <ele>975.60</ele>
        <time>2021-05-22T07:50:48Z</time>
      </trkpt>
      <trkpt lat="41.731398" lon="2.311781">
        <ele>975.60</ele>
        <time>2021-05-22T07:50:50Z</time>
      </trkpt>
      <trkpt lat="41.731426" lon="2.311805">
        <ele>976.20</ele>
        <time>2021-05-22T07:50:55Z</time>
      </trkpt>
      <trkpt lat="41.731455" lon="2.311844">
        <ele>977.20</ele>
        <time>2021-05-22T07:51:02Z</time>
      </trkpt>
      <trkpt lat="41.731484" lon="2.311871">
        <ele>978.20</ele>
        <time>2021-05-22T07:51:08Z</time>
      </trkpt>
      <trkpt lat="41.731480" lon="2.311871">
        <ele>978.20</ele>
        <time>2021-05-22T07:51:09Z</time>
      </trkpt>
      <trkpt lat="41.731457" lon="2.311837">
        <ele>977.80</ele>
        <time>2021-05-22T07:51:13Z</time>
      </trkpt>
      <trkpt lat="41.731459" lon="2.311829">
        <ele>977.60</ele>
        <time>2021-05-22T07:51:15Z</time>
      </trkpt>
      <trkpt lat="41.731457" lon="2.311812">
        <ele>977.20</ele>
        <time>2021-05-22T07:51:18Z</time>
      </trkpt>
      <trkpt lat="41.731457" lon="2.311816">
        <ele>977.40</ele>
        <time>2021-05-22T07:51:22Z</time>
      </trkpt>
      <trkpt lat="41.731458" lon="2.311820">
        <ele>977.40</ele>
        <time>2021-05-22T07:51:23Z</time>
      </trkpt>
      <trkpt lat="41.731457" lon="2.311823">
        <ele>977.40</ele>
        <time>2021-05-22T07:51:25Z</time>
      </trkpt>
      <trkpt lat="41.731456" lon="2.311819">
        <ele>977.40</ele>
        <time>2021-05-22T07:51:26Z</time>
      </trkpt>
      <trkpt lat="41.731453" lon="2.311806">
        <ele>977.20</ele>
        <time>2021-05-22T07:51:31Z</time>
      </trkpt>
      <trkpt lat="41.731452" lon="2.311808">
        <ele>977.40</ele>
        <time>2021-05-22T07:51:32Z</time>
      </trkpt>
      <trkpt lat="41.731440" lon="2.311799">
        <ele>976.80</ele>
        <time>2021-05-22T07:51:38Z</time>
      </trkpt>
      <trkpt lat="41.731424" lon="2.311805">
        <ele>977.00</ele>
        <time>2021-05-22T07:51:41Z</time>
      </trkpt>
      <trkpt lat="41.731419" lon="2.311808">
        <ele>977.20</ele>
        <time>2021-05-22T07:51:45Z</time>
      </trkpt>
      <trkpt lat="41.731415" lon="2.311818">
        <ele>977.00</ele>
        <time>2021-05-22T07:51:52Z</time>
      </trkpt>
      <trkpt lat="41.731422" lon="2.311813">
        <ele>976.80</ele>
        <time>2021-05-22T07:51:58Z</time>
      </trkpt>
      <trkpt lat="41.731443" lon="2.311805">
        <ele>976.20</ele>
        <time>2021-05-22T07:52:04Z</time>
      </trkpt>
      <trkpt lat="41.731448" lon="2.311817">
        <ele>976.60</ele>
        <time>2021-05-22T07:52:07Z</time>
      </trkpt>
      <trkpt lat="41.731462" lon="2.311837">
        <ele>976.80</ele>
        <time>2021-05-22T07:52:10Z</time>
      </trkpt>
      <trkpt lat="41.731467" lon="2.311845">
        <ele>978.00</ele>
        <time>2021-05-22T07:52:11Z</time>
      </trkpt>
      <trkpt lat="41.731475" lon="2.311857">
        <ele>978.00</ele>
        <time>2021-05-22T07:52:12Z</time>
      </trkpt>
      <trkpt lat="41.731486" lon="2.311882">
        <ele>978.00</ele>
        <time>2021-05-22T07:52:14Z</time>
      </trkpt>
      <trkpt lat="41.731503" lon="2.311905">
        <ele>978.00</ele>
        <time>2021-05-22T07:52:18Z</time>
      </trkpt>
      <trkpt lat="41.731515" lon="2.311953">
        <ele>978.20</ele>
        <time>2021-05-22T07:52:25Z</time>
      </trkpt>
      <trkpt lat="41.731515" lon="2.311964">
        <ele>978.20</ele>
        <time>2021-05-22T07:52:28Z</time>
      </trkpt>
      <trkpt lat="41.731480" lon="2.311950">
        <ele>978.00</ele>
        <time>2021-05-22T07:52:38Z</time>
      </trkpt>
      <trkpt lat="41.731465" lon="2.311913">
        <ele>977.80</ele>
        <time>2021-05-22T07:52:52Z</time>
      </trkpt>
      <trkpt lat="41.731467" lon="2.311901">
        <ele>977.80</ele>
        <time>2021-05-22T07:52:56Z</time>
      </trkpt>
      <trkpt lat="41.731450" lon="2.311894">
        <ele>977.60</ele>
        <time>2021-05-22T07:53:04Z</time>
      </trkpt>
      <trkpt lat="41.731461" lon="2.311895">
        <ele>977.80</ele>
        <time>2021-05-22T07:53:14Z</time>
      </trkpt>
      <trkpt lat="41.731468" lon="2.311896">
        <ele>977.80</ele>
        <time>2021-05-22T07:53:19Z</time>
      </trkpt>
      <trkpt lat="41.731498" lon="2.311923">
        <ele>978.00</ele>
        <time>2021-05-22T07:53:24Z</time>
      </trkpt>
      <trkpt lat="41.731553" lon="2.312001">
        <ele>978.20</ele>
        <time>2021-05-22T07:53:39Z</time>
      </trkpt>
      <trkpt lat="41.731531" lon="2.311972">
        <ele>978.20</ele>
        <time>2021-05-22T07:53:49Z</time>
      </trkpt>
      <trkpt lat="41.731509" lon="2.311951">
        <ele>978.20</ele>
        <time>2021-05-22T07:54:00Z</time>
      </trkpt>
      <trkpt lat="41.731507" lon="2.311944">
        <ele>978.20</ele>
        <time>2021-05-22T07:54:05Z</time>
      </trkpt>
      <trkpt lat="41.731514" lon="2.311951">
        <ele>978.20</ele>
        <time>2021-05-22T07:54:10Z</time>
      </trkpt>
      <trkpt lat="41.731514" lon="2.311952">
        <ele>978.20</ele>
        <time>2021-05-22T07:54:12Z</time>
      </trkpt>
      <trkpt lat="41.731554" lon="2.311988">
        <ele>978.20</ele>
        <time>2021-05-22T07:54:25Z</time>
      </trkpt>
      <trkpt lat="41.731632" lon="2.312045">
        <ele>978.20</ele>
        <time>2021-05-22T07:54:41Z</time>
      </trkpt>
      <trkpt lat="41.731649" lon="2.312058">
        <ele>978.20</ele>
        <time>2021-05-22T07:54:46Z</time>
      </trkpt>
      <trkpt lat="41.731631" lon="2.312040">
        <ele>978.20</ele>
        <time>2021-05-22T07:54:48Z</time>
      </trkpt>
      <trkpt lat="41.731631" lon="2.312040">
        <ele>978.20</ele>
        <time>2021-05-22T07:54:49Z</time>
      </trkpt>
      <trkpt lat="41.731623" lon="2.312040">
        <ele>978.20</ele>
        <time>2021-05-22T07:54:51Z</time>
      </trkpt>
      <trkpt lat="41.731624" lon="2.312037">
        <ele>978.20</ele>
        <time>2021-05-22T07:54:54Z</time>
      </trkpt>
      <trkpt lat="41.731609" lon="2.312030">
        <ele>978.20</ele>
        <time>2021-05-22T07:55:02Z</time>
      </trkpt>
      <trkpt lat="41.731601" lon="2.312026">
        <ele>978.20</ele>
        <time>2021-05-22T07:55:05Z</time>
      </trkpt>
      <trkpt lat="41.731645" lon="2.312079">
        <ele>978.20</ele>
        <time>2021-05-22T07:55:15Z</time>
      </trkpt>
      <trkpt lat="41.731657" lon="2.312091">
        <ele>978.20</ele>
        <time>2021-05-22T07:55:18Z</time>
      </trkpt>
      <trkpt lat="41.731655" lon="2.312085">
        <ele>978.20</ele>
        <time>2021-05-22T07:55:27Z</time>
      </trkpt>
      <trkpt lat="41.731660" lon="2.312090">
        <ele>982.80</ele>
        <time>2021-05-22T07:55:28Z</time>
      </trkpt>
      <trkpt lat="41.731681" lon="2.312128">
        <ele>984.00</ele>
        <time>2021-05-22T07:55:35Z</time>
      </trkpt>
      <trkpt lat="41.731686" lon="2.312133">
        <ele>984.20</ele>
        <time>2021-05-22T07:55:37Z</time>
      </trkpt>
      <trkpt lat="41.731688" lon="2.312133">
        <ele>984.40</ele>
        <time>2021-05-22T07:55:38Z</time>
      </trkpt>
      <trkpt lat="41.731696" lon="2.312139">
        <ele>984.40</ele>
        <time>2021-05-22T07:55:39Z</time>
      </trkpt>
      <trkpt lat="41.731707" lon="2.312145">
        <ele>984.60</ele>
        <time>2021-05-22T07:55:40Z</time>
      </trkpt>
      <trkpt lat="41.731710" lon="2.312146">
        <ele>985.00</ele>
        <time>2021-05-22T07:55:41Z</time>
      </trkpt>
      <trkpt lat="41.731742" lon="2.312164">
        <ele>986.00</ele>
        <time>2021-05-22T07:55:46Z</time>
      </trkpt>
      <trkpt lat="41.731745" lon="2.312166">
        <ele>986.20</ele>
        <time>2021-05-22T07:55:47Z</time>
      </trkpt>
      <trkpt lat="41.731733" lon="2.312144">
        <ele>985.20</ele>
        <time>2021-05-22T07:55:55Z</time>
      </trkpt>
      <trkpt lat="41.731730" lon="2.312142">
        <ele>985.00</ele>
        <time>2021-05-22T07:55:56Z</time>
      </trkpt>
      <trkpt lat="41.731730" lon="2.312142">
        <ele>984.80</ele>
        <time>2021-05-22T07:56:03Z</time>
      </trkpt>
      <trkpt lat="41.731730" lon="2.312142">
        <ele>984.80</ele>
        <time>2021-05-22T07:56:04Z</time>
      </trkpt>
      <trkpt lat="41.731707" lon="2.312160">
        <ele>985.00</ele>
        <time>2021-05-22T07:56:11Z</time>
      </trkpt>
      <trkpt lat="41.731726" lon="2.312180">
        <ele>986.40</ele>
        <time>2021-05-22T07:56:19Z</time>
      </trkpt>
      <trkpt lat="41.731734" lon="2.312180">
        <ele>987.00</ele>
        <time>2021-05-22T07:56:22Z</time>
      </trkpt>
      <trkpt lat="41.731751" lon="2.312203">
        <ele>987.00</ele>
        <time>2021-05-22T07:56:33Z</time>
      </trkpt>
      <trkpt lat="41.731751" lon="2.312213">
        <ele>987.40</ele>
        <time>2021-05-22T07:56:36Z</time>
      </trkpt>
      <trkpt lat="41.731785" lon="2.312250">
        <ele>988.40</ele>
        <time>2021-05-22T07:56:41Z</time>
      </trkpt>
      <trkpt lat="41.731808" lon="2.312276">
        <ele>988.60</ele>
        <time>2021-05-22T07:56:44Z</time>
      </trkpt>
      <trkpt lat="41.731852" lon="2.312319">
        <ele>989.20</ele>
        <time>2021-05-22T07:56:50Z</time>
      </trkpt>
      <trkpt lat="41.731920" lon="2.312371">
        <ele>989.00</ele>
        <time>2021-05-22T07:56:59Z</time>
      </trkpt>
      <trkpt lat="41.731951" lon="2.312368">
        <ele>989.00</ele>
        <time>2021-05-22T07:57:02Z</time>
      </trkpt>
      <trkpt lat="41.732008" lon="2.312387">
        <ele>989.60</ele>
        <time>2021-05-22T07:57:07Z</time>
      </trkpt>
      <trkpt lat="41.732039" lon="2.312379">
        <ele>989.60</ele>
        <time>2021-05-22T07:57:12Z</time>
      </trkpt>
      <trkpt lat="41.732051" lon="2.312375">
        <ele>989.40</ele>
        <time>2021-05-22T07:57:16Z</time>
      </trkpt>
      <trkpt lat="41.732082" lon="2.312375">
        <ele>990.00</ele>
        <time>2021-05-22T07:57:22Z</time>
      </trkpt>
      <trkpt lat="41.732082" lon="2.312379">
        <ele>990.00</ele>
        <time>2021-05-22T07:57:23Z</time>
      </trkpt>
      <trkpt lat="41.732085" lon="2.312383">
        <ele>990.00</ele>
        <time>2021-05-22T07:57:27Z</time>
      </trkpt>
      <trkpt lat="41.732085" lon="2.312383">
        <ele>990.00</ele>
        <time>2021-05-22T07:57:28Z</time>
      </trkpt>
      <trkpt lat="41.732096" lon="2.312394">
        <ele>990.20</ele>
        <time>2021-05-22T07:57:31Z</time>
      </trkpt>
      <trkpt lat="41.732094" lon="2.312396">
        <ele>990.40</ele>
        <time>2021-05-22T07:57:35Z</time>
      </trkpt>
      <trkpt lat="41.732105" lon="2.312400">
        <ele>990.40</ele>
        <time>2021-05-22T07:57:37Z</time>
      </trkpt>
      <trkpt lat="41.732128" lon="2.312415">
        <ele>990.60</ele>
        <time>2021-05-22T07:57:41Z</time>
      </trkpt>
      <trkpt lat="41.732128" lon="2.312415">
        <ele>991.00</ele>
        <time>2021-05-22T07:57:43Z</time>
      </trkpt>
      <trkpt lat="41.732173" lon="2.312449">
        <ele>991.80</ele>
        <time>2021-05-22T07:57:50Z</time>
      </trkpt>
      <trkpt lat="41.732182" lon="2.312451">
        <ele>992.00</ele>
        <time>2021-05-22T07:57:52Z</time>
      </trkpt>
      <trkpt lat="41.732215" lon="2.312491">
        <ele>992.00</ele>
        <time>2021-05-22T07:58:01Z</time>
      </trkpt>
      <trkpt lat="41.732229" lon="2.312562">
        <ele>992.80</ele>
        <time>2021-05-22T07:58:11Z</time>
      </trkpt>
      <trkpt lat="41.732250" lon="2.312619">
        <ele>993.80</ele>
        <time>2021-05-22T07:58:18Z</time>
      </trkpt>
      <trkpt lat="41.732250" lon="2.312623">
        <ele>994.00</ele>
        <time>2021-05-22T07:58:19Z</time>
      </trkpt>
      <trkpt lat="41.732260" lon="2.312636">
        <ele>994.40</ele>
        <time>2021-05-22T07:58:21Z</time>
      </trkpt>
      <trkpt lat="41.732273" lon="2.312671">
        <ele>994.60</ele>
        <time>2021-05-22T07:58:24Z</time>
      </trkpt>
      <trkpt lat="41.732278" lon="2.312686">
        <ele>994.60</ele>
        <time>2021-05-22T07:58:25Z</time>
      </trkpt>
      <trkpt lat="41.732314" lon="2.312749">
        <ele>995.40</ele>
        <time>2021-05-22T07:58:30Z</time>
      </trkpt>
      <trkpt lat="41.732337" lon="2.312799">
        <ele>996.40</ele>
        <time>2021-05-22T07:58:37Z</time>
      </trkpt>
      <trkpt lat="41.732344" lon="2.312804">
        <ele>996.40</ele>
        <time>2021-05-22T07:58:42Z</time>
      </trkpt>
      <trkpt lat="41.732346" lon="2.312803">
        <ele>996.80</ele>
        <time>2021-05-22T07:58:46Z</time>
      </trkpt>
      <trkpt lat="41.732354" lon="2.312802">
        <ele>996.80</ele>
        <time>2021-05-22T07:58:51Z</time>
      </trkpt>
      <trkpt lat="41.732358" lon="2.312799">
        <ele>996.60</ele>
        <time>2021-05-22T07:58:53Z</time>
      </trkpt>
      <trkpt lat="41.732375" lon="2.312823">
        <ele>997.20</ele>
        <time>2021-05-22T07:58:58Z</time>
      </trkpt>
      <trkpt lat="41.732385" lon="2.312865">
        <ele>997.40</ele>
        <time>2021-05-22T07:59:02Z</time>
      </trkpt>
      <trkpt lat="41.732413" lon="2.312967">
        <ele>997.60</ele>
        <time>2021-05-22T07:59:06Z</time>
      </trkpt>
      <trkpt lat="41.732428" lon="2.313020">
        <ele>998.80</ele>
        <time>2021-05-22T07:59:10Z</time>
      </trkpt>
      <trkpt lat="41.732438" lon="2.313062">
        <ele>999.20</ele>
        <time>2021-05-22T07:59:13Z</time>
      </trkpt>
      <trkpt lat="41.732443" lon="2.313095">
        <ele>999.60</ele>
        <time>2021-05-22T07:59:15Z</time>
      </trkpt>
      <trkpt lat="41.732442" lon="2.313133">
        <ele>999.80</ele>
        <time>2021-05-22T07:59:17Z</time>
      </trkpt>
      <trkpt lat="41.732450" lon="2.313192">
        <ele>1000.80</ele>
        <time>2021-05-22T07:59:21Z</time>
      </trkpt>
      <trkpt lat="41.732457" lon="2.313219">
        <ele>1001.00</ele>
        <time>2021-05-22T07:59:23Z</time>
      </trkpt>
      <trkpt lat="41.732457" lon="2.313219">
        <ele>1001.20</ele>
        <time>2021-05-22T07:59:24Z</time>
      </trkpt>
      <trkpt lat="41.732466" lon="2.313269">
        <ele>1001.80</ele>
        <time>2021-05-22T07:59:28Z</time>
      </trkpt>
      <trkpt lat="41.732460" lon="2.313277">
        <ele>1001.80</ele>
        <time>2021-05-22T07:59:30Z</time>
      </trkpt>
      <trkpt lat="41.732467" lon="2.313337">
        <ele>1002.80</ele>
        <time>2021-05-22T07:59:38Z</time>
      </trkpt>
      <trkpt lat="41.732462" lon="2.313342">
        <ele>1002.80</ele>
        <time>2021-05-22T07:59:39Z</time>
      </trkpt>
      <trkpt lat="41.732469" lon="2.313362">
        <ele>1003.20</ele>
        <time>2021-05-22T07:59:45Z</time>
      </trkpt>
      <trkpt lat="41.732469" lon="2.313382">
        <ele>1003.60</ele>
        <time>2021-05-22T07:59:48Z</time>
      </trkpt>
      <trkpt lat="41.732469" lon="2.313379">
        <ele>1003.60</ele>
        <time>2021-05-22T07:59:49Z</time>
      </trkpt>
      <trkpt lat="41.732476" lon="2.313383">
        <ele>1003.60</ele>
        <time>2021-05-22T07:59:52Z</time>
      </trkpt>
      <trkpt lat="41.732480" lon="2.313385">
        <ele>1003.60</ele>
        <time>2021-05-22T07:59:53Z</time>
      </trkpt>
      <trkpt lat="41.732485" lon="2.313398">
        <ele>1003.80</ele>
        <time>2021-05-22T07:59:57Z</time>
      </trkpt>
      <trkpt lat="41.732482" lon="2.313405">
        <ele>1004.00</ele>
        <time>2021-05-22T08:00:01Z</time>
      </trkpt>
      <trkpt lat="41.732477" lon="2.313441">
        <ele>1004.40</ele>
        <time>2021-05-22T08:00:05Z</time>
      </trkpt>
      <trkpt lat="41.732467" lon="2.313468">
        <ele>1004.60</ele>
        <time>2021-05-22T08:00:07Z</time>
      </trkpt>
      <trkpt lat="41.732472" lon="2.313493">
        <ele>1005.00</ele>
        <time>2021-05-22T08:00:10Z</time>
      </trkpt>
      <trkpt lat="41.732472" lon="2.313493">
        <ele>1005.00</ele>
        <time>2021-05-22T08:00:11Z</time>
      </trkpt>
      <trkpt lat="41.732510" lon="2.313525">
        <ele>1006.00</ele>
        <time>2021-05-22T08:00:19Z</time>
      </trkpt>
      <trkpt lat="41.732509" lon="2.313526">
        <ele>1006.00</ele>
        <time>2021-05-22T08:00:20Z</time>
      </trkpt>
      <trkpt lat="41.732559" lon="2.313549">
        <ele>1006.80</ele>
        <time>2021-05-22T08:00:33Z</time>
      </trkpt>
      <trkpt lat="41.732559" lon="2.313552">
        <ele>1007.00</ele>
        <time>2021-05-22T08:00:34Z</time>
      </trkpt>
      <trkpt lat="41.732574" lon="2.313604">
        <ele>1007.40</ele>
        <time>2021-05-22T08:00:41Z</time>
      </trkpt>
      <trkpt lat="41.732572" lon="2.313604">
        <ele>1007.60</ele>
        <time>2021-05-22T08:00:42Z</time>
      </trkpt>
      <trkpt lat="41.732577" lon="2.313609">
        <ele>1007.60</ele>
        <time>2021-05-22T08:00:44Z</time>
      </trkpt>
      <trkpt lat="41.732578" lon="2.313628">
        <ele>1008.00</ele>
        <time>2021-05-22T08:00:47Z</time>
      </trkpt>
      <trkpt lat="41.732571" lon="2.313686">
        <ele>1008.80</ele>
        <time>2021-05-22T08:00:51Z</time>
      </trkpt>
      <trkpt lat="41.732569" lon="2.313692">
        <ele>1009.20</ele>
        <time>2021-05-22T08:00:52Z</time>
      </trkpt>
      <trkpt lat="41.732568" lon="2.313733">
        <ele>1010.20</ele>
        <time>2021-05-22T08:00:56Z</time>
      </trkpt>
      <trkpt lat="41.732584" lon="2.313782">
        <ele>1010.60</ele>
        <time>2021-05-22T08:01:01Z</time>
      </trkpt>
      <trkpt lat="41.732594" lon="2.313824">
        <ele>1011.20</ele>
        <time>2021-05-22T08:01:06Z</time>
      </trkpt>
      <trkpt lat="41.732619" lon="2.313859">
        <ele>1012.00</ele>
        <time>2021-05-22T08:01:11Z</time>
      </trkpt>
      <trkpt lat="41.732634" lon="2.313879">
        <ele>1012.40</ele>
        <time>2021-05-22T08:01:13Z</time>
      </trkpt>
      <trkpt lat="41.732656" lon="2.313967">
        <ele>1012.80</ele>
        <time>2021-05-22T08:01:24Z</time>
      </trkpt>
      <trkpt lat="41.732673" lon="2.313983">
        <ele>1013.40</ele>
        <time>2021-05-22T08:01:28Z</time>
      </trkpt>
      <trkpt lat="41.732686" lon="2.314002">
        <ele>1014.00</ele>
        <time>2021-05-22T08:01:32Z</time>
      </trkpt>
      <trkpt lat="41.732716" lon="2.314027">
        <ele>1014.60</ele>
        <time>2021-05-22T08:01:37Z</time>
      </trkpt>
      <trkpt lat="41.732755" lon="2.314054">
        <ele>1015.20</ele>
        <time>2021-05-22T08:01:43Z</time>
      </trkpt>
      <trkpt lat="41.732757" lon="2.314051">
        <ele>1014.80</ele>
        <time>2021-05-22T08:01:50Z</time>
      </trkpt>
      <trkpt lat="41.732767" lon="2.314089">
        <ele>1015.60</ele>
        <time>2021-05-22T08:02:03Z</time>
      </trkpt>
      <trkpt lat="41.732777" lon="2.314135">
        <ele>1016.80</ele>
        <time>2021-05-22T08:02:07Z</time>
      </trkpt>
      <trkpt lat="41.732775" lon="2.314133">
        <ele>1017.00</ele>
        <time>2021-05-22T08:02:08Z</time>
      </trkpt>
      <trkpt lat="41.732776" lon="2.314143">
        <ele>1017.40</ele>
        <time>2021-05-22T08:02:10Z</time>
      </trkpt>
      <trkpt lat="41.732776" lon="2.314146">
        <ele>1017.80</ele>
        <time>2021-05-22T08:02:12Z</time>
      </trkpt>
      <trkpt lat="41.732781" lon="2.314172">
        <ele>1018.00</ele>
        <time>2021-05-22T08:02:15Z</time>
      </trkpt>
      <trkpt lat="41.732791" lon="2.314218">
        <ele>1018.60</ele>
        <time>2021-05-22T08:02:20Z</time>
      </trkpt>
      <trkpt lat="41.732793" lon="2.314223">
        <ele>1018.80</ele>
        <time>2021-05-22T08:02:21Z</time>
      </trkpt>
      <trkpt lat="41.732803" lon="2.314241">
        <ele>1019.80</ele>
        <time>2021-05-22T08:02:24Z</time>
      </trkpt>
      <trkpt lat="41.732814" lon="2.314265">
        <ele>1020.40</ele>
        <time>2021-05-22T08:02:28Z</time>
      </trkpt>
      <trkpt lat="41.732823" lon="2.314278">
        <ele>1021.00</ele>
        <time>2021-05-22T08:02:30Z</time>
      </trkpt>
      <trkpt lat="41.732831" lon="2.314341">
        <ele>1022.00</ele>
        <time>2021-05-22T08:02:39Z</time>
      </trkpt>
      <trkpt lat="41.732856" lon="2.314370">
        <ele>1022.60</ele>
        <time>2021-05-22T08:02:43Z</time>
      </trkpt>
      <trkpt lat="41.732862" lon="2.314366">
        <ele>1023.20</ele>
        <time>2021-05-22T08:02:46Z</time>
      </trkpt>
      <trkpt lat="41.732862" lon="2.314409">
        <ele>1024.40</ele>
        <time>2021-05-22T08:02:57Z</time>
      </trkpt>
      <trkpt lat="41.732875" lon="2.314455">
        <ele>1025.60</ele>
        <time>2021-05-22T08:03:05Z</time>
      </trkpt>
      <trkpt lat="41.732885" lon="2.314473">
        <ele>1026.80</ele>
        <time>2021-05-22T08:03:09Z</time>
      </trkpt>
      <trkpt lat="41.732898" lon="2.314490">
        <ele>1027.00</ele>
        <time>2021-05-22T08:03:12Z</time>
      </trkpt>
      <trkpt lat="41.732896" lon="2.314535">
        <ele>1028.00</ele>
        <time>2021-05-22T08:03:17Z</time>
      </trkpt>
      <trkpt lat="41.732901" lon="2.314590">
        <ele>1029.00</ele>
        <time>2021-05-22T08:03:22Z</time>
      </trkpt>
      <trkpt lat="41.732901" lon="2.314611">
        <ele>1029.60</ele>
        <time>2021-05-22T08:03:24Z</time>
      </trkpt>
      <trkpt lat="41.732897" lon="2.314627">
        <ele>1030.20</ele>
        <time>2021-05-22T08:03:27Z</time>
      </trkpt>
      <trkpt lat="41.732895" lon="2.314671">
        <ele>1031.20</ele>
        <time>2021-05-22T08:03:34Z</time>
      </trkpt>
      <trkpt lat="41.732887" lon="2.314705">
        <ele>1031.40</ele>
        <time>2021-05-22T08:03:37Z</time>
      </trkpt>
      <trkpt lat="41.732858" lon="2.314774">
        <ele>1031.00</ele>
        <time>2021-05-22T08:03:50Z</time>
      </trkpt>
      <trkpt lat="41.732907" lon="2.314858">
        <ele>1030.20</ele>
        <time>2021-05-22T08:04:00Z</time>
      </trkpt>
      <trkpt lat="41.732939" lon="2.315091">
        <ele>1030.60</ele>
        <time>2021-05-22T08:04:09Z</time>
      </trkpt>
      <trkpt lat="41.732939" lon="2.315115">
        <ele>1031.00</ele>
        <time>2021-05-22T08:04:10Z</time>
      </trkpt>
      <trkpt lat="41.732941" lon="2.315137">
        <ele>1031.40</ele>
        <time>2021-05-22T08:04:11Z</time>
      </trkpt>
      <trkpt lat="41.732942" lon="2.315215">
        <ele>1032.40</ele>
        <time>2021-05-22T08:04:15Z</time>
      </trkpt>
      <trkpt lat="41.732945" lon="2.315252">
        <ele>1033.60</ele>
        <time>2021-05-22T08:04:18Z</time>
      </trkpt>
      <trkpt lat="41.732940" lon="2.315293">
        <ele>1034.20</ele>
        <time>2021-05-22T08:04:20Z</time>
      </trkpt>
      <trkpt lat="41.732937" lon="2.315320">
        <ele>1034.80</ele>
        <time>2021-05-22T08:04:22Z</time>
      </trkpt>
      <trkpt lat="41.732938" lon="2.315366">
        <ele>1035.60</ele>
        <time>2021-05-22T08:04:26Z</time>
      </trkpt>
      <trkpt lat="41.732941" lon="2.315397">
        <ele>1035.80</ele>
        <time>2021-05-22T08:04:27Z</time>
      </trkpt>
      <trkpt lat="41.732948" lon="2.315427">
        <ele>1036.60</ele>
        <time>2021-05-22T08:04:30Z</time>
      </trkpt>
      <trkpt lat="41.732958" lon="2.315456">
        <ele>1037.00</ele>
        <time>2021-05-22T08:04:31Z</time>
      </trkpt>
      <trkpt lat="41.732967" lon="2.315493">
        <ele>1038.00</ele>
        <time>2021-05-22T08:04:35Z</time>
      </trkpt>
      <trkpt lat="41.732973" lon="2.315533">
        <ele>1038.60</ele>
        <time>2021-05-22T08:04:38Z</time>
      </trkpt>
      <trkpt lat="41.732974" lon="2.315560">
        <ele>1039.00</ele>
        <time>2021-05-22T08:04:40Z</time>
      </trkpt>
      <trkpt lat="41.732991" lon="2.315585">
        <ele>1039.80</ele>
        <time>2021-05-22T08:04:45Z</time>
      </trkpt>
      <trkpt lat="41.733004" lon="2.315673">
        <ele>1040.20</ele>
        <time>2021-05-22T08:04:54Z</time>
      </trkpt>
      <trkpt lat="41.733009" lon="2.315684">
        <ele>1040.20</ele>
        <time>2021-05-22T08:04:55Z</time>
      </trkpt>
      <trkpt lat="41.733030" lon="2.315729">
        <ele>1041.00</ele>
        <time>2021-05-22T08:04:59Z</time>
      </trkpt>
      <trkpt lat="41.733035" lon="2.315740">
        <ele>1041.20</ele>
        <time>2021-05-22T08:05:00Z</time>
      </trkpt>
      <trkpt lat="41.733063" lon="2.315783">
        <ele>1042.20</ele>
        <time>2021-05-22T08:05:05Z</time>
      </trkpt>
      <trkpt lat="41.733069" lon="2.315791">
        <ele>1042.60</ele>
        <time>2021-05-22T08:05:08Z</time>
      </trkpt>
      <trkpt lat="41.733099" lon="2.315873">
        <ele>1043.20</ele>
        <time>2021-05-22T08:05:16Z</time>
      </trkpt>
      <trkpt lat="41.733104" lon="2.315883">
        <ele>1043.40</ele>
        <time>2021-05-22T08:05:17Z</time>
      </trkpt>
      <trkpt lat="41.733114" lon="2.315915">
        <ele>1043.60</ele>
        <time>2021-05-22T08:05:20Z</time>
      </trkpt>
      <trkpt lat="41.733134" lon="2.315946">
        <ele>1044.40</ele>
        <time>2021-05-22T08:05:23Z</time>
      </trkpt>
      <trkpt lat="41.733166" lon="2.315983">
        <ele>1045.40</ele>
        <time>2021-05-22T08:05:30Z</time>
      </trkpt>
      <trkpt lat="41.733176" lon="2.316028">
        <ele>1045.80</ele>
        <time>2021-05-22T08:05:33Z</time>
      </trkpt>
      <trkpt lat="41.733190" lon="2.316055">
        <ele>1046.60</ele>
        <time>2021-05-22T08:05:39Z</time>
      </trkpt>
      <trkpt lat="41.733192" lon="2.316065">
        <ele>1046.60</ele>
        <time>2021-05-22T08:05:40Z</time>
      </trkpt>
      <trkpt lat="41.733210" lon="2.316138">
        <ele>1047.60</ele>
        <time>2021-05-22T08:05:46Z</time>
      </trkpt>
      <trkpt lat="41.733210" lon="2.316164">
        <ele>1048.80</ele>
        <time>2021-05-22T08:05:50Z</time>
      </trkpt>
      <trkpt lat="41.733211" lon="2.316189">
        <ele>1049.00</ele>
        <time>2021-05-22T08:05:52Z</time>
      </trkpt>
      <trkpt lat="41.733210" lon="2.316232">
        <ele>1049.80</ele>
        <time>2021-05-22T08:05:56Z</time>
      </trkpt>
      <trkpt lat="41.733238" lon="2.316348">
        <ele>1050.60</ele>
        <time>2021-05-22T08:06:05Z</time>
      </trkpt>
      <trkpt lat="41.733243" lon="2.316387">
        <ele>1051.00</ele>
        <time>2021-05-22T08:06:07Z</time>
      </trkpt>
      <trkpt lat="41.733245" lon="2.316404">
        <ele>1052.20</ele>
        <time>2021-05-22T08:06:09Z</time>
      </trkpt>
      <trkpt lat="41.733226" lon="2.316411">
        <ele>1053.20</ele>
        <time>2021-05-22T08:06:13Z</time>
      </trkpt>
      <trkpt lat="41.733223" lon="2.316410">
        <ele>1053.60</ele>
        <time>2021-05-22T08:06:15Z</time>
      </trkpt>
      <trkpt lat="41.733207" lon="2.316434">
        <ele>1054.40</ele>
        <time>2021-05-22T08:06:21Z</time>
      </trkpt>
      <trkpt lat="41.733195" lon="2.316473">
        <ele>1055.60</ele>
        <time>2021-05-22T08:06:27Z</time>
      </trkpt>
      <trkpt lat="41.733198" lon="2.316502">
        <ele>1056.00</ele>
        <time>2021-05-22T08:06:29Z</time>
      </trkpt>
      <trkpt lat="41.733202" lon="2.316540">
        <ele>1056.80</ele>
        <time>2021-05-22T08:06:33Z</time>
      </trkpt>
      <trkpt lat="41.733214" lon="2.316597">
        <ele>1057.80</ele>
        <time>2021-05-22T08:06:40Z</time>
      </trkpt>
      <trkpt lat="41.733206" lon="2.316617">
        <ele>1058.80</ele>
        <time>2021-05-22T08:06:44Z</time>
      </trkpt>
      <trkpt lat="41.733198" lon="2.316633">
        <ele>1059.40</ele>
        <time>2021-05-22T08:06:46Z</time>
      </trkpt>
      <trkpt lat="41.733200" lon="2.316655">
        <ele>1060.00</ele>
        <time>2021-05-22T08:06:49Z</time>
      </trkpt>
      <trkpt lat="41.733197" lon="2.316710">
        <ele>1061.20</ele>
        <time>2021-05-22T08:06:53Z</time>
      </trkpt>
      <trkpt lat="41.733190" lon="2.316757">
        <ele>1062.00</ele>
        <time>2021-05-22T08:06:59Z</time>
      </trkpt>
      <trkpt lat="41.733189" lon="2.316768">
        <ele>1062.20</ele>
        <time>2021-05-22T08:07:10Z</time>
      </trkpt>
      <trkpt lat="41.733186" lon="2.316769">
        <ele>1062.40</ele>
        <time>2021-05-22T08:07:14Z</time>
      </trkpt>
      <trkpt lat="41.733185" lon="2.316765">
        <ele>1062.40</ele>
        <time>2021-05-22T08:07:15Z</time>
      </trkpt>
      <trkpt lat="41.733183" lon="2.316745">
        <ele>1062.20</ele>
        <time>2021-05-22T08:07:22Z</time>
      </trkpt>
      <trkpt lat="41.733183" lon="2.316744">
        <ele>1062.20</ele>
        <time>2021-05-22T08:07:24Z</time>
      </trkpt>
      <trkpt lat="41.733182" lon="2.316743">
        <ele>1062.20</ele>
        <time>2021-05-22T08:07:27Z</time>
      </trkpt>
      <trkpt lat="41.733181" lon="2.316748">
        <ele>1062.20</ele>
        <time>2021-05-22T08:07:31Z</time>
      </trkpt>
      <trkpt lat="41.733183" lon="2.316749">
        <ele>1062.00</ele>
        <time>2021-05-22T08:07:33Z</time>
      </trkpt>
      <trkpt lat="41.733197" lon="2.316743">
        <ele>1062.00</ele>
        <time>2021-05-22T08:07:49Z</time>
      </trkpt>
      <trkpt lat="41.733200" lon="2.316745">
        <ele>1061.60</ele>
        <time>2021-05-22T08:07:54Z</time>
      </trkpt>
      <trkpt lat="41.733200" lon="2.316745">
        <ele>1061.60</ele>
        <time>2021-05-22T08:08:00Z</time>
      </trkpt>
      <trkpt lat="41.733208" lon="2.316729">
        <ele>1061.80</ele>
        <time>2021-05-22T08:08:05Z</time>
      </trkpt>
      <trkpt lat="41.733206" lon="2.316721">
        <ele>1061.80</ele>
        <time>2021-05-22T08:08:10Z</time>
      </trkpt>
      <trkpt lat="41.733205" lon="2.316715">
        <ele>1061.80</ele>
        <time>2021-05-22T08:08:13Z</time>
      </trkpt>
      <trkpt lat="41.733202" lon="2.316715">
        <ele>1062.00</ele>
        <time>2021-05-22T08:08:22Z</time>
      </trkpt>
      <trkpt lat="41.733199" lon="2.316716">
        <ele>1062.00</ele>
        <time>2021-05-22T08:08:23Z</time>
      </trkpt>
      <trkpt lat="41.733197" lon="2.316720">
        <ele>1062.00</ele>
        <time>2021-05-22T08:08:25Z</time>
      </trkpt>
      <trkpt lat="41.733195" lon="2.316722">
        <ele>1062.00</ele>
        <time>2021-05-22T08:08:26Z</time>
      </trkpt>
      <trkpt lat="41.733195" lon="2.316722">
        <ele>1062.00</ele>
        <time>2021-05-22T08:08:27Z</time>
      </trkpt>
      <trkpt lat="41.733217" lon="2.316727">
        <ele>1062.00</ele>
        <time>2021-05-22T08:08:39Z</time>
      </trkpt>
      <trkpt lat="41.733226" lon="2.316735">
        <ele>1062.00</ele>
        <time>2021-05-22T08:08:44Z</time>
      </trkpt>
      <trkpt lat="41.733228" lon="2.316731">
        <ele>1062.00</ele>
        <time>2021-05-22T08:08:45Z</time>
      </trkpt>
      <trkpt lat="41.733221" lon="2.316728">
        <ele>1062.00</ele>
        <time>2021-05-22T08:08:47Z</time>
      </trkpt>
      <trkpt lat="41.733221" lon="2.316728">
        <ele>1062.00</ele>
        <time>2021-05-22T08:08:48Z</time>
      </trkpt>
      <trkpt lat="41.733219" lon="2.316714">
        <ele>1062.00</ele>
        <time>2021-05-22T08:08:53Z</time>
      </trkpt>
      <trkpt lat="41.733235" lon="2.316759">
        <ele>1062.00</ele>
        <time>2021-05-22T08:09:03Z</time>
      </trkpt>
      <trkpt lat="41.733237" lon="2.316756">
        <ele>1062.00</ele>
        <time>2021-05-22T08:09:04Z</time>
      </trkpt>
      <trkpt lat="41.733229" lon="2.316706">
        <ele>1062.00</ele>
        <time>2021-05-22T08:09:22Z</time>
      </trkpt>
      <trkpt lat="41.733180" lon="2.316750">
        <ele>1062.00</ele>
        <time>2021-05-22T08:09:33Z</time>
      </trkpt>
      <trkpt lat="41.733174" lon="2.316735">
        <ele>1062.00</ele>
        <time>2021-05-22T08:09:38Z</time>
      </trkpt>
      <trkpt lat="41.733191" lon="2.316708">
        <ele>1062.00</ele>
        <time>2021-05-22T08:09:45Z</time>
      </trkpt>
      <trkpt lat="41.733199" lon="2.316703">
        <ele>1062.00</ele>
        <time>2021-05-22T08:09:54Z</time>
      </trkpt>
      <trkpt lat="41.733233" lon="2.316742">
        <ele>1062.00</ele>
        <time>2021-05-22T08:10:05Z</time>
      </trkpt>
      <trkpt lat="41.733061" lon="2.317007">
        <ele>1059.00</ele>
        <time>2021-05-22T08:10:37Z</time>
      </trkpt>
      <trkpt lat="41.733199" lon="2.316545">
        <ele>1057.00</ele>
        <time>2021-05-22T08:10:39Z</time>
      </trkpt>
      <trkpt lat="41.733190" lon="2.316483">
        <ele>1055.80</ele>
        <time>2021-05-22T08:10:40Z</time>
      </trkpt>
      <trkpt lat="41.733188" lon="2.316407">
        <ele>1054.00</ele>
        <time>2021-05-22T08:10:41Z</time>
      </trkpt>
      <trkpt lat="41.733190" lon="2.316312">
        <ele>1052.60</ele>
        <time>2021-05-22T08:10:42Z</time>
      </trkpt>
      <trkpt lat="41.733180" lon="2.316202">
        <ele>1050.60</ele>
        <time>2021-05-22T08:10:43Z</time>
      </trkpt>
      <trkpt lat="41.733158" lon="2.316079">
        <ele>1049.80</ele>
        <time>2021-05-22T08:10:44Z</time>
      </trkpt>
      <trkpt lat="41.733114" lon="2.315962">
        <ele>1048.40</ele>
        <time>2021-05-22T08:10:45Z</time>
      </trkpt>
      <trkpt lat="41.733064" lon="2.315840">
        <ele>1046.60</ele>
        <time>2021-05-22T08:10:47Z</time>
      </trkpt>
      <trkpt lat="41.732975" lon="2.315600">
        <ele>1046.00</ele>
        <time>2021-05-22T08:10:48Z</time>
      </trkpt>
      <trkpt lat="41.732936" lon="2.315472">
        <ele>1044.00</ele>
        <time>2021-05-22T08:10:49Z</time>
      </trkpt>
      <trkpt lat="41.732910" lon="2.315340">
        <ele>1040.40</ele>
        <time>2021-05-22T08:10:50Z</time>
      </trkpt>
      <trkpt lat="41.732885" lon="2.315199">
        <ele>1037.80</ele>
        <time>2021-05-22T08:10:51Z</time>
      </trkpt>
      <trkpt lat="41.732856" lon="2.315052">
        <ele>1034.80</ele>
        <time>2021-05-22T08:10:52Z</time>
      </trkpt>
      <trkpt lat="41.732832" lon="2.314916">
        <ele>1031.60</ele>
        <time>2021-05-22T08:10:53Z</time>
      </trkpt>
      <trkpt lat="41.732818" lon="2.314797">
        <ele>1030.00</ele>
        <time>2021-05-22T08:10:54Z</time>
      </trkpt>
      <trkpt lat="41.732814" lon="2.314701">
        <ele>1029.20</ele>
        <time>2021-05-22T08:10:55Z</time>
      </trkpt>
      <trkpt lat="41.732819" lon="2.314620">
        <ele>1028.20</ele>
        <time>2021-05-22T08:10:56Z</time>
      </trkpt>
      <trkpt lat="41.732841" lon="2.314487">
        <ele>1026.40</ele>
        <time>2021-05-22T08:10:59Z</time>
      </trkpt>
      <trkpt lat="41.732850" lon="2.314435">
        <ele>1027.60</ele>
        <time>2021-05-22T08:11:00Z</time>
      </trkpt>
      <trkpt lat="41.732848" lon="2.314316">
        <ele>1026.60</ele>
        <time>2021-05-22T08:11:01Z</time>
      </trkpt>
      <trkpt lat="41.732837" lon="2.314250">
        <ele>1024.20</ele>
        <time>2021-05-22T08:11:03Z</time>
      </trkpt>
      <trkpt lat="41.732802" lon="2.314128">
        <ele>1023.20</ele>
        <time>2021-05-22T08:11:04Z</time>
      </trkpt>
      <trkpt lat="41.732751" lon="2.314026">
        <ele>1021.00</ele>
        <time>2021-05-22T08:11:06Z</time>
      </trkpt>
      <trkpt lat="41.732718" lon="2.313981">
        <ele>1019.60</ele>
        <time>2021-05-22T08:11:07Z</time>
      </trkpt>
      <trkpt lat="41.732676" lon="2.313932">
        <ele>1016.20</ele>
        <time>2021-05-22T08:11:08Z</time>
      </trkpt>
      <trkpt lat="41.732624" lon="2.313871">
        <ele>1013.80</ele>
        <time>2021-05-22T08:11:09Z</time>
      </trkpt>
      <trkpt lat="41.732584" lon="2.313790">
        <ele>1011.80</ele>
        <time>2021-05-22T08:11:10Z</time>
      </trkpt>
      <trkpt lat="41.732545" lon="2.313657">
        <ele>1010.20</ele>
        <time>2021-05-22T08:11:12Z</time>
      </trkpt>
      <trkpt lat="41.732511" lon="2.313525">
        <ele>1008.60</ele>
        <time>2021-05-22T08:11:14Z</time>
      </trkpt>
      <trkpt lat="41.732491" lon="2.313489">
        <ele>1007.40</ele>
        <time>2021-05-22T08:11:15Z</time>
      </trkpt>
      <trkpt lat="41.732480" lon="2.313452">
        <ele>1006.40</ele>
        <time>2021-05-22T08:11:16Z</time>
      </trkpt>
      <trkpt lat="41.732464" lon="2.313348">
        <ele>1004.40</ele>
        <time>2021-05-22T08:11:18Z</time>
      </trkpt>
      <trkpt lat="41.732454" lon="2.313287">
        <ele>1003.20</ele>
        <time>2021-05-22T08:11:19Z</time>
      </trkpt>
      <trkpt lat="41.732454" lon="2.313287">
        <ele>1002.00</ele>
        <time>2021-05-22T08:11:20Z</time>
      </trkpt>
      <trkpt lat="41.732431" lon="2.313119">
        <ele>1000.40</ele>
        <time>2021-05-22T08:11:21Z</time>
      </trkpt>
      <trkpt lat="41.732411" lon="2.313028">
        <ele>999.20</ele>
        <time>2021-05-22T08:11:22Z</time>
      </trkpt>
      <trkpt lat="41.732354" lon="2.312836">
        <ele>997.80</ele>
        <time>2021-05-22T08:11:24Z</time>
      </trkpt>
      <trkpt lat="41.732323" lon="2.312742">
        <ele>995.80</ele>
        <time>2021-05-22T08:11:25Z</time>
      </trkpt>
      <trkpt lat="41.732293" lon="2.312654">
        <ele>994.40</ele>
        <time>2021-05-22T08:11:26Z</time>
      </trkpt>
      <trkpt lat="41.732213" lon="2.312488">
        <ele>992.80</ele>
        <time>2021-05-22T08:11:27Z</time>
      </trkpt>
      <trkpt lat="41.732170" lon="2.312428">
        <ele>992.00</ele>
        <time>2021-05-22T08:11:29Z</time>
      </trkpt>
      <trkpt lat="41.732133" lon="2.312399">
        <ele>991.20</ele>
        <time>2021-05-22T08:11:30Z</time>
      </trkpt>
      <trkpt lat="41.732096" lon="2.312371">
        <ele>990.20</ele>
        <time>2021-05-22T08:11:31Z</time>
      </trkpt>
      <trkpt lat="41.732021" lon="2.312315">
        <ele>989.40</ele>
        <time>2021-05-22T08:11:32Z</time>
      </trkpt>
      <trkpt lat="41.731980" lon="2.312288">
        <ele>988.80</ele>
        <time>2021-05-22T08:11:33Z</time>
      </trkpt>
      <trkpt lat="41.731942" lon="2.312273">
        <ele>988.20</ele>
        <time>2021-05-22T08:11:34Z</time>
      </trkpt>
      <trkpt lat="41.731844" lon="2.312204">
        <ele>987.40</ele>
        <time>2021-05-22T08:11:37Z</time>
      </trkpt>
      <trkpt lat="41.731815" lon="2.312164">
        <ele>987.40</ele>
        <time>2021-05-22T08:11:38Z</time>
      </trkpt>
      <trkpt lat="41.731815" lon="2.312164">
        <ele>986.60</ele>
        <time>2021-05-22T08:11:39Z</time>
      </trkpt>
      <trkpt lat="41.731697" lon="2.312032">
        <ele>985.00</ele>
        <time>2021-05-22T08:11:42Z</time>
      </trkpt>
      <trkpt lat="41.731600" lon="2.311938">
        <ele>983.60</ele>
        <time>2021-05-22T08:11:43Z</time>
      </trkpt>
      <trkpt lat="41.731549" lon="2.311905">
        <ele>982.20</ele>
        <time>2021-05-22T08:11:44Z</time>
      </trkpt>
      <trkpt lat="41.731508" lon="2.311867">
        <ele>981.00</ele>
        <time>2021-05-22T08:11:45Z</time>
      </trkpt>
      <trkpt lat="41.731482" lon="2.311816">
        <ele>979.80</ele>
        <time>2021-05-22T08:11:46Z</time>
      </trkpt>
      <trkpt lat="41.731460" lon="2.311771">
        <ele>978.60</ele>
        <time>2021-05-22T08:11:47Z</time>
      </trkpt>
      <trkpt lat="41.731437" lon="2.311737">
        <ele>976.80</ele>
        <time>2021-05-22T08:11:48Z</time>
      </trkpt>
      <trkpt lat="41.731407" lon="2.311710">
        <ele>975.00</ele>
        <time>2021-05-22T08:11:49Z</time>
      </trkpt>
      <trkpt lat="41.731370" lon="2.311681">
        <ele>973.40</ele>
        <time>2021-05-22T08:11:50Z</time>
      </trkpt>
      <trkpt lat="41.731340" lon="2.311647">
        <ele>972.20</ele>
        <time>2021-05-22T08:11:51Z</time>
      </trkpt>
      <trkpt lat="41.731301" lon="2.311591">
        <ele>970.40</ele>
        <time>2021-05-22T08:11:53Z</time>
      </trkpt>
      <trkpt lat="41.731269" lon="2.311567">
        <ele>969.20</ele>
        <time>2021-05-22T08:11:54Z</time>
      </trkpt>
      <trkpt lat="41.731242" lon="2.311542">
        <ele>968.20</ele>
        <time>2021-05-22T08:11:55Z</time>
      </trkpt>
      <trkpt lat="41.731222" lon="2.311521">
        <ele>965.80</ele>
        <time>2021-05-22T08:11:56Z</time>
      </trkpt>
      <trkpt lat="41.731187" lon="2.311487">
        <ele>963.60</ele>
        <time>2021-05-22T08:11:59Z</time>
      </trkpt>
      <trkpt lat="41.731174" lon="2.311465">
        <ele>962.40</ele>
        <time>2021-05-22T08:12:00Z</time>
      </trkpt>
      <trkpt lat="41.731137" lon="2.311392">
        <ele>960.80</ele>
        <time>2021-05-22T08:12:02Z</time>
      </trkpt>
      <trkpt lat="41.731121" lon="2.311376">
        <ele>959.20</ele>
        <time>2021-05-22T08:12:03Z</time>
      </trkpt>
      <trkpt lat="41.731101" lon="2.311360">
        <ele>958.00</ele>
        <time>2021-05-22T08:12:04Z</time>
      </trkpt>
      <trkpt lat="41.731077" lon="2.311349">
        <ele>956.80</ele>
        <time>2021-05-22T08:12:06Z</time>
      </trkpt>
      <trkpt lat="41.730993" lon="2.311313">
        <ele>954.20</ele>
        <time>2021-05-22T08:12:09Z</time>
      </trkpt>
      <trkpt lat="41.730976" lon="2.311293">
        <ele>953.40</ele>
        <time>2021-05-22T08:12:10Z</time>
      </trkpt>
      <trkpt lat="41.730976" lon="2.311293">
        <ele>952.40</ele>
        <time>2021-05-22T08:12:11Z</time>
      </trkpt>
      <trkpt lat="41.730946" lon="2.311246">
        <ele>950.80</ele>
        <time>2021-05-22T08:12:13Z</time>
      </trkpt>
      <trkpt lat="41.730948" lon="2.311194">
        <ele>950.20</ele>
        <time>2021-05-22T08:12:14Z</time>
      </trkpt>
      <trkpt lat="41.730940" lon="2.311184">
        <ele>949.40</ele>
        <time>2021-05-22T08:12:15Z</time>
      </trkpt>
      <trkpt lat="41.730932" lon="2.311173">
        <ele>949.00</ele>
        <time>2021-05-22T08:12:16Z</time>
      </trkpt>
      <trkpt lat="41.730924" lon="2.311162">
        <ele>946.60</ele>
        <time>2021-05-22T08:12:17Z</time>
      </trkpt>
      <trkpt lat="41.730916" lon="2.311151">
        <ele>945.40</ele>
        <time>2021-05-22T08:12:18Z</time>
      </trkpt>
      <trkpt lat="41.730908" lon="2.311141">
        <ele>944.20</ele>
        <time>2021-05-22T08:12:20Z</time>
      </trkpt>
      <trkpt lat="41.730900" lon="2.311130">
        <ele>943.40</ele>
        <time>2021-05-22T08:12:21Z</time>
      </trkpt>
      <trkpt lat="41.730859" lon="2.311069">
        <ele>943.00</ele>
        <time>2021-05-22T08:12:22Z</time>
      </trkpt>
      <trkpt lat="41.730839" lon="2.311034">
        <ele>941.00</ele>
        <time>2021-05-22T08:12:23Z</time>
      </trkpt>
      <trkpt lat="41.730814" lon="2.311005">
        <ele>938.80</ele>
        <time>2021-05-22T08:12:24Z</time>
      </trkpt>
      <trkpt lat="41.730791" lon="2.310991">
        <ele>937.00</ele>
        <time>2021-05-22T08:12:25Z</time>
      </trkpt>
      <trkpt lat="41.730767" lon="2.310969">
        <ele>935.20</ele>
        <time>2021-05-22T08:12:26Z</time>
      </trkpt>
      <trkpt lat="41.730742" lon="2.310948">
        <ele>934.20</ele>
        <time>2021-05-22T08:12:27Z</time>
      </trkpt>
      <trkpt lat="41.730710" lon="2.310928">
        <ele>932.60</ele>
        <time>2021-05-22T08:12:28Z</time>
      </trkpt>
      <trkpt lat="41.730673" lon="2.310917">
        <ele>931.60</ele>
        <time>2021-05-22T08:12:29Z</time>
      </trkpt>
      <trkpt lat="41.730644" lon="2.310895">
        <ele>929.60</ele>
        <time>2021-05-22T08:12:30Z</time>
      </trkpt>
      <trkpt lat="41.730621" lon="2.310859">
        <ele>928.00</ele>
        <time>2021-05-22T08:12:31Z</time>
      </trkpt>
      <trkpt lat="41.730601" lon="2.310818">
        <ele>926.40</ele>
        <time>2021-05-22T08:12:32Z</time>
      </trkpt>
      <trkpt lat="41.730579" lon="2.310775">
        <ele>925.60</ele>
        <time>2021-05-22T08:12:33Z</time>
      </trkpt>
      <trkpt lat="41.730543" lon="2.310716">
        <ele>923.20</ele>
        <time>2021-05-22T08:12:34Z</time>
      </trkpt>
      <trkpt lat="41.730497" lon="2.310663">
        <ele>922.00</ele>
        <time>2021-05-22T08:12:35Z</time>
      </trkpt>
      <trkpt lat="41.730447" lon="2.310623">
        <ele>920.20</ele>
        <time>2021-05-22T08:12:36Z</time>
      </trkpt>
      <trkpt lat="41.730400" lon="2.310603">
        <ele>918.20</ele>
        <time>2021-05-22T08:12:37Z</time>
      </trkpt>
      <trkpt lat="41.730361" lon="2.310577">
        <ele>916.00</ele>
        <time>2021-05-22T08:12:38Z</time>
      </trkpt>
      <trkpt lat="41.730343" lon="2.310544">
        <ele>914.60</ele>
        <time>2021-05-22T08:12:39Z</time>
      </trkpt>
      <trkpt lat="41.730327" lon="2.310512">
        <ele>913.00</ele>
        <time>2021-05-22T08:12:40Z</time>
      </trkpt>
      <trkpt lat="41.730319" lon="2.310476">
        <ele>912.40</ele>
        <time>2021-05-22T08:12:42Z</time>
      </trkpt>
      <trkpt lat="41.730282" lon="2.310405">
        <ele>911.40</ele>
        <time>2021-05-22T08:12:43Z</time>
      </trkpt>
      <trkpt lat="41.730259" lon="2.310376">
        <ele>911.00</ele>
        <time>2021-05-22T08:12:44Z</time>
      </trkpt>
      <trkpt lat="41.730246" lon="2.310343">
        <ele>910.00</ele>
        <time>2021-05-22T08:12:45Z</time>
      </trkpt>
      <trkpt lat="41.730243" lon="2.310315">
        <ele>909.20</ele>
        <time>2021-05-22T08:12:46Z</time>
      </trkpt>
      <trkpt lat="41.730240" lon="2.310294">
        <ele>908.60</ele>
        <time>2021-05-22T08:12:47Z</time>
      </trkpt>
      <trkpt lat="41.730222" lon="2.310276">
        <ele>907.20</ele>
        <time>2021-05-22T08:12:48Z</time>
      </trkpt>
      <trkpt lat="41.730191" lon="2.310250">
        <ele>906.20</ele>
        <time>2021-05-22T08:12:49Z</time>
      </trkpt>
      <trkpt lat="41.730163" lon="2.310224">
        <ele>905.40</ele>
        <time>2021-05-22T08:12:50Z</time>
      </trkpt>
      <trkpt lat="41.730134" lon="2.310204">
        <ele>904.40</ele>
        <time>2021-05-22T08:12:51Z</time>
      </trkpt>
      <trkpt lat="41.730079" lon="2.310153">
        <ele>903.00</ele>
        <time>2021-05-22T08:12:53Z</time>
      </trkpt>
      <trkpt lat="41.730058" lon="2.310130">
        <ele>899.40</ele>
        <time>2021-05-22T08:12:54Z</time>
      </trkpt>
      <trkpt lat="41.730034" lon="2.310125">
        <ele>897.20</ele>
        <time>2021-05-22T08:12:55Z</time>
      </trkpt>
      <trkpt lat="41.730010" lon="2.310113">
        <ele>895.60</ele>
        <time>2021-05-22T08:12:56Z</time>
      </trkpt>
      <trkpt lat="41.729994" lon="2.310090">
        <ele>894.80</ele>
        <time>2021-05-22T08:12:57Z</time>
      </trkpt>
      <trkpt lat="41.729975" lon="2.310068">
        <ele>893.80</ele>
        <time>2021-05-22T08:12:58Z</time>
      </trkpt>
      <trkpt lat="41.729930" lon="2.310049">
        <ele>892.80</ele>
        <time>2021-05-22T08:13:00Z</time>
      </trkpt>
      <trkpt lat="41.729906" lon="2.310039">
        <ele>891.80</ele>
        <time>2021-05-22T08:13:01Z</time>
      </trkpt>
      <trkpt lat="41.729856" lon="2.310012">
        <ele>890.20</ele>
        <time>2021-05-22T08:13:03Z</time>
      </trkpt>
      <trkpt lat="41.729829" lon="2.309993">
        <ele>889.20</ele>
        <time>2021-05-22T08:13:05Z</time>
      </trkpt>
      <trkpt lat="41.729768" lon="2.309947">
        <ele>889.00</ele>
        <time>2021-05-22T08:13:06Z</time>
      </trkpt>
      <trkpt lat="41.729737" lon="2.309930">
        <ele>887.60</ele>
        <time>2021-05-22T08:13:07Z</time>
      </trkpt>
      <trkpt lat="41.729737" lon="2.309930">
        <ele>885.40</ele>
        <time>2021-05-22T08:13:08Z</time>
      </trkpt>
      <trkpt lat="41.729686" lon="2.309905">
        <ele>883.40</ele>
        <time>2021-05-22T08:13:09Z</time>
      </trkpt>
      <trkpt lat="41.729668" lon="2.309881">
        <ele>882.00</ele>
        <time>2021-05-22T08:13:10Z</time>
      </trkpt>
      <trkpt lat="41.729646" lon="2.309851">
        <ele>879.80</ele>
        <time>2021-05-22T08:13:11Z</time>
      </trkpt>
      <trkpt lat="41.729592" lon="2.309778">
        <ele>877.40</ele>
        <time>2021-05-22T08:13:13Z</time>
      </trkpt>
      <trkpt lat="41.729576" lon="2.309730">
        <ele>876.00</ele>
        <time>2021-05-22T08:13:14Z</time>
      </trkpt>
      <trkpt lat="41.729570" lon="2.309658">
        <ele>874.20</ele>
        <time>2021-05-22T08:13:15Z</time>
      </trkpt>
      <trkpt lat="41.729573" lon="2.309584">
        <ele>872.80</ele>
        <time>2021-05-22T08:13:16Z</time>
      </trkpt>
      <trkpt lat="41.729576" lon="2.309491">
        <ele>871.20</ele>
        <time>2021-05-22T08:13:18Z</time>
      </trkpt>
      <trkpt lat="41.729570" lon="2.309460">
        <ele>871.00</ele>
        <time>2021-05-22T08:13:19Z</time>
      </trkpt>
      <trkpt lat="41.729552" lon="2.309431">
        <ele>870.60</ele>
        <time>2021-05-22T08:13:20Z</time>
      </trkpt>
      <trkpt lat="41.729484" lon="2.309301">
        <ele>870.80</ele>
        <time>2021-05-22T08:13:23Z</time>
      </trkpt>
      <trkpt lat="41.729338" lon="2.309131">
        <ele>869.80</ele>
        <time>2021-05-22T08:13:28Z</time>
      </trkpt>
      <trkpt lat="41.729310" lon="2.309099">
        <ele>868.20</ele>
        <time>2021-05-22T08:13:29Z</time>
      </trkpt>
      <trkpt lat="41.729276" lon="2.309065">
        <ele>867.00</ele>
        <time>2021-05-22T08:13:30Z</time>
      </trkpt>
      <trkpt lat="41.729243" lon="2.309025">
        <ele>865.80</ele>
        <time>2021-05-22T08:13:31Z</time>
      </trkpt>
      <trkpt lat="41.729189" lon="2.308939">
        <ele>865.00</ele>
        <time>2021-05-22T08:13:33Z</time>
      </trkpt>
      <trkpt lat="41.729173" lon="2.308900">
        <ele>864.80</ele>
        <time>2021-05-22T08:13:34Z</time>
      </trkpt>
      <trkpt lat="41.729143" lon="2.308823">
        <ele>865.80</ele>
        <time>2021-05-22T08:13:37Z</time>
      </trkpt>
      <trkpt lat="41.729111" lon="2.308727">
        <ele>866.00</ele>
        <time>2021-05-22T08:13:39Z</time>
      </trkpt>
      <trkpt lat="41.728987" lon="2.308536">
        <ele>864.40</ele>
        <time>2021-05-22T08:13:44Z</time>
      </trkpt>
      <trkpt lat="41.728956" lon="2.308473">
        <ele>864.20</ele>
        <time>2021-05-22T08:13:45Z</time>
      </trkpt>
      <trkpt lat="41.728923" lon="2.308406">
        <ele>863.00</ele>
        <time>2021-05-22T08:13:47Z</time>
      </trkpt>
      <trkpt lat="41.728875" lon="2.308301">
        <ele>861.20</ele>
        <time>2021-05-22T08:13:48Z</time>
      </trkpt>
      <trkpt lat="41.728857" lon="2.308254">
        <ele>859.80</ele>
        <time>2021-05-22T08:13:49Z</time>
      </trkpt>
      <trkpt lat="41.728841" lon="2.308203">
        <ele>858.20</ele>
        <time>2021-05-22T08:13:51Z</time>
      </trkpt>
      <trkpt lat="41.728800" lon="2.308094">
        <ele>857.00</ele>
        <time>2021-05-22T08:13:52Z</time>
      </trkpt>
      <trkpt lat="41.728778" lon="2.308043">
        <ele>855.00</ele>
        <time>2021-05-22T08:13:54Z</time>
      </trkpt>
      <trkpt lat="41.728731" lon="2.307921">
        <ele>854.40</ele>
        <time>2021-05-22T08:13:55Z</time>
      </trkpt>
      <trkpt lat="41.728712" lon="2.307858">
        <ele>850.80</ele>
        <time>2021-05-22T08:13:56Z</time>
      </trkpt>
      <trkpt lat="41.728693" lon="2.307796">
        <ele>848.40</ele>
        <time>2021-05-22T08:13:57Z</time>
      </trkpt>
      <trkpt lat="41.728655" lon="2.307672">
        <ele>847.20</ele>
        <time>2021-05-22T08:13:58Z</time>
      </trkpt>
      <trkpt lat="41.728655" lon="2.307672">
        <ele>845.60</ele>
        <time>2021-05-22T08:13:59Z</time>
      </trkpt>
      <trkpt lat="41.728627" lon="2.307605">
        <ele>844.40</ele>
        <time>2021-05-22T08:14:00Z</time>
      </trkpt>
      <trkpt lat="41.728582" lon="2.307470">
        <ele>843.20</ele>
        <time>2021-05-22T08:14:01Z</time>
      </trkpt>
      <trkpt lat="41.728553" lon="2.307400">
        <ele>841.60</ele>
        <time>2021-05-22T08:14:03Z</time>
      </trkpt>
      <trkpt lat="41.728487" lon="2.307274">
        <ele>840.80</ele>
        <time>2021-05-22T08:14:04Z</time>
      </trkpt>
      <trkpt lat="41.728456" lon="2.307209">
        <ele>839.80</ele>
        <time>2021-05-22T08:14:05Z</time>
      </trkpt>
      <trkpt lat="41.728417" lon="2.307137">
        <ele>839.20</ele>
        <time>2021-05-22T08:14:06Z</time>
      </trkpt>
      <trkpt lat="41.728376" lon="2.307058">
        <ele>838.00</ele>
        <time>2021-05-22T08:14:07Z</time>
      </trkpt>
      <trkpt lat="41.728376" lon="2.307058">
        <ele>836.60</ele>
        <time>2021-05-22T08:14:08Z</time>
      </trkpt>
      <trkpt lat="41.728283" lon="2.306903">
        <ele>835.20</ele>
        <time>2021-05-22T08:14:09Z</time>
      </trkpt>
      <trkpt lat="41.728223" lon="2.306837">
        <ele>833.80</ele>
        <time>2021-05-22T08:14:11Z</time>
      </trkpt>
      <trkpt lat="41.728176" lon="2.306772">
        <ele>833.60</ele>
        <time>2021-05-22T08:14:12Z</time>
      </trkpt>
      <trkpt lat="41.728141" lon="2.306709">
        <ele>832.40</ele>
        <time>2021-05-22T08:14:13Z</time>
      </trkpt>
      <trkpt lat="41.728079" lon="2.306578">
        <ele>830.60</ele>
        <time>2021-05-22T08:14:15Z</time>
      </trkpt>
      <trkpt lat="41.728072" lon="2.306540">
        <ele>829.80</ele>
        <time>2021-05-22T08:14:16Z</time>
      </trkpt>
      <trkpt lat="41.728069" lon="2.306502">
        <ele>829.20</ele>
        <time>2021-05-22T08:14:17Z</time>
      </trkpt>
      <trkpt lat="41.728071" lon="2.306468">
        <ele>827.40</ele>
        <time>2021-05-22T08:14:18Z</time>
      </trkpt>
      <trkpt lat="41.728074" lon="2.306432">
        <ele>825.80</ele>
        <time>2021-05-22T08:14:19Z</time>
      </trkpt>
      <trkpt lat="41.728072" lon="2.306387">
        <ele>824.20</ele>
        <time>2021-05-22T08:14:20Z</time>
      </trkpt>
      <trkpt lat="41.728061" lon="2.306324">
        <ele>823.40</ele>
        <time>2021-05-22T08:14:21Z</time>
      </trkpt>
      <trkpt lat="41.728052" lon="2.306259">
        <ele>822.80</ele>
        <time>2021-05-22T08:14:22Z</time>
      </trkpt>
      <trkpt lat="41.728052" lon="2.306259">
        <ele>821.80</ele>
        <time>2021-05-22T08:14:23Z</time>
      </trkpt>
      <trkpt lat="41.728050" lon="2.306131">
        <ele>820.80</ele>
        <time>2021-05-22T08:14:24Z</time>
      </trkpt>
      <trkpt lat="41.728051" lon="2.306073">
        <ele>820.00</ele>
        <time>2021-05-22T08:14:25Z</time>
      </trkpt>
      <trkpt lat="41.728046" lon="2.306013">
        <ele>817.40</ele>
        <time>2021-05-22T08:14:26Z</time>
      </trkpt>
      <trkpt lat="41.728015" lon="2.305899">
        <ele>814.60</ele>
        <time>2021-05-22T08:14:28Z</time>
      </trkpt>
      <trkpt lat="41.728015" lon="2.305899">
        <ele>813.40</ele>
        <time>2021-05-22T08:14:29Z</time>
      </trkpt>
      <trkpt lat="41.727990" lon="2.305718">
        <ele>811.60</ele>
        <time>2021-05-22T08:14:31Z</time>
      </trkpt>
      <trkpt lat="41.728001" lon="2.305679">
        <ele>810.80</ele>
        <time>2021-05-22T08:14:32Z</time>
      </trkpt>
      <trkpt lat="41.728001" lon="2.305679">
        <ele>810.20</ele>
        <time>2021-05-22T08:14:33Z</time>
      </trkpt>
      <trkpt lat="41.728035" lon="2.305589">
        <ele>806.20</ele>
        <time>2021-05-22T08:14:34Z</time>
      </trkpt>
      <trkpt lat="41.728052" lon="2.305537">
        <ele>802.40</ele>
        <time>2021-05-22T08:14:35Z</time>
      </trkpt>
      <trkpt lat="41.728052" lon="2.305479">
        <ele>799.60</ele>
        <time>2021-05-22T08:14:36Z</time>
      </trkpt>
      <trkpt lat="41.728040" lon="2.305422">
        <ele>797.40</ele>
        <time>2021-05-22T08:14:37Z</time>
      </trkpt>
      <trkpt lat="41.728040" lon="2.305422">
        <ele>795.80</ele>
        <time>2021-05-22T08:14:38Z</time>
      </trkpt>
      <trkpt lat="41.727971" lon="2.305312">
        <ele>794.20</ele>
        <time>2021-05-22T08:14:39Z</time>
      </trkpt>
      <trkpt lat="41.727935" lon="2.305251">
        <ele>792.20</ele>
        <time>2021-05-22T08:14:41Z</time>
      </trkpt>
      <trkpt lat="41.727892" lon="2.305133">
        <ele>791.00</ele>
        <time>2021-05-22T08:14:42Z</time>
      </trkpt>
      <trkpt lat="41.727849" lon="2.305016">
        <ele>789.80</ele>
        <time>2021-05-22T08:14:43Z</time>
      </trkpt>
      <trkpt lat="41.727814" lon="2.304953">
        <ele>789.20</ele>
        <time>2021-05-22T08:14:44Z</time>
      </trkpt>
      <trkpt lat="41.727782" lon="2.304900">
        <ele>787.40</ele>
        <time>2021-05-22T08:14:45Z</time>
      </trkpt>
      <trkpt lat="41.727753" lon="2.304858">
        <ele>785.40</ele>
        <time>2021-05-22T08:14:46Z</time>
      </trkpt>
      <trkpt lat="41.727735" lon="2.304822">
        <ele>784.40</ele>
        <time>2021-05-22T08:14:47Z</time>
      </trkpt>
      <trkpt lat="41.727715" lon="2.304798">
        <ele>783.20</ele>
        <time>2021-05-22T08:14:48Z</time>
      </trkpt>
      <trkpt lat="41.727679" lon="2.304783">
        <ele>782.40</ele>
        <time>2021-05-22T08:14:49Z</time>
      </trkpt>
      <trkpt lat="41.727635" lon="2.304763">
        <ele>780.80</ele>
        <time>2021-05-22T08:14:50Z</time>
      </trkpt>
      <trkpt lat="41.727586" lon="2.304742">
        <ele>779.40</ele>
        <time>2021-05-22T08:14:51Z</time>
      </trkpt>
      <trkpt lat="41.727542" lon="2.304728">
        <ele>777.20</ele>
        <time>2021-05-22T08:14:52Z</time>
      </trkpt>
      <trkpt lat="41.727521" lon="2.304720">
        <ele>775.60</ele>
        <time>2021-05-22T08:14:53Z</time>
      </trkpt>
      <trkpt lat="41.727500" lon="2.304712">
        <ele>774.60</ele>
        <time>2021-05-22T08:14:54Z</time>
      </trkpt>
      <trkpt lat="41.727435" lon="2.304649">
        <ele>773.40</ele>
        <time>2021-05-22T08:14:55Z</time>
      </trkpt>
      <trkpt lat="41.727435" lon="2.304649">
        <ele>771.60</ele>
        <time>2021-05-22T08:14:56Z</time>
      </trkpt>
      <trkpt lat="41.727378" lon="2.304592">
        <ele>770.40</ele>
        <time>2021-05-22T08:14:57Z</time>
      </trkpt>
      <trkpt lat="41.727354" lon="2.304567">
        <ele>769.00</ele>
        <time>2021-05-22T08:14:58Z</time>
      </trkpt>
      <trkpt lat="41.727321" lon="2.304553">
        <ele>766.60</ele>
        <time>2021-05-22T08:14:59Z</time>
      </trkpt>
      <trkpt lat="41.727288" lon="2.304540">
        <ele>765.20</ele>
        <time>2021-05-22T08:15:00Z</time>
      </trkpt>
      <trkpt lat="41.727260" lon="2.304534">
        <ele>763.80</ele>
        <time>2021-05-22T08:15:01Z</time>
      </trkpt>
      <trkpt lat="41.727235" lon="2.304530">
        <ele>761.80</ele>
        <time>2021-05-22T08:15:02Z</time>
      </trkpt>
      <trkpt lat="41.727210" lon="2.304526">
        <ele>760.80</ele>
        <time>2021-05-22T08:15:03Z</time>
      </trkpt>
      <trkpt lat="41.727178" lon="2.304473">
        <ele>759.40</ele>
        <time>2021-05-22T08:15:06Z</time>
      </trkpt>
      <trkpt lat="41.727163" lon="2.304454">
        <ele>758.40</ele>
        <time>2021-05-22T08:15:07Z</time>
      </trkpt>
      <trkpt lat="41.727140" lon="2.304455">
        <ele>757.60</ele>
        <time>2021-05-22T08:15:08Z</time>
      </trkpt>
      <trkpt lat="41.727117" lon="2.304444">
        <ele>755.60</ele>
        <time>2021-05-22T08:15:10Z</time>
      </trkpt>
      <trkpt lat="41.727108" lon="2.304421">
        <ele>754.60</ele>
        <time>2021-05-22T08:15:11Z</time>
      </trkpt>
      <trkpt lat="41.727108" lon="2.304421">
        <ele>753.20</ele>
        <time>2021-05-22T08:15:12Z</time>
      </trkpt>
      <trkpt lat="41.727128" lon="2.304277">
        <ele>751.40</ele>
        <time>2021-05-22T08:15:14Z</time>
      </trkpt>
      <trkpt lat="41.727133" lon="2.304177">
        <ele>750.80</ele>
        <time>2021-05-22T08:15:15Z</time>
      </trkpt>
      <trkpt lat="41.727120" lon="2.304139">
        <ele>748.20</ele>
        <time>2021-05-22T08:15:16Z</time>
      </trkpt>
      <trkpt lat="41.727120" lon="2.304139">
        <ele>747.00</ele>
        <time>2021-05-22T08:15:17Z</time>
      </trkpt>
      <trkpt lat="41.727093" lon="2.304041">
        <ele>746.00</ele>
        <time>2021-05-22T08:15:18Z</time>
      </trkpt>
      <trkpt lat="41.727068" lon="2.303984">
        <ele>745.40</ele>
        <time>2021-05-22T08:15:19Z</time>
      </trkpt>
      <trkpt lat="41.727041" lon="2.303922">
        <ele>742.40</ele>
        <time>2021-05-22T08:15:20Z</time>
      </trkpt>
      <trkpt lat="41.727018" lon="2.303859">
        <ele>740.60</ele>
        <time>2021-05-22T08:15:21Z</time>
      </trkpt>
      <trkpt lat="41.726999" lon="2.303789">
        <ele>738.80</ele>
        <time>2021-05-22T08:15:22Z</time>
      </trkpt>
      <trkpt lat="41.726973" lon="2.303736">
        <ele>737.20</ele>
        <time>2021-05-22T08:15:23Z</time>
      </trkpt>
      <trkpt lat="41.726946" lon="2.303684">
        <ele>736.40</ele>
        <time>2021-05-22T08:15:24Z</time>
      </trkpt>
      <trkpt lat="41.726892" lon="2.303579">
        <ele>735.40</ele>
        <time>2021-05-22T08:15:25Z</time>
      </trkpt>
      <trkpt lat="41.726863" lon="2.303522">
        <ele>733.80</ele>
        <time>2021-05-22T08:15:26Z</time>
      </trkpt>
      <trkpt lat="41.726833" lon="2.303458">
        <ele>732.20</ele>
        <time>2021-05-22T08:15:27Z</time>
      </trkpt>
      <trkpt lat="41.726811" lon="2.303383">
        <ele>731.40</ele>
        <time>2021-05-22T08:15:28Z</time>
      </trkpt>
      <trkpt lat="41.726795" lon="2.303300">
        <ele>731.00</ele>
        <time>2021-05-22T08:15:29Z</time>
      </trkpt>
      <trkpt lat="41.726759" lon="2.303124">
        <ele>728.60</ele>
        <time>2021-05-22T08:15:32Z</time>
      </trkpt>
      <trkpt lat="41.726752" lon="2.302989">
        <ele>727.00</ele>
        <time>2021-05-22T08:15:33Z</time>
      </trkpt>
      <trkpt lat="41.726746" lon="2.302945">
        <ele>725.20</ele>
        <time>2021-05-22T08:15:35Z</time>
      </trkpt>
      <trkpt lat="41.726727" lon="2.302914">
        <ele>723.20</ele>
        <time>2021-05-22T08:15:36Z</time>
      </trkpt>
      <trkpt lat="41.726692" lon="2.302828">
        <ele>722.00</ele>
        <time>2021-05-22T08:15:37Z</time>
      </trkpt>
      <trkpt lat="41.726671" lon="2.302784">
        <ele>720.80</ele>
        <time>2021-05-22T08:15:38Z</time>
      </trkpt>
      <trkpt lat="41.726657" lon="2.302732">
        <ele>719.80</ele>
        <time>2021-05-22T08:15:39Z</time>
      </trkpt>
      <trkpt lat="41.726661" lon="2.302681">
        <ele>721.00</ele>
        <time>2021-05-22T08:15:40Z</time>
      </trkpt>
      <trkpt lat="41.726659" lon="2.302603">
        <ele>719.20</ele>
        <time>2021-05-22T08:15:42Z</time>
      </trkpt>
      <trkpt lat="41.726648" lon="2.302564">
        <ele>715.60</ele>
        <time>2021-05-22T08:15:43Z</time>
      </trkpt>
      <trkpt lat="41.726629" lon="2.302518">
        <ele>713.00</ele>
        <time>2021-05-22T08:15:44Z</time>
      </trkpt>
      <trkpt lat="41.726609" lon="2.302482">
        <ele>710.80</ele>
        <time>2021-05-22T08:15:45Z</time>
      </trkpt>
      <trkpt lat="41.726597" lon="2.302456">
        <ele>709.40</ele>
        <time>2021-05-22T08:15:46Z</time>
      </trkpt>
      <trkpt lat="41.726597" lon="2.302456">
        <ele>708.00</ele>
        <time>2021-05-22T08:15:47Z</time>
      </trkpt>
      <trkpt lat="41.726573" lon="2.302407">
        <ele>706.40</ele>
        <time>2021-05-22T08:15:48Z</time>
      </trkpt>
      <trkpt lat="41.726549" lon="2.302374">
        <ele>705.60</ele>
        <time>2021-05-22T08:15:49Z</time>
      </trkpt>
      <trkpt lat="41.726549" lon="2.302374">
        <ele>704.60</ele>
        <time>2021-05-22T08:15:50Z</time>
      </trkpt>
      <trkpt lat="41.726513" lon="2.302336">
        <ele>703.00</ele>
        <time>2021-05-22T08:15:51Z</time>
      </trkpt>
      <trkpt lat="41.726460" lon="2.302233">
        <ele>700.80</ele>
        <time>2021-05-22T08:15:52Z</time>
      </trkpt>
      <trkpt lat="41.726460" lon="2.302233">
        <ele>699.60</ele>
        <time>2021-05-22T08:15:53Z</time>
      </trkpt>
      <trkpt lat="41.726401" lon="2.302130">
        <ele>698.20</ele>
        <time>2021-05-22T08:15:54Z</time>
      </trkpt>
      <trkpt lat="41.726378" lon="2.302092">
        <ele>696.60</ele>
        <time>2021-05-22T08:15:55Z</time>
      </trkpt>
      <trkpt lat="41.726365" lon="2.302070">
        <ele>694.60</ele>
        <time>2021-05-22T08:15:56Z</time>
      </trkpt>
      <trkpt lat="41.726357" lon="2.302041">
        <ele>692.80</ele>
        <time>2021-05-22T08:15:57Z</time>
      </trkpt>
      <trkpt lat="41.726358" lon="2.302005">
        <ele>691.60</ele>
        <time>2021-05-22T08:15:58Z</time>
      </trkpt>
      <trkpt lat="41.726362" lon="2.301972">
        <ele>690.40</ele>
        <time>2021-05-22T08:15:59Z</time>
      </trkpt>
      <trkpt lat="41.726356" lon="2.301904">
        <ele>689.00</ele>
        <time>2021-05-22T08:16:01Z</time>
      </trkpt>
      <trkpt lat="41.726320" lon="2.301834">
        <ele>687.40</ele>
        <time>2021-05-22T08:16:03Z</time>
      </trkpt>
      <trkpt lat="41.726299" lon="2.301784">
        <ele>686.20</ele>
        <time>2021-05-22T08:16:04Z</time>
      </trkpt>
      <trkpt lat="41.726277" lon="2.301724">
        <ele>685.00</ele>
        <time>2021-05-22T08:16:05Z</time>
      </trkpt>
      <trkpt lat="41.726250" lon="2.301647">
        <ele>683.80</ele>
        <time>2021-05-22T08:16:06Z</time>
      </trkpt>
      <trkpt lat="41.726229" lon="2.301580">
        <ele>682.40</ele>
        <time>2021-05-22T08:16:07Z</time>
      </trkpt>
      <trkpt lat="41.726217" lon="2.301472">
        <ele>681.20</ele>
        <time>2021-05-22T08:16:09Z</time>
      </trkpt>
      <trkpt lat="41.726220" lon="2.301433">
        <ele>680.80</ele>
        <time>2021-05-22T08:16:10Z</time>
      </trkpt>
      <trkpt lat="41.726167" lon="2.301295">
        <ele>680.20</ele>
        <time>2021-05-22T08:16:16Z</time>
      </trkpt>
      <trkpt lat="41.726083" lon="2.301010">
        <ele>679.40</ele>
        <time>2021-05-22T08:16:21Z</time>
      </trkpt>
      <trkpt lat="41.726005" lon="2.300771">
        <ele>680.00</ele>
        <time>2021-05-22T08:16:26Z</time>
      </trkpt>
      <trkpt lat="41.726006" lon="2.300694">
        <ele>681.40</ele>
        <time>2021-05-22T08:16:28Z</time>
      </trkpt>
      <trkpt lat="41.726008" lon="2.300572">
        <ele>681.80</ele>
        <time>2021-05-22T08:16:31Z</time>
      </trkpt>
      <trkpt lat="41.725968" lon="2.300448">
        <ele>680.00</ele>
        <time>2021-05-22T08:16:34Z</time>
      </trkpt>
      <trkpt lat="41.725948" lon="2.300406">
        <ele>679.20</ele>
        <time>2021-05-22T08:16:36Z</time>
      </trkpt>
      <trkpt lat="41.725930" lon="2.300362">
        <ele>678.80</ele>
        <time>2021-05-22T08:16:37Z</time>
      </trkpt>
      <trkpt lat="41.725887" lon="2.300243">
        <ele>677.80</ele>
        <time>2021-05-22T08:16:40Z</time>
      </trkpt>
      <trkpt lat="41.725860" lon="2.300163">
        <ele>676.20</ele>
        <time>2021-05-22T08:16:41Z</time>
      </trkpt>
      <trkpt lat="41.725850" lon="2.300121">
        <ele>673.80</ele>
        <time>2021-05-22T08:16:42Z</time>
      </trkpt>
      <trkpt lat="41.725856" lon="2.300072">
        <ele>672.20</ele>
        <time>2021-05-22T08:16:43Z</time>
      </trkpt>
      <trkpt lat="41.725867" lon="2.300032">
        <ele>670.00</ele>
        <time>2021-05-22T08:16:44Z</time>
      </trkpt>
      <trkpt lat="41.725880" lon="2.300006">
        <ele>667.00</ele>
        <time>2021-05-22T08:16:45Z</time>
      </trkpt>
      <trkpt lat="41.725894" lon="2.299980">
        <ele>665.40</ele>
        <time>2021-05-22T08:16:46Z</time>
      </trkpt>
      <trkpt lat="41.725904" lon="2.299953">
        <ele>664.40</ele>
        <time>2021-05-22T08:16:47Z</time>
      </trkpt>
      <trkpt lat="41.725901" lon="2.299934">
        <ele>663.60</ele>
        <time>2021-05-22T08:16:48Z</time>
      </trkpt>
      <trkpt lat="41.725887" lon="2.299921">
        <ele>662.40</ele>
        <time>2021-05-22T08:16:49Z</time>
      </trkpt>
      <trkpt lat="41.725860" lon="2.299907">
        <ele>659.00</ele>
        <time>2021-05-22T08:16:50Z</time>
      </trkpt>
      <trkpt lat="41.725781" lon="2.299897">
        <ele>657.80</ele>
        <time>2021-05-22T08:16:52Z</time>
      </trkpt>
      <trkpt lat="41.725683" lon="2.299913">
        <ele>656.60</ele>
        <time>2021-05-22T08:16:54Z</time>
      </trkpt>
      <trkpt lat="41.725541" lon="2.299987">
        <ele>655.40</ele>
        <time>2021-05-22T08:16:56Z</time>
      </trkpt>
      <trkpt lat="41.725464" lon="2.300026">
        <ele>654.40</ele>
        <time>2021-05-22T08:16:57Z</time>
      </trkpt>
      <trkpt lat="41.725389" lon="2.300095">
        <ele>653.60</ele>
        <time>2021-05-22T08:16:58Z</time>
      </trkpt>
      <trkpt lat="41.725263" lon="2.300230">
        <ele>652.20</ele>
        <time>2021-05-22T08:17:00Z</time>
      </trkpt>
      <trkpt lat="41.725228" lon="2.300305">
        <ele>651.60</ele>
        <time>2021-05-22T08:17:01Z</time>
      </trkpt>
      <trkpt lat="41.725200" lon="2.300392">
        <ele>651.20</ele>
        <time>2021-05-22T08:17:02Z</time>
      </trkpt>
      <trkpt lat="41.725213" lon="2.300458">
        <ele>650.60</ele>
        <time>2021-05-22T08:17:03Z</time>
      </trkpt>
      <trkpt lat="41.725229" lon="2.300540">
        <ele>650.20</ele>
        <time>2021-05-22T08:17:04Z</time>
      </trkpt>
      <trkpt lat="41.725262" lon="2.300619">
        <ele>649.60</ele>
        <time>2021-05-22T08:17:05Z</time>
      </trkpt>
      <trkpt lat="41.725293" lon="2.300702">
        <ele>646.20</ele>
        <time>2021-05-22T08:17:06Z</time>
      </trkpt>
      <trkpt lat="41.725321" lon="2.300785">
        <ele>645.40</ele>
        <time>2021-05-22T08:17:07Z</time>
      </trkpt>
      <trkpt lat="41.725353" lon="2.300883">
        <ele>642.40</ele>
        <time>2021-05-22T08:17:08Z</time>
      </trkpt>
      <trkpt lat="41.725382" lon="2.300994">
        <ele>640.20</ele>
        <time>2021-05-22T08:17:09Z</time>
      </trkpt>
      <trkpt lat="41.725410" lon="2.301097">
        <ele>638.80</ele>
        <time>2021-05-22T08:17:10Z</time>
      </trkpt>
      <trkpt lat="41.725440" lon="2.301199">
        <ele>637.00</ele>
        <time>2021-05-22T08:17:11Z</time>
      </trkpt>
      <trkpt lat="41.725472" lon="2.301283">
        <ele>636.00</ele>
        <time>2021-05-22T08:17:12Z</time>
      </trkpt>
      <trkpt lat="41.725482" lon="2.301379">
        <ele>635.20</ele>
        <time>2021-05-22T08:17:13Z</time>
      </trkpt>
      <trkpt lat="41.725476" lon="2.301471">
        <ele>634.60</ele>
        <time>2021-05-22T08:17:14Z</time>
      </trkpt>
      <trkpt lat="41.725460" lon="2.301576">
        <ele>633.60</ele>
        <time>2021-05-22T08:17:15Z</time>
      </trkpt>
      <trkpt lat="41.725440" lon="2.301766">
        <ele>631.80</ele>
        <time>2021-05-22T08:17:17Z</time>
      </trkpt>
      <trkpt lat="41.725446" lon="2.301849">
        <ele>632.00</ele>
        <time>2021-05-22T08:17:18Z</time>
      </trkpt>
      <trkpt lat="41.725448" lon="2.301934">
        <ele>630.60</ele>
        <time>2021-05-22T08:17:19Z</time>
      </trkpt>
      <trkpt lat="41.725448" lon="2.302020">
        <ele>628.60</ele>
        <time>2021-05-22T08:17:20Z</time>
      </trkpt>
      <trkpt lat="41.725430" lon="2.302141">
        <ele>627.60</ele>
        <time>2021-05-22T08:17:21Z</time>
      </trkpt>
      <trkpt lat="41.725401" lon="2.302228">
        <ele>626.80</ele>
        <time>2021-05-22T08:17:22Z</time>
      </trkpt>
      <trkpt lat="41.725306" lon="2.302350">
        <ele>625.40</ele>
        <time>2021-05-22T08:17:24Z</time>
      </trkpt>
      <trkpt lat="41.725264" lon="2.302417">
        <ele>624.20</ele>
        <time>2021-05-22T08:17:25Z</time>
      </trkpt>
      <trkpt lat="41.725226" lon="2.302494">
        <ele>622.60</ele>
        <time>2021-05-22T08:17:26Z</time>
      </trkpt>
      <trkpt lat="41.725175" lon="2.302703">
        <ele>621.20</ele>
        <time>2021-05-22T08:17:28Z</time>
      </trkpt>
      <trkpt lat="41.725148" lon="2.302818">
        <ele>620.00</ele>
        <time>2021-05-22T08:17:29Z</time>
      </trkpt>
      <trkpt lat="41.725089" lon="2.303047">
        <ele>618.40</ele>
        <time>2021-05-22T08:17:31Z</time>
      </trkpt>
      <trkpt lat="41.725055" lon="2.303152">
        <ele>617.00</ele>
        <time>2021-05-22T08:17:32Z</time>
      </trkpt>
      <trkpt lat="41.725029" lon="2.303255">
        <ele>616.20</ele>
        <time>2021-05-22T08:17:33Z</time>
      </trkpt>
      <trkpt lat="41.725011" lon="2.303348">
        <ele>615.80</ele>
        <time>2021-05-22T08:17:34Z</time>
      </trkpt>
      <trkpt lat="41.724982" lon="2.303540">
        <ele>615.40</ele>
        <time>2021-05-22T08:17:36Z</time>
      </trkpt>
      <trkpt lat="41.724972" lon="2.303716">
        <ele>616.00</ele>
        <time>2021-05-22T08:17:38Z</time>
      </trkpt>
      <trkpt lat="41.724968" lon="2.303911">
        <ele>616.40</ele>
        <time>2021-05-22T08:17:40Z</time>
      </trkpt>
      <trkpt lat="41.724959" lon="2.304110">
        <ele>616.60</ele>
        <time>2021-05-22T08:17:42Z</time>
      </trkpt>
      <trkpt lat="41.724934" lon="2.304157">
        <ele>616.60</ele>
        <time>2021-05-22T08:17:43Z</time>
      </trkpt>
      <trkpt lat="41.724875" lon="2.304153">
        <ele>616.40</ele>
        <time>2021-05-22T08:17:45Z</time>
      </trkpt>
      <trkpt lat="41.724853" lon="2.304100">
        <ele>615.20</ele>
        <time>2021-05-22T08:17:46Z</time>
      </trkpt>
      <trkpt lat="41.724833" lon="2.304025">
        <ele>614.40</ele>
        <time>2021-05-22T08:17:47Z</time>
      </trkpt>
      <trkpt lat="41.724796" lon="2.303844">
        <ele>613.00</ele>
        <time>2021-05-22T08:17:49Z</time>
      </trkpt>
      <trkpt lat="41.724752" lon="2.303652">
        <ele>611.20</ele>
        <time>2021-05-22T08:17:51Z</time>
      </trkpt>
      <trkpt lat="41.724699" lon="2.303304">
        <ele>609.60</ele>
        <time>2021-05-22T08:17:54Z</time>
      </trkpt>
      <trkpt lat="41.724643" lon="2.303081">
        <ele>608.60</ele>
        <time>2021-05-22T08:17:56Z</time>
      </trkpt>
      <trkpt lat="41.724573" lon="2.302782">
        <ele>606.40</ele>
        <time>2021-05-22T08:17:59Z</time>
      </trkpt>
      <trkpt lat="41.724579" lon="2.302688">
        <ele>604.40</ele>
        <time>2021-05-22T08:18:00Z</time>
      </trkpt>
      <trkpt lat="41.724589" lon="2.302600">
        <ele>601.40</ele>
        <time>2021-05-22T08:18:01Z</time>
      </trkpt>
      <trkpt lat="41.724601" lon="2.302533">
        <ele>599.80</ele>
        <time>2021-05-22T08:18:02Z</time>
      </trkpt>
      <trkpt lat="41.724617" lon="2.302417">
        <ele>598.80</ele>
        <time>2021-05-22T08:18:04Z</time>
      </trkpt>
      <trkpt lat="41.724624" lon="2.302321">
        <ele>598.80</ele>
        <time>2021-05-22T08:18:06Z</time>
      </trkpt>
      <trkpt lat="41.724623" lon="2.302226">
        <ele>600.00</ele>
        <time>2021-05-22T08:18:08Z</time>
      </trkpt>
      <trkpt lat="41.724630" lon="2.302087">
        <ele>601.00</ele>
        <time>2021-05-22T08:18:11Z</time>
      </trkpt>
      <trkpt lat="41.724624" lon="2.302041">
        <ele>601.20</ele>
        <time>2021-05-22T08:18:12Z</time>
      </trkpt>
      <trkpt lat="41.724569" lon="2.301894">
        <ele>600.80</ele>
        <time>2021-05-22T08:18:15Z</time>
      </trkpt>
      <trkpt lat="41.724539" lon="2.301838">
        <ele>600.20</ele>
        <time>2021-05-22T08:18:16Z</time>
      </trkpt>
      <trkpt lat="41.724500" lon="2.301773">
        <ele>599.40</ele>
        <time>2021-05-22T08:18:17Z</time>
      </trkpt>
      <trkpt lat="41.724416" lon="2.301618">
        <ele>597.40</ele>
        <time>2021-05-22T08:18:19Z</time>
      </trkpt>
      <trkpt lat="41.724364" lon="2.301548">
        <ele>595.60</ele>
        <time>2021-05-22T08:18:20Z</time>
      </trkpt>
      <trkpt lat="41.724283" lon="2.301503">
        <ele>594.40</ele>
        <time>2021-05-22T08:18:21Z</time>
      </trkpt>
      <trkpt lat="41.724129" lon="2.301414">
        <ele>592.40</ele>
        <time>2021-05-22T08:18:23Z</time>
      </trkpt>
      <trkpt lat="41.723998" lon="2.301293">
        <ele>591.00</ele>
        <time>2021-05-22T08:18:25Z</time>
      </trkpt>
      <trkpt lat="41.723956" lon="2.301243">
        <ele>591.40</ele>
        <time>2021-05-22T08:18:26Z</time>
      </trkpt>
      <trkpt lat="41.723922" lon="2.301191">
        <ele>591.00</ele>
        <time>2021-05-22T08:18:27Z</time>
      </trkpt>
      <trkpt lat="41.723836" lon="2.300977">
        <ele>589.00</ele>
        <time>2021-05-22T08:18:30Z</time>
      </trkpt>
      <trkpt lat="41.723776" lon="2.300799">
        <ele>587.60</ele>
        <time>2021-05-22T08:18:32Z</time>
      </trkpt>
      <trkpt lat="41.723706" lon="2.300603">
        <ele>586.00</ele>
        <time>2021-05-22T08:18:34Z</time>
      </trkpt>
      <trkpt lat="41.723670" lon="2.300504">
        <ele>585.60</ele>
        <time>2021-05-22T08:18:35Z</time>
      </trkpt>
      <trkpt lat="41.723601" lon="2.300295">
        <ele>584.60</ele>
        <time>2021-05-22T08:18:37Z</time>
      </trkpt>
      <trkpt lat="41.723576" lon="2.300184">
        <ele>583.00</ele>
        <time>2021-05-22T08:18:38Z</time>
      </trkpt>
      <trkpt lat="41.723559" lon="2.300074">
        <ele>581.60</ele>
        <time>2021-05-22T08:18:39Z</time>
      </trkpt>
      <trkpt lat="41.723553" lon="2.299968">
        <ele>581.00</ele>
        <time>2021-05-22T08:18:40Z</time>
      </trkpt>
      <trkpt lat="41.723555" lon="2.299872">
        <ele>580.60</ele>
        <time>2021-05-22T08:18:41Z</time>
      </trkpt>
      <trkpt lat="41.723613" lon="2.299695">
        <ele>577.80</ele>
        <time>2021-05-22T08:18:42Z</time>
      </trkpt>
      <trkpt lat="41.723641" lon="2.299666">
        <ele>577.80</ele>
        <time>2021-05-22T08:18:43Z</time>
      </trkpt>
      <trkpt lat="41.723669" lon="2.299636">
        <ele>576.80</ele>
        <time>2021-05-22T08:18:44Z</time>
      </trkpt>
      <trkpt lat="41.723835" lon="2.299596">
        <ele>576.00</ele>
        <time>2021-05-22T08:18:45Z</time>
      </trkpt>
      <trkpt lat="41.723924" lon="2.299534">
        <ele>575.40</ele>
        <time>2021-05-22T08:18:46Z</time>
      </trkpt>
      <trkpt lat="41.724010" lon="2.299472">
        <ele>574.80</ele>
        <time>2021-05-22T08:18:47Z</time>
      </trkpt>
      <trkpt lat="41.724077" lon="2.299410">
        <ele>574.40</ele>
        <time>2021-05-22T08:18:48Z</time>
      </trkpt>
      <trkpt lat="41.724124" lon="2.299323">
        <ele>573.60</ele>
        <time>2021-05-22T08:18:49Z</time>
      </trkpt>
      <trkpt lat="41.724157" lon="2.299234">
        <ele>573.20</ele>
        <time>2021-05-22T08:18:50Z</time>
      </trkpt>
      <trkpt lat="41.724207" lon="2.299048">
        <ele>572.80</ele>
        <time>2021-05-22T08:18:52Z</time>
      </trkpt>
      <trkpt lat="41.724219" lon="2.298947">
        <ele>572.40</ele>
        <time>2021-05-22T08:18:53Z</time>
      </trkpt>
      <trkpt lat="41.724224" lon="2.298840">
        <ele>572.40</ele>
        <time>2021-05-22T08:18:54Z</time>
      </trkpt>
      <trkpt lat="41.724214" lon="2.298478">
        <ele>570.80</ele>
        <time>2021-05-22T08:18:57Z</time>
      </trkpt>
      <trkpt lat="41.724195" lon="2.298351">
        <ele>569.60</ele>
        <time>2021-05-22T08:18:58Z</time>
      </trkpt>
      <trkpt lat="41.724167" lon="2.298233">
        <ele>566.40</ele>
        <time>2021-05-22T08:18:59Z</time>
      </trkpt>
      <trkpt lat="41.724138" lon="2.298115">
        <ele>564.00</ele>
        <time>2021-05-22T08:19:00Z</time>
      </trkpt>
      <trkpt lat="41.724119" lon="2.297994">
        <ele>563.00</ele>
        <time>2021-05-22T08:19:01Z</time>
      </trkpt>
      <trkpt lat="41.724101" lon="2.297880">
        <ele>562.40</ele>
        <time>2021-05-22T08:19:02Z</time>
      </trkpt>
      <trkpt lat="41.724093" lon="2.297785">
        <ele>561.80</ele>
        <time>2021-05-22T08:19:03Z</time>
      </trkpt>
      <trkpt lat="41.724125" lon="2.297596">
        <ele>561.20</ele>
        <time>2021-05-22T08:19:05Z</time>
      </trkpt>
      <trkpt lat="41.724228" lon="2.297406">
        <ele>560.80</ele>
        <time>2021-05-22T08:19:07Z</time>
      </trkpt>
      <trkpt lat="41.724308" lon="2.297210">
        <ele>559.20</ele>
        <time>2021-05-22T08:19:09Z</time>
      </trkpt>
      <trkpt lat="41.724349" lon="2.297099">
        <ele>558.20</ele>
        <time>2021-05-22T08:19:10Z</time>
      </trkpt>
      <trkpt lat="41.724389" lon="2.296989">
        <ele>556.80</ele>
        <time>2021-05-22T08:19:11Z</time>
      </trkpt>
      <trkpt lat="41.724432" lon="2.296884">
        <ele>555.20</ele>
        <time>2021-05-22T08:19:12Z</time>
      </trkpt>
      <trkpt lat="41.724488" lon="2.296809">
        <ele>554.00</ele>
        <time>2021-05-22T08:19:13Z</time>
      </trkpt>
      <trkpt lat="41.724547" lon="2.296741">
        <ele>553.00</ele>
        <time>2021-05-22T08:19:14Z</time>
      </trkpt>
      <trkpt lat="41.724629" lon="2.296670">
        <ele>552.40</ele>
        <time>2021-05-22T08:19:15Z</time>
      </trkpt>
      <trkpt lat="41.724790" lon="2.296552">
        <ele>551.20</ele>
        <time>2021-05-22T08:19:17Z</time>
      </trkpt>
      <trkpt lat="41.724841" lon="2.296479">
        <ele>550.40</ele>
        <time>2021-05-22T08:19:18Z</time>
      </trkpt>
      <trkpt lat="41.724840" lon="2.296397">
        <ele>549.40</ele>
        <time>2021-05-22T08:19:19Z</time>
      </trkpt>
      <trkpt lat="41.724840" lon="2.296290">
        <ele>548.60</ele>
        <time>2021-05-22T08:19:20Z</time>
      </trkpt>
      <trkpt lat="41.724836" lon="2.296175">
        <ele>546.80</ele>
        <time>2021-05-22T08:19:21Z</time>
      </trkpt>
      <trkpt lat="41.724827" lon="2.296054">
        <ele>543.60</ele>
        <time>2021-05-22T08:19:22Z</time>
      </trkpt>
      <trkpt lat="41.724820" lon="2.295936">
        <ele>542.00</ele>
        <time>2021-05-22T08:19:23Z</time>
      </trkpt>
      <trkpt lat="41.724821" lon="2.295818">
        <ele>540.60</ele>
        <time>2021-05-22T08:19:24Z</time>
      </trkpt>
      <trkpt lat="41.724828" lon="2.295704">
        <ele>539.40</ele>
        <time>2021-05-22T08:19:25Z</time>
      </trkpt>
      <trkpt lat="41.724863" lon="2.295462">
        <ele>537.60</ele>
        <time>2021-05-22T08:19:27Z</time>
      </trkpt>
      <trkpt lat="41.724888" lon="2.295204">
        <ele>536.00</ele>
        <time>2021-05-22T08:19:29Z</time>
      </trkpt>
      <trkpt lat="41.724889" lon="2.295077">
        <ele>535.40</ele>
        <time>2021-05-22T08:19:30Z</time>
      </trkpt>
      <trkpt lat="41.724877" lon="2.294859">
        <ele>532.40</ele>
        <time>2021-05-22T08:19:32Z</time>
      </trkpt>
      <trkpt lat="41.724887" lon="2.294758">
        <ele>530.40</ele>
        <time>2021-05-22T08:19:33Z</time>
      </trkpt>
      <trkpt lat="41.724960" lon="2.294275">
        <ele>530.40</ele>
        <time>2021-05-22T08:19:38Z</time>
      </trkpt>
      <trkpt lat="41.725005" lon="2.294186">
        <ele>530.60</ele>
        <time>2021-05-22T08:19:40Z</time>
      </trkpt>
      <trkpt lat="41.725112" lon="2.294050">
        <ele>530.40</ele>
        <time>2021-05-22T08:19:42Z</time>
      </trkpt>
      <trkpt lat="41.725210" lon="2.293942">
        <ele>530.40</ele>
        <time>2021-05-22T08:19:44Z</time>
      </trkpt>
      <trkpt lat="41.725218" lon="2.293794">
        <ele>530.80</ele>
        <time>2021-05-22T08:19:46Z</time>
      </trkpt>
      <trkpt lat="41.725182" lon="2.293666">
        <ele>531.20</ele>
        <time>2021-05-22T08:19:48Z</time>
      </trkpt>
      <trkpt lat="41.725183" lon="2.293523">
        <ele>531.20</ele>
        <time>2021-05-22T08:19:50Z</time>
      </trkpt>
      <trkpt lat="41.725234" lon="2.292957">
        <ele>529.40</ele>
        <time>2021-05-22T08:19:58Z</time>
      </trkpt>
      <trkpt lat="41.725286" lon="2.292705">
        <ele>529.20</ele>
        <time>2021-05-22T08:20:00Z</time>
      </trkpt>
      <trkpt lat="41.725389" lon="2.292500">
        <ele>529.20</ele>
        <time>2021-05-22T08:20:03Z</time>
      </trkpt>
      <trkpt lat="41.725473" lon="2.292396">
        <ele>529.40</ele>
        <time>2021-05-22T08:20:05Z</time>
      </trkpt>
      <trkpt lat="41.725558" lon="2.292311">
        <ele>530.00</ele>
        <time>2021-05-22T08:20:08Z</time>
      </trkpt>
      <trkpt lat="41.725633" lon="2.292238">
        <ele>530.40</ele>
        <time>2021-05-22T08:20:09Z</time>
      </trkpt>
      <trkpt lat="41.725665" lon="2.292199">
        <ele>530.60</ele>
        <time>2021-05-22T08:20:10Z</time>
      </trkpt>
      <trkpt lat="41.725694" lon="2.292157">
        <ele>531.00</ele>
        <time>2021-05-22T08:20:11Z</time>
      </trkpt>
      <trkpt lat="41.725742" lon="2.292059">
        <ele>531.60</ele>
        <time>2021-05-22T08:20:13Z</time>
      </trkpt>
      <trkpt lat="41.725815" lon="2.291874">
        <ele>532.60</ele>
        <time>2021-05-22T08:20:18Z</time>
      </trkpt>
      <trkpt lat="41.725827" lon="2.291839">
        <ele>533.00</ele>
        <time>2021-05-22T08:20:20Z</time>
      </trkpt>
      <trkpt lat="41.725929" lon="2.291508">
        <ele>533.40</ele>
        <time>2021-05-22T08:20:27Z</time>
      </trkpt>
      <trkpt lat="41.725929" lon="2.291508">
        <ele>533.80</ele>
        <time>2021-05-22T08:20:28Z</time>
      </trkpt>
      <trkpt lat="41.725932" lon="2.291254">
        <ele>534.00</ele>
        <time>2021-05-22T08:20:33Z</time>
      </trkpt>
      <trkpt lat="41.725917" lon="2.291190">
        <ele>533.40</ele>
        <time>2021-05-22T08:20:35Z</time>
      </trkpt>
      <trkpt lat="41.725898" lon="2.291043">
        <ele>533.20</ele>
        <time>2021-05-22T08:20:36Z</time>
      </trkpt>
      <trkpt lat="41.725887" lon="2.290884">
        <ele>532.40</ele>
        <time>2021-05-22T08:20:38Z</time>
      </trkpt>
      <trkpt lat="41.725864" lon="2.290839">
        <ele>531.00</ele>
        <time>2021-05-22T08:20:39Z</time>
      </trkpt>
      <trkpt lat="41.725845" lon="2.290816">
        <ele>530.40</ele>
        <time>2021-05-22T08:20:40Z</time>
      </trkpt>
      <trkpt lat="41.725828" lon="2.290813">
        <ele>530.00</ele>
        <time>2021-05-22T08:20:41Z</time>
      </trkpt>
      <trkpt lat="41.725809" lon="2.290818">
        <ele>529.80</ele>
        <time>2021-05-22T08:20:44Z</time>
      </trkpt>
      <trkpt lat="41.725785" lon="2.290817">
        <ele>530.00</ele>
        <time>2021-05-22T08:20:52Z</time>
      </trkpt>
      <trkpt lat="41.725785" lon="2.290817">
        <ele>530.00</ele>
        <time>2021-05-22T08:20:53Z</time>
      </trkpt>
      <trkpt lat="41.725783" lon="2.290816">
        <ele>530.00</ele>
        <time>2021-05-22T08:20:55Z</time>
      </trkpt>
      <trkpt lat="41.725788" lon="2.290811">
        <ele>530.40</ele>
        <time>2021-05-22T08:21:10Z</time>
      </trkpt>
      <trkpt lat="41.725792" lon="2.290801">
        <ele>530.60</ele>
        <time>2021-05-22T08:21:14Z</time>
      </trkpt>
      <trkpt lat="41.725797" lon="2.290807">
        <ele>531.00</ele>
        <time>2021-05-22T08:21:26Z</time>
      </trkpt>
      <trkpt lat="41.725797" lon="2.290808">
        <ele>531.00</ele>
        <time>2021-05-22T08:21:28Z</time>
      </trkpt>
      <trkpt lat="41.725797" lon="2.290810">
        <ele>531.00</ele>
        <time>2021-05-22T08:21:30Z</time>
      </trkpt>
      <trkpt lat="41.725795" lon="2.290804">
        <ele>530.60</ele>
        <time>2021-05-22T08:21:34Z</time>
      </trkpt>
      <trkpt lat="41.725809" lon="2.290798">
        <ele>530.80</ele>
        <time>2021-05-22T08:21:43Z</time>
      </trkpt>
      <trkpt lat="41.725821" lon="2.290800">
        <ele>530.80</ele>
        <time>2021-05-22T08:21:49Z</time>
      </trkpt>
    </trkseg>
  </trk>
</gpx>
